[[{"header":{"parameterUnit":"m.s-1","parameterCategory":1,"la1":31.0,"la2":29.5877,"lo1":-88.7671,"lo2":-86.6584,"dy":0.0162,"dx":0.0185,"nx":115,"ny":88,"refTime":"2025-05-20T12:00:00:Z","depth":0,"parameterNumber":2,"parameterNumberName":"U-component_of_WINDS"},"data":[0.0,0.0,0.0,0.0,0.0,0.0,0.0,0.0,0.0,0.0,0.0,0.0,0.0,0.0,0.0,0.0,0.0,0.0,0.0,0.0,0.0,0.0,0.0,0.0,0.0,0.0,0.0,0.0,0.0,0.0,0.0,0.0,0.0,0.0,0.0,0.0,0.0,0.0,0.0,0.0,0.0,0.0,0.0,0.0,0.0,0.0,0.0,0.0,0.0,0.0,0.0,0.0,0.0,0.0,0.0,0.0,0.0,0.0,0.0,0.0,0.0,0.0,0.0,0.0,0.0,0.0,0.0,0.0,0.0,0.0,0.0,0.0,0.0,0.0,0.0,0.0,0.0,0.0,0.0,0.0,0.0,0.0,0.0,0.0,0.0,0.0,0.0,0.0,0.0,0.0,0.0,0.0,0.0,0.0,0.0,0.0,0.0,0.0,0.0,0.0,0.0,0.0,0.0,0.0,0.0,0.0,0.0,0.0,0.0,0.0,0.0,0.0,0.0,0.0,0.0,0.0,0.0,0.0,0.0,0.0,0.0,0.0,0.0,0.0,0.0,0.0,0.0,0.0,0.0,0.0,0.0,0.0,0.0,0.0,0.0,0.0,0.0,0.0,0.0,0.0,0.0,0.0,0.0,0.0,0.0,0.0,0.0,0.0,0.0,0.0,0.0,0.0,0.0,0.0,0.0,0.0,0.0,0.0,0.0,0.0,0.0,0.0,0.0,0.0,0.0,0.0,0.0,0.0,0.0,0.0,0.0,0.0,0.0,0.0,0.0,0.0,0.0,0.0,0.0,0.0,0.0,0.0,0.0,0.0,0.0,0.0,0.0,0.0,0.0,0.0,0.0,0.0,0.0,0.0,0.0,0.0,0.0,0.0,0.0,0.0,0.0,0.0,0.0,0.0,0.0,0.0,0.0,0.0,0.0,0.0,0.0,0.0,0.0,0.0,0.0,0.0,0.0,0.0,0.0,0.0,0.0,0.0,0.0,0.0,0.0,0.0,0.0,0.0,0.0,0.0,0.0,0.0,0.0,0.0,0.0,0.0,0.0,0.0,0.0,0.0,0.0,0.0,0.0,0.0,0.0,0.0,0.0,0.0,0.0,0.0,0.0,0.0,0.0,0.0,0.0,0.0,0.0,0.0,0.0,0.0,0.0,0.0,0.0,0.0,0.0,0.0,0.0,0.0,0.0,0.0,0.0,0.0,0.0,0.0,0.0,0.0,0.0,0.0,0.0,0.0,0.0,0.0,0.0,0.0,0.0,0.0,0.0,0.0,0.0,0.0,0.0,0.0,0.0,0.0,0.0,0.0,0.0,0.0,0.0,0.0,0.0,0.0,0.0,0.0,0.0,0.0,0.0,0.0,0.0,0.0,0.0,0.0,0.0,0.0,0.0,0.0,0.0,0.0,0.0,0.0,0.0,0.0,0.0,0.0,0.0,0.0,0.0,0.0,0.0,0.0,0.0,0.0,0.0,0.0,0.0,0.0,0.0,0.0,0.0,0.0,0.0,0.0,0.0,0.0,0.0,0.0,0.0,0.0,0.0,0.0,0.0,0.0,0.0,0.0,0.0,0.0,0.0,0.0,0.0,0.0,0.0,0.0,0.0,0.0,0.0,0.0,0.0,0.0,0.0,0.0,0.0,0.0,0.0,0.0,0.0,0.0,0.0,0.0,0.0,0.0,0.0,0.0,0.0,0.0,0.0,0.0,0.0,0.0,0.0,0.0,0.0,0.0,0.0,0.0,0.0,0.0,0.0,0.0,0.0,0.0,0.0,0.0,0.0,0.0,0.0,0.0,0.0,0.0,0.0,0.0,0.0,0.0,0.0,0.0,0.0,0.0,0.0,0.0,0.0,0.0,0.0,0.0,0.0,0.0,0.0,0.0,0.0,0.0,0.0,0.0,0.0,0.0,0.0,0.0,0.0,0.0,0.0,0.0,0.0,0.0,0.0,0.0,0.0,0.0,0.0,0.0,0.0,0.0,0.0,0.0,0.0,0.0,0.0,0.0,0.0,0.0,0.0,0.0,0.0,0.0,0.0,0.0,0.0,0.0,0.0,0.0,0.0,0.0,0.0,0.0,0.0,0.0,0.0,0.0,0.0,0.0,0.0,0.0,0.0,0.0,0.0,0.0,0.0,0.0,0.0,0.0,0.0,0.0,0.0,0.0,0.0,0.0,0.0,0.0,0.0,0.0,0.0,0.0,0.0,0.0,0.0,0.0,0.0,0.0,0.0,0.0,0.0,0.0,0.0,0.0,0.0,0.0,0.0,0.0,0.0,0.0,0.0,0.0,0.0,0.0,0.0,0.0,0.0,0.0,0.0,0.0,0.0,0.0,0.0,0.0,0.0,0.0,0.0,0.0,0.0,0.0,0.0,0.0,0.0,0.0,0.0,0.0,0.0,0.0,0.0,0.0,0.0,0.0,0.0,0.0,0.0,0.0,0.0,0.0,0.0,0.0,0.0,0.0,0.0,0.0,0.0,0.0,0.0,0.0,0.0,0.0,0.0,0.0,0.0,0.0,0.0,0.0,0.0,0.0,0.0,0.0,0.0,0.0,0.0,0.0,0.0,0.0,0.0,0.0,0.0,0.0,0.0,0.0,0.0,0.0,0.0,0.0,0.0,0.0,0.0,0.0,0.0,0.0,0.0,0.0,0.0,0.0,0.0,0.0,0.0,0.0,0.0,0.0,0.0,0.0,0.0,0.0,0.0,0.0,0.0,0.0,0.0,0.0,0.0,0.0,0.0,0.0,0.0,0.0,0.0,0.0,0.0,0.0,0.0,0.0,0.0,0.0,0.0,0.0,0.0,0.0,0.0,0.0,0.0,0.0,0.0,0.0,0.0,0.0,0.0,0.0,0.0,0.0,0.0,0.0,0.0,0.0,0.0,0.0,0.0,0.0,0.0,0.0,0.0,0.0,0.0,0.0,0.0,0.0,0.0,0.0,0.0,0.0,0.0,0.0,0.0,0.0,0.0,0.0,0.0,0.0,0.0,0.0,0.0,0.0,0.0,0.0,0.0,0.0,0.0,0.0,0.0,0.0,0.0,0.0,0.0,0.0,0.0,0.0,0.0,0.0,0.0,0.0,0.0,0.0,0.0,0.0,0.0,0.0,0.0,0.0,0.0,0.0,0.0,0.0,0.0,0.0,0.0,0.0,0.0,0.0,0.0,0.0,0.0,0.0,0.0,0.0,0.0,0.0,0.0,0.0,0.0,0.0,0.0,0.0,0.0,0.0,0.0,0.0,0.0,0.0,0.0,0.0,0.0,0.0,0.0,0.0,0.0,0.0,0.0,0.0,0.0,0.0,0.0,0.0,0.0,0.0,0.0,0.0,0.0,0.0,0.0,0.0,0.0,0.0,0.0,0.0,0.0,0.0,0.0,0.0,0.0,0.0,0.0,0.0,0.0,0.0,0.0,0.0,0.0,0.0,0.0,0.0,0.0,0.0,0.0,0.0,0.0,0.0,0.0,0.0,0.0,0.0,0.0,0.0,0.0,0.0,0.0,0.0,0.0,0.0,0.0,0.0,0.0,0.0,0.0,0.0,0.0,0.0,0.0,0.0,0.0,0.0,0.0,0.0,0.0,0.0,0.0,0.0,0.0,0.0,0.0,0.0,0.0,0.0,0.0,0.0,0.0,0.0,0.0,0.0,0.0,0.0,0.0,0.0,0.0,0.0,0.0,0.0,0.0,0.0,0.0,0.0,0.0,0.0,0.0,0.0,0.0,0.0,0.0,0.0,0.0,0.0,0.0,0.0,0.0,0.0,0.0,0.0,0.0,0.0,0.0,0.0,0.0,0.0,0.0,0.0,0.0,0.0,0.0,0.0,0.0,0.0,0.0,0.0,0.0,0.0,0.0,0.0,0.0,0.0,0.0,0.0,0.0,0.0,0.0,0.0,0.0,0.0,0.0,0.0,0.0,0.0,0.0,0.0,0.0,0.0,0.0,0.0,0.0,0.0,0.0,0.0,0.0,0.0,0.0,0.0,0.0,0.0,0.0,0.0,0.0,0.0,0.0,0.0,0.0,0.0,0.0,0.0,0.0,0.0,0.0,0.0,0.0,0.0,0.0,0.0,0.0,0.0,0.0,0.0,0.0,0.0,0.0,0.0,0.0,0.0,0.0,0.0,0.0,0.0,0.0,0.0,0.0,0.0,0.0,0.0,0.0,0.0,0.0,0.0,0.0,0.0,0.0,0.0,0.0,0.0,0.0,0.0,0.0,0.0,0.0,0.0,0.0,0.0,0.0,0.0,0.0,0.0,0.0,0.0,-1.5488,0.0,0.0,0.0,0.0,0.0,0.0,0.0,0.0,0.0,0.0,0.0,0.0,0.0,0.0,0.0,0.0,0.0,0.0,0.0,0.0,0.0,0.0,0.0,0.0,0.0,0.0,0.0,0.0,0.0,0.0,0.0,0.0,0.0,0.0,0.0,0.0,0.0,0.0,0.0,0.0,0.0,0.0,0.0,0.0,0.0,0.0,0.0,0.0,0.0,0.0,0.0,0.0,0.0,0.0,0.0,0.0,0.0,0.0,0.0,0.0,0.0,0.0,0.0,0.0,0.0,0.0,0.0,0.0,0.0,0.0,0.0,0.0,0.0,0.0,0.0,0.0,0.0,0.0,0.0,0.0,0.0,0.0,0.0,0.0,0.0,0.0,0.0,0.0,0.0,0.0,0.0,0.0,0.0,0.0,0.0,0.0,0.0,0.0,0.0,0.0,0.0,0.0,0.0,0.0,0.0,0.0,0.0,0.0,0.0,0.0,-1.7519,-1.6719,-1.709,-1.6699,-1.5488,0.0,0.0,0.0,0.0,0.0,0.0,0.0,0.0,0.0,0.0,0.0,0.0,0.0,0.0,0.0,0.0,0.0,0.0,0.0,0.0,0.0,0.0,0.0,0.0,0.0,0.0,0.0,0.0,0.0,0.0,0.0,0.0,0.0,0.0,0.0,0.0,0.0,0.0,0.0,0.0,0.0,0.0,0.0,0.0,0.0,0.0,0.0,0.0,0.0,0.0,0.0,0.0,0.0,0.0,0.0,0.0,0.0,0.0,0.0,0.0,0.0,0.0,0.0,0.0,0.0,0.0,0.0,0.0,0.0,0.0,0.0,0.0,0.0,0.0,0.0,0.0,0.0,0.0,0.0,0.0,0.0,0.0,0.0,0.0,0.0,0.0,0.0,0.0,0.0,0.0,0.0,0.0,0.0,0.0,0.0,0.0,0.0,0.0,0.0,0.0,0.0,0.0,0.0,0.0,0.0,0.0,0.0,0.0,0.0,0.0,0.0,0.0,-1.7285,-1.6875,-1.6055,0.0,0.0,0.0,0.0,0.0,0.0,0.0,0.0,0.0,0.0,0.0,0.0,0.0,0.0,0.0,0.0,0.0,0.0,0.0,0.0,0.0,0.0,0.0,0.0,0.0,0.0,0.0,0.0,0.0,0.0,0.0,0.0,0.0,0.0,0.0,0.0,0.0,0.0,0.0,0.0,0.0,0.0,0.0,0.0,0.0,0.0,0.0,0.0,0.0,0.0,0.0,0.0,0.0,0.0,0.0,0.0,0.0,0.0,0.0,0.0,0.0,0.0,0.0,0.0,0.0,0.0,0.0,0.0,0.0,0.0,0.0,0.0,0.0,0.0,0.0,0.0,0.0,0.0,0.0,0.0,0.0,0.0,0.0,0.0,0.0,0.0,0.0,0.0,0.0,0.0,0.0,0.0,0.0,0.0,0.0,0.0,0.0,0.0,0.0,0.0,0.0,0.0,0.0,0.0,0.0,0.0,0.0,0.0,0.0,0.0,-1.7441,-1.9004,-1.9043,0.0,-1.7891,0.0,0.0,0.0,0.0,0.0,0.0,0.0,0.0,0.0,0.0,0.0,0.0,0.0,0.0,0.0,0.0,0.0,0.0,0.0,0.0,0.0,0.0,0.0,0.0,0.0,0.0,0.0,0.0,0.0,0.0,0.0,0.0,0.0,0.0,0.0,0.0,0.0,0.0,0.0,0.0,0.0,0.0,0.0,0.0,0.0,0.0,0.0,0.0,0.0,0.0,0.0,0.0,0.0,0.0,0.0,0.0,0.0,0.0,0.0,0.0,0.0,0.0,0.0,0.0,0.0,0.0,0.0,0.0,0.0,0.0,0.0,0.0,0.0,0.0,0.0,0.0,0.0,0.0,0.0,0.0,0.0,0.0,0.0,0.0,0.0,0.0,0.0,0.0,0.0,0.0,0.0,0.0,0.0,0.0,0.0,0.0,0.0,0.0,0.0,0.0,0.0,0.0,0.0,0.0,0.0,0.0,0.0,0.0,0.0,0.0,0.0,-1.8535,-1.8535,-1.8359,0.0,0.0,0.0,0.0,0.0,0.0,0.0,0.0,0.0,0.0,0.0,0.0,0.0,0.0,0.0,0.0,0.0,0.0,0.0,0.0,0.0,0.0,0.0,0.0,0.0,0.0,0.0,0.0,0.0,0.0,0.0,0.0,0.0,0.0,0.0,0.0,0.0,0.0,0.0,0.0,0.0,0.0,0.0,0.0,0.0,0.0,0.0,0.0,0.0,0.0,0.0,0.0,0.0,0.0,0.0,0.0,0.0,0.0,0.0,0.0,0.0,0.0,0.0,0.0,0.0,0.0,0.0,0.0,0.0,0.0,0.0,0.0,0.0,0.0,0.0,0.0,0.0,0.0,0.0,0.0,0.0,0.0,0.0,0.0,0.0,0.0,0.0,0.0,0.0,0.0,0.0,0.0,0.0,0.0,0.0,0.0,0.0,0.0,0.0,0.0,0.0,0.0,0.0,0.0,0.0,0.0,0.0,0.0,0.0,0.0,-1.8477,0.0,-1.873,-1.8711,-1.8496,-1.8008,0.0,0.0,0.0,0.0,0.0,0.0,0.0,0.0,0.0,0.0,0.0,0.0,0.0,0.0,0.0,0.0,0.0,0.0,0.0,0.0,0.0,0.0,0.0,0.0,0.0,0.0,0.0,0.0,0.0,0.0,0.0,0.0,0.0,0.0,0.0,0.0,0.0,0.0,0.0,0.0,0.0,0.0,0.0,0.0,0.0,0.0,0.0,0.0,0.0,0.0,0.0,0.0,0.0,0.0,0.0,0.0,0.0,0.0,0.0,0.0,0.0,0.0,0.0,0.0,0.0,0.0,0.0,0.0,0.0,0.0,0.0,0.0,0.0,0.0,0.0,0.0,0.0,0.0,0.0,0.0,0.0,0.0,0.0,0.0,0.0,0.0,0.0,0.0,0.0,0.0,0.0,0.0,0.0,0.0,0.0,0.0,0.0,0.0,0.0,0.0,0.0,0.0,0.0,0.0,0.0,0.0,0.0,0.0,0.0,-1.9668,-1.8848,-2.043,-2.0488,-1.9687,0.0,0.0,0.0,0.0,0.0,0.0,0.0,0.0,0.0,0.0,0.0,0.0,0.0,0.0,0.0,0.0,0.0,0.0,0.0,0.0,0.0,0.0,0.0,0.0,0.0,0.0,0.0,0.0,0.0,0.0,0.0,0.0,0.0,0.0,0.0,0.0,0.0,0.0,0.0,0.0,0.0,0.0,0.0,0.0,0.0,0.0,0.0,0.0,0.0,0.0,0.0,0.0,0.0,0.0,0.0,0.0,0.0,0.0,0.0,0.0,0.0,0.0,0.0,0.0,0.0,0.0,0.0,0.0,0.0,0.0,0.0,0.0,0.0,0.0,0.0,0.0,0.0,0.0,0.0,0.0,0.0,0.0,0.0,0.0,0.0,0.0,0.0,0.0,0.0,0.0,0.0,0.0,0.0,0.0,0.0,0.0,0.0,0.0,0.0,0.0,0.0,0.0,0.0,0.0,0.0,0.0,0.0,0.0,0.0,-1.8086,-1.8047,-1.9609,-2.2773,-2.0391,-1.8906,0.0,0.0,0.0,0.0,0.0,0.0,0.0,0.0,0.0,0.0,0.0,0.0,0.0,0.0,0.0,0.0,0.0,0.0,0.0,0.0,0.0,0.0,0.0,0.0,0.0,0.0,0.0,0.0,0.0,0.0,0.0,0.0,0.0,0.0,0.0,0.0,0.0,0.0,0.0,0.0,0.0,0.0,0.0,0.0,0.0,0.0,0.0,0.0,0.0,0.0,0.0,0.0,0.0,0.0,0.0,0.0,0.0,0.0,0.0,0.0,0.0,0.0,0.0,0.0,0.0,0.0,0.0,0.0,0.0,0.0,0.0,0.0,0.0,0.0,0.0,0.0,0.0,0.0,0.0,0.0,0.0,0.0,0.0,0.0,0.0,0.0,0.0,0.0,0.0,0.0,0.0,0.0,0.0,0.0,0.0,0.0,0.0,0.0,0.0,0.0,0.0,0.0,0.0,0.0,0.0,0.0,0.0,0.0,0.0,-1.709,0.0,-2.1074,0.0,-2.0371,-1.8574,0.0,0.0,0.0,0.0,0.0,0.0,0.0,0.0,0.0,0.0,0.0,0.0,0.0,0.0,0.0,0.0,0.0,0.0,0.0,0.0,0.0,0.0,0.0,0.0,0.0,0.0,0.0,0.0,0.0,0.0,0.0,0.0,0.0,0.0,0.0,0.0,0.0,0.0,0.0,0.0,0.0,0.0,0.0,0.0,0.0,0.0,0.0,0.0,0.0,0.0,0.0,0.0,0.0,0.0,0.0,0.0,0.0,0.0,0.0,0.0,0.0,0.0,0.0,0.0,0.0,0.0,0.0,0.0,0.0,0.0,0.0,0.0,0.0,0.0,0.0,0.0,0.0,0.0,0.0,0.0,0.0,0.0,0.0,0.0,0.0,0.0,0.0,0.0,0.0,0.0,0.0,0.0,0.0,0.0,0.0,0.0,0.0,0.0,0.0,0.0,0.0,0.0,0.0,0.0,0.0,0.0,0.0,0.0,-1.7168,-2.043,-2.291,-2.3027,-2.0781,-2.0586,-1.8965,0.0,0.0,0.0,0.0,0.0,0.0,0.0,0.0,0.0,0.0,0.0,0.0,0.0,0.0,0.0,0.0,0.0,0.0,0.0,0.0,0.0,0.0,0.0,0.0,0.0,0.0,0.0,0.0,0.0,0.0,0.0,0.0,0.0,0.0,0.0,0.0,0.0,0.0,0.0,0.0,0.0,0.0,0.0,0.0,0.0,0.0,0.0,0.0,0.0,0.0,0.0,0.0,0.0,0.0,0.0,0.0,0.0,0.0,0.0,0.0,0.0,0.0,0.0,0.0,0.0,0.0,0.0,0.0,0.0,0.0,0.0,0.0,0.0,0.0,0.0,0.0,0.0,0.0,0.0,0.0,0.0,0.0,0.0,0.0,0.0,0.0,0.0,0.0,0.0,0.0,0.0,0.0,0.0,0.0,0.0,0.0,0.0,0.0,0.0,0.0,0.0,0.0,0.0,0.0,0.0,0.0,0.0,0.0,0.0,-1.9766,-2.1641,-2.2852,-2.3125,-2.0937,-1.9473,0.0,0.0,0.0,0.0,0.0,0.0,0.0,0.0,0.0,0.0,0.0,0.0,0.0,0.0,0.0,0.0,0.0,0.0,0.0,0.0,0.0,0.0,0.0,0.0,0.0,0.0,0.0,0.0,0.0,0.0,0.0,0.0,0.0,0.0,0.0,0.0,0.0,0.0,0.0,0.0,0.0,0.0,0.0,0.0,0.0,0.0,0.0,0.0,0.0,0.0,0.0,0.0,0.0,0.0,0.0,0.0,0.0,0.0,0.0,0.0,0.0,0.0,0.0,0.0,0.0,0.0,0.0,0.0,0.0,0.0,0.0,0.0,0.0,0.0,0.0,0.0,0.0,0.0,0.0,0.0,0.0,0.0,0.0,0.0,0.0,0.0,0.0,0.0,0.0,0.0,0.0,0.0,0.0,0.0,0.0,0.0,0.0,0.0,0.0,0.0,0.0,0.0,0.0,0.0,0.0,0.0,0.0,0.0,0.0,-2.3242,-2.4531,-2.543,-2.584,-2.3144,-2.1191,-2.0117,0.0,0.0,0.0,0.0,0.0,0.0,0.0,0.0,0.0,0.0,0.0,0.0,0.0,0.0,0.0,0.0,0.0,0.0,0.0,0.0,0.0,0.0,0.0,0.0,0.0,0.0,0.0,0.0,0.0,0.0,0.0,0.0,0.0,0.0,0.0,0.0,0.0,0.0,0.0,0.0,0.0,0.0,0.0,0.0,0.0,0.0,0.0,0.0,0.0,0.0,0.0,0.0,0.0,0.0,0.0,0.0,0.0,0.0,0.0,0.0,0.0,0.0,0.0,0.0,0.0,0.0,0.0,0.0,0.0,0.0,0.0,0.0,0.0,0.0,0.0,0.0,0.0,0.0,0.0,0.0,0.0,0.0,0.0,0.0,0.0,0.0,0.0,0.0,0.0,0.0,0.0,0.0,0.0,0.0,0.0,0.0,0.0,0.0,0.0,0.0,0.0,0.0,0.0,0.0,0.0,0.0,0.0,0.0,-2.9922,-3.0957,-3.0586,-2.873,-2.6875,-2.3945,0.0,0.0,0.0,0.0,0.0,0.0,0.0,0.0,0.0,0.0,0.0,0.0,0.0,0.0,0.0,0.0,0.0,0.0,0.0,0.0,0.0,0.0,0.0,0.0,0.0,0.0,0.0,0.0,0.0,0.0,0.0,0.0,0.0,0.0,0.0,0.0,0.0,0.0,0.0,0.0,0.0,0.0,0.0,0.0,0.0,0.0,0.0,0.0,0.0,0.0,0.0,0.0,0.0,0.0,0.0,0.0,0.0,0.0,0.0,0.0,0.0,0.0,0.0,0.0,0.0,0.0,0.0,0.0,0.0,0.0,0.0,0.0,0.0,0.0,0.0,0.0,0.0,0.0,0.0,0.0,0.0,0.0,0.0,0.0,0.0,0.0,0.0,0.0,0.0,0.0,0.0,0.0,0.0,0.0,0.0,0.0,0.0,0.0,0.0,0.0,0.0,0.0,0.0,0.0,0.0,0.0,0.0,0.0,0.0,-3.4277,-3.707,-3.6758,-3.3125,-3.0137,-2.7148,0.0,0.0,0.0,0.0,0.0,0.0,0.0,0.0,0.0,0.0,0.0,0.0,0.0,0.0,0.0,0.0,0.0,0.0,0.0,0.0,0.0,0.0,0.0,0.0,0.0,0.0,0.0,0.0,0.0,0.0,0.0,0.0,0.0,0.0,0.0,0.0,0.0,0.0,0.0,0.0,0.0,0.0,0.0,0.0,0.0,0.0,0.0,0.0,0.0,0.0,0.0,0.0,0.0,0.0,0.0,0.0,0.0,0.0,0.0,0.0,0.0,0.0,0.0,0.0,0.0,0.0,0.0,0.0,0.0,0.0,0.0,0.0,0.0,0.0,0.0,0.0,0.0,0.0,0.0,0.0,0.0,0.0,0.0,0.0,0.0,0.0,0.0,0.0,0.0,0.0,0.0,0.0,0.0,0.0,0.0,0.0,0.0,0.0,0.0,0.0,0.0,0.0,0.0,0.0,0.0,0.0,0.0,0.0,-3.3633,-3.7051,-4.082,-4.1406,-3.8535,-3.4453,-3.037,0.0,0.0,0.0,0.0,0.0,0.0,0.0,0.0,0.0,0.0,0.0,0.0,0.0,0.0,0.0,0.0,0.0,0.0,0.0,0.0,0.0,0.0,0.0,0.0,0.0,0.0,0.0,0.0,0.0,0.0,0.0,0.0,0.0,0.0,0.0,0.0,0.0,0.0,0.0,0.0,0.0,0.0,0.0,0.0,0.0,0.0,0.0,0.0,0.0,0.0,0.0,0.0,0.0,0.0,0.0,0.0,0.0,0.0,0.0,0.0,0.0,0.0,0.0,0.0,0.0,0.0,0.0,0.0,0.0,0.0,0.0,0.0,0.0,0.0,0.0,0.0,0.0,0.0,0.0,0.0,0.0,0.0,0.0,0.0,0.0,0.0,0.0,0.0,0.0,0.0,0.0,0.0,0.0,0.0,0.0,0.0,0.0,0.0,0.0,0.0,0.0,0.0,0.0,0.0,0.0,0.0,0.0,0.0,-3.5467,-3.8828,-4.2969,-4.4707,-4.373,-3.8827,-3.3435,0.0,0.0,0.0,0.0,0.0,0.0,0.0,0.0,0.0,0.0,0.0,0.0,0.0,0.0,0.0,0.0,0.0,0.0,0.0,0.0,0.0,0.0,0.0,0.0,0.0,0.0,0.0,0.0,0.0,0.0,0.0,0.0,0.0,0.0,0.0,0.0,0.0,0.0,0.0,0.0,0.0,0.0,0.0,0.0,0.0,0.0,0.0,0.0,0.0,0.0,0.0,0.0,0.0,0.0,0.0,0.0,0.0,0.0,0.0,0.0,0.0,0.0,0.0,0.0,0.0,0.0,0.0,0.0,0.0,0.0,0.0,0.0,0.0,0.0,0.0,0.0,0.0,0.0,0.0,0.0,0.0,0.0,0.0,0.0,0.0,0.0,0.0,0.0,0.0,0.0,0.0,0.0,0.0,0.0,0.0,0.0,0.0,0.0,0.0,0.0,0.0,0.0,0.0,0.0,0.0,0.0,0.0,0.0,-3.7764,-4.0625,-4.4113,-4.5558,-4.4726,-3.9707,-3.5136,0.0,0.0,0.0,0.0,0.0,0.0,0.0,0.0,0.0,0.0,0.0,0.0,0.0,0.0,0.0,0.0,0.0,0.0,0.0,0.0,0.0,0.0,0.0,0.0,0.0,0.0,0.0,0.0,0.0,0.0,0.0,0.0,0.0,0.0,0.0,0.0,0.0,0.0,0.0,0.0,0.0,0.0,0.0,0.0,0.0,0.0,0.0,0.0,-1.5022,0.0,0.0,0.0,0.0,0.0,0.0,0.0,0.0,0.0,0.0,0.0,0.0,0.0,0.0,0.0,0.0,0.0,0.0,0.0,0.0,0.0,0.0,0.0,0.0,0.0,0.0,0.0,0.0,0.0,0.0,0.0,0.0,0.0,0.0,0.0,0.0,0.0,0.0,0.0,0.0,0.0,0.0,0.0,0.0,0.0,0.0,0.0,0.0,0.0,0.0,0.0,0.0,0.0,0.0,0.0,0.0,0.0,0.0,0.0,-3.8819,-4.2258,-4.4863,-4.6002,-4.5469,-4.1406,-3.7109,0.0,0.0,0.0,0.0,0.0,0.0,0.0,0.0,0.0,0.0,0.0,0.0,0.0,0.0,0.0,0.0,0.0,0.0,0.0,0.0,0.0,0.0,0.0,0.0,0.0,0.0,0.0,0.0,0.0,0.0,0.0,0.0,0.0,0.0,0.0,0.0,0.0,0.0,0.0,0.0,0.0,0.0,0.0,0.0,0.0,0.0,0.0,0.0,0.0,0.0,0.0,0.0,0.0,0.0,0.0,0.0,0.0,0.0,0.0,0.0,0.0,0.0,0.0,0.0,0.0,0.0,0.0,0.0,0.0,0.0,0.0,0.0,0.0,0.0,0.0,0.0,0.0,0.0,0.0,0.0,0.0,0.0,0.0,0.0,0.0,0.0,0.0,0.0,0.0,0.0,0.0,0.0,0.0,0.0,0.0,0.0,0.0,0.0,0.0,0.0,0.0,0.0,0.0,0.0,0.0,0.0,0.0,-3.5273,-3.9351,-4.3788,-4.5425,-4.6206,-4.6229,-4.2968,-3.8848,-3.3982,0.0,0.0,0.0,0.0,0.0,0.0,0.0,0.0,0.0,0.0,0.0,0.0,0.0,0.0,0.0,0.0,0.0,0.0,0.0,0.0,0.0,0.0,0.0,0.0,0.0,0.0,0.0,0.0,0.0,0.0,0.0,0.0,0.0,0.0,0.0,0.0,0.0,0.0,-1.4516,-1.6173,0.0,0.0,0.0,0.0,0.0,0.0,0.0,0.0,-1.6445,0.0,0.0,0.0,0.0,0.0,0.0,0.0,0.0,0.0,0.0,0.0,0.0,0.0,0.0,0.0,0.0,0.0,0.0,0.0,0.0,0.0,0.0,0.0,0.0,0.0,0.0,0.0,0.0,0.0,0.0,0.0,0.0,0.0,0.0,0.0,0.0,0.0,0.0,0.0,0.0,0.0,0.0,0.0,0.0,0.0,0.0,0.0,0.0,0.0,0.0,0.0,0.0,0.0,0.0,0.0,0.0,-3.5989,-3.6791,-3.9887,-4.5511,-4.5916,-4.6091,-4.611,-4.285,-3.9309,-3.5604,0.0,0.0,0.0,0.0,0.0,0.0,0.0,0.0,0.0,0.0,0.0,0.0,0.0,0.0,0.0,0.0,0.0,0.0,0.0,0.0,0.0,0.0,0.0,0.0,0.0,0.0,0.0,0.0,0.0,0.0,0.0,0.0,0.0,0.0,0.0,0.0,0.0,0.0,0.0,-1.9619,-2.0773,0.0,0.0,0.0,0.0,0.0,0.0,0.0,0.0,-1.7218,0.0,0.0,0.0,0.0,0.0,0.0,0.0,0.0,0.0,0.0,0.0,0.0,0.0,0.0,0.0,0.0,0.0,0.0,0.0,0.0,0.0,0.0,0.0,0.0,0.0,0.0,0.0,0.0,0.0,0.0,0.0,0.0,0.0,0.0,0.0,0.0,0.0,0.0,0.0,0.0,0.0,0.0,0.0,0.0,0.0,0.0,0.0,0.0,0.0,0.0,0.0,0.0,0.0,0.0,0.0,-3.5483,-3.7918,-4.1308,-4.586,-4.6027,-4.6076,-4.612,-4.2432,-3.8992,0.0,0.0,0.0,0.0,0.0,0.0,0.0,0.0,0.0,0.0,0.0,0.0,0.0,0.0,0.0,0.0,0.0,0.0,0.0,0.0,0.0,0.0,0.0,0.0,0.0,0.0,0.0,0.0,0.0,0.0,0.0,0.0,0.0,0.0,0.0,0.0,0.0,0.0,0.0,0.0,-2.0735,-2.1962,-2.3288,0.0,0.0,0.0,0.0,0.0,0.0,-2.0062,-1.8885,0.0,0.0,0.0,0.0,0.0,0.0,0.0,0.0,0.0,0.0,0.0,0.0,0.0,0.0,0.0,0.0,0.0,0.0,0.0,0.0,0.0,0.0,0.0,0.0,0.0,0.0,0.0,0.0,0.0,0.0,0.0,0.0,0.0,0.0,0.0,0.0,0.0,0.0,0.0,0.0,0.0,0.0,0.0,0.0,0.0,0.0,0.0,0.0,0.0,0.0,0.0,0.0,0.0,0.0,0.0,-3.4678,-3.8585,-4.2412,-4.6028,-4.6053,-4.6128,-4.6323,-4.2126,-3.8598,0.0,0.0,0.0,0.0,0.0,0.0,0.0,0.0,0.0,0.0,0.0,0.0,0.0,0.0,0.0,0.0,0.0,0.0,0.0,0.0,0.0,0.0,0.0,0.0,0.0,0.0,0.0,0.0,0.0,0.0,0.0,0.0,0.0,0.0,0.0,0.0,0.0,0.0,0.0,0.0,0.0,-2.3197,-2.5038,-2.3423,0.0,0.0,0.0,0.0,-2.2385,-2.1846,0.0,0.0,0.0,0.0,0.0,0.0,0.0,0.0,0.0,0.0,0.0,0.0,0.0,0.0,0.0,0.0,0.0,0.0,0.0,0.0,0.0,0.0,0.0,0.0,0.0,0.0,0.0,0.0,0.0,0.0,0.0,0.0,0.0,0.0,0.0,0.0,0.0,0.0,0.0,0.0,0.0,0.0,0.0,0.0,0.0,0.0,0.0,0.0,0.0,0.0,0.0,0.0,0.0,0.0,0.0,0.0,-3.5482,-3.8338,-4.2119,-4.6733,-4.6306,-4.6291,-4.7076,-4.2334,-3.8562,0.0,0.0,0.0,0.0,0.0,0.0,0.0,0.0,0.0,0.0,0.0,0.0,0.0,0.0,0.0,0.0,0.0,0.0,0.0,0.0,0.0,0.0,0.0,0.0,0.0,0.0,0.0,0.0,0.0,0.0,0.0,0.0,0.0,0.0,0.0,0.0,0.0,0.0,0.0,0.0,0.0,-2.5832,-2.5385,-2.4447,-2.3817,0.0,0.0,-2.4202,-2.5774,-2.5288,0.0,0.0,0.0,0.0,0.0,0.0,0.0,0.0,0.0,0.0,0.0,0.0,0.0,0.0,0.0,0.0,0.0,0.0,0.0,0.0,0.0,0.0,0.0,0.0,0.0,0.0,0.0,0.0,0.0,0.0,0.0,0.0,0.0,0.0,0.0,0.0,0.0,0.0,0.0,0.0,0.0,0.0,0.0,0.0,0.0,0.0,0.0,0.0,0.0,0.0,0.0,0.0,0.0,0.0,0.0,-3.0801,-3.5786,-3.9779,-4.3578,-4.7073,-4.6399,-4.6406,-4.7307,-4.1434,-3.729,0.0,0.0,0.0,0.0,0.0,0.0,0.0,0.0,0.0,0.0,0.0,0.0,0.0,0.0,0.0,0.0,0.0,0.0,0.0,0.0,0.0,0.0,0.0,0.0,0.0,0.0,0.0,0.0,0.0,0.0,0.0,0.0,0.0,0.0,0.0,0.0,0.0,0.0,0.0,0.0,0.0,0.0,-2.6755,-2.6472,0.0,0.0,0.0,-2.6159,-2.5904,0.0,0.0,0.0,0.0,0.0,0.0,0.0,0.0,0.0,0.0,0.0,0.0,0.0,0.0,0.0,0.0,0.0,0.0,0.0,0.0,0.0,0.0,0.0,0.0,0.0,0.0,0.0,0.0,0.0,0.0,0.0,0.0,0.0,0.0,0.0,0.0,0.0,0.0,0.0,0.0,0.0,0.0,0.0,0.0,0.0,0.0,0.0,0.0,0.0,0.0,0.0,0.0,0.0,0.0,0.0,0.0,0.0,-3.5871,-4.1142,-4.5067,-4.7517,-4.6797,-4.6775,-4.7565,-4.1257,0.0,0.0,0.0,0.0,0.0,0.0,0.0,0.0,0.0,0.0,0.0,0.0,0.0,0.0,0.0,0.0,0.0,0.0,0.0,0.0,0.0,0.0,0.0,0.0,0.0,0.0,0.0,-1.0961,0.0,0.0,0.0,0.0,0.0,0.0,0.0,0.0,0.0,0.0,0.0,0.0,0.0,0.0,-2.7159,-2.7818,-2.8068,-2.8121,0.0,0.0,-2.7582,-2.6712,-2.8179,-2.7992,0.0,0.0,0.0,0.0,0.0,0.0,0.0,0.0,0.0,0.0,0.0,0.0,0.0,0.0,0.0,0.0,0.0,0.0,0.0,0.0,0.0,0.0,0.0,0.0,0.0,0.0,0.0,0.0,0.0,0.0,0.0,0.0,0.0,0.0,0.0,0.0,0.0,0.0,0.0,0.0,0.0,0.0,0.0,0.0,0.0,0.0,0.0,0.0,0.0,0.0,0.0,0.0,0.0,0.0,0.0,-3.5915,-4.1713,-4.5967,-4.8465,-4.7743,-4.7721,-4.8465,-4.2769,-3.8437,0.0,0.0,0.0,0.0,0.0,0.0,0.0,0.0,0.0,0.0,0.0,0.0,0.0,0.0,0.0,0.0,0.0,0.0,0.0,0.0,0.0,0.0,0.0,0.0,0.0,0.0,0.0,0.0,0.0,0.0,0.0,0.0,0.0,0.0,0.0,0.0,0.0,0.0,0.0,0.0,0.0,-2.7838,-2.7895,-2.8549,-2.9569,0.0,0.0,-2.839,-2.9808,-3.0173,-2.889,-2.4683,0.0,0.0,0.0,0.0,0.0,0.0,0.0,0.0,0.0,0.0,0.0,0.0,0.0,0.0,0.0,0.0,0.0,0.0,0.0,0.0,0.0,0.0,0.0,0.0,0.0,0.0,0.0,0.0,0.0,0.0,0.0,0.0,0.0,0.0,0.0,0.0,0.0,0.0,0.0,0.0,0.0,0.0,0.0,0.0,0.0,0.0,0.0,0.0,0.0,0.0,0.0,0.0,0.0,-3.1641,-3.5951,-4.1835,-4.6127,-4.8586,-4.7904,-4.7886,-4.8748,-4.3476,-3.8906,0.0,0.0,0.0,0.0,0.0,0.0,0.0,0.0,0.0,0.0,0.0,0.0,0.0,0.0,0.0,0.0,0.0,0.0,0.0,0.0,0.0,0.0,0.0,0.0,0.0,0.0,0.0,0.0,-1.6553,-1.6534,-1.4972,0.0,0.0,0.0,0.0,0.0,0.0,0.0,0.0,0.0,0.0,-2.8838,-2.9365,-3.0583,0.0,0.0,-3.1275,-3.0641,-2.9737,-3.0506,-2.975,-2.5524,-2.4562,0.0,0.0,0.0,0.0,0.0,0.0,0.0,0.0,0.0,0.0,0.0,0.0,0.0,0.0,0.0,0.0,0.0,0.0,0.0,0.0,0.0,0.0,0.0,0.0,0.0,0.0,0.0,0.0,0.0,0.0,0.0,0.0,0.0,0.0,0.0,0.0,0.0,0.0,0.0,0.0,0.0,0.0,0.0,0.0,0.0,0.0,0.0,0.0,0.0,0.0,0.0,0.0,-3.2047,-3.6364,-4.2532,-4.6853,-4.9138,-4.8357,-4.8181,-4.865,-4.4042,-3.9722,0.0,0.0,0.0,0.0,0.0,0.0,0.0,0.0,0.0,0.0,0.0,0.0,0.0,0.0,0.0,0.0,0.0,0.0,0.0,0.0,0.0,0.0,0.0,0.0,0.0,0.0,0.0,0.0,-1.7891,-1.7658,-1.5886,0.0,0.0,0.0,0.0,0.0,0.0,0.0,0.0,0.0,0.0,-2.9813,-3.0673,-3.1788,-3.241,-3.2102,-3.1891,-3.1237,-2.9717,-3.0525,-3.0019,-2.6308,0.0,0.0,0.0,0.0,0.0,0.0,0.0,0.0,0.0,0.0,0.0,0.0,0.0,0.0,0.0,0.0,0.0,0.0,0.0,0.0,0.0,0.0,0.0,0.0,0.0,0.0,0.0,-2.19,0.0,0.0,-2.0691,0.0,0.0,0.0,0.0,0.0,0.0,0.0,0.0,0.0,0.0,0.0,0.0,0.0,0.0,0.0,0.0,0.0,0.0,0.0,0.0,0.0,0.0,-3.2949,-3.7282,-4.3998,-4.833,-4.9969,-4.9228,-4.8761,-4.8702,-4.4642,-4.1148,-3.8454,0.0,0.0,0.0,0.0,0.0,0.0,0.0,0.0,0.0,0.0,0.0,0.0,0.0,0.0,0.0,0.0,0.0,0.0,0.0,0.0,0.0,0.0,0.0,0.0,0.0,0.0,-1.3266,-1.5163,-1.6675,0.0,0.0,0.0,0.0,0.0,0.0,0.0,0.0,0.0,0.0,-2.8212,-3.0673,-3.1525,-3.1718,-3.2102,-3.2795,-3.0871,-2.9531,-3.0308,-3.0423,-2.9538,0.0,0.0,0.0,0.0,0.0,0.0,0.0,0.0,0.0,0.0,0.0,0.0,0.0,0.0,0.0,0.0,0.0,0.0,0.0,0.0,0.0,0.0,0.0,0.0,0.0,0.0,0.0,-2.7991,-2.6233,0.0,0.0,0.0,0.0,0.0,0.0,0.0,0.0,0.0,0.0,0.0,-3.5642,-3.7283,0.0,0.0,0.0,0.0,0.0,0.0,0.0,0.0,0.0,0.0,0.0,0.0,-3.4393,-3.8259,-4.4387,-4.8406,-5.0007,-4.9247,-4.8798,-4.8779,-4.5773,-4.1849,-3.7009,0.0,0.0,0.0,0.0,0.0,0.0,0.0,0.0,0.0,0.0,0.0,0.0,0.0,0.0,0.0,0.0,0.0,0.0,0.0,0.0,0.0,0.0,0.0,0.0,0.0,-1.6135,0.0,0.0,0.0,0.0,0.0,0.0,0.0,0.0,0.0,0.0,0.0,-2.4995,-2.7491,-2.9333,-3.0712,-3.1583,-3.266,-3.366,0.0,0.0,0.0,0.0,0.0,0.0,0.0,0.0,0.0,0.0,0.0,0.0,0.0,0.0,-2.7408,-2.2679,-2.2253,-2.2578,-2.2281,0.0,0.0,0.0,0.0,0.0,0.0,0.0,0.0,0.0,0.0,0.0,0.0,0.0,0.0,-3.3261,0.0,-3.1113,0.0,0.0,0.0,0.0,0.0,0.0,0.0,0.0,-3.8453,-4.0444,-4.0503,-4.2123,-4.1888,0.0,-3.9388,-3.5602,0.0,0.0,0.0,0.0,0.0,0.0,0.0,0.0,-3.5701,-3.9528,-4.5109,-4.8835,-5.0416,-4.9403,-4.8798,-4.874,-4.5753,-4.1967,-3.7456,-3.2949,-2.9455,0.0,0.0,0.0,0.0,0.0,0.0,0.0,0.0,0.0,0.0,0.0,0.0,0.0,0.0,0.0,0.0,0.0,0.0,0.0,0.0,0.0,0.0,0.0,-1.7468,0.0,0.0,0.0,0.0,0.0,0.0,0.0,0.0,0.0,-2.3715,-2.5414,-2.7588,-3.0088,-3.091,-3.1468,-3.2045,0.0,0.0,0.0,0.0,0.0,0.0,0.0,-3.0589,-2.9775,-3.0371,-3.1237,-3.2038,-3.3262,-3.3841,-3.2989,0.0,0.0,-2.6632,-2.6097,-2.6389,-2.6135,-2.7434,-2.8332,-2.7517,-2.87,-2.9672,0.0,0.0,0.0,0.0,0.0,0.0,0.0,0.0,-3.8942,-3.8396,0.0,-3.6618,0.0,0.0,0.0,0.0,0.0,-3.6968,0.0,0.0,-4.5773,-4.7861,-4.6417,-4.6397,-4.6007,-4.5185,-4.5088,-4.3292,-3.9741,-3.4157,0.0,0.0,0.0,0.0,0.0,0.0,-3.699,-4.1226,-4.6261,-4.9677,-5.1258,-4.9696,-4.8759,-4.8603,-4.466,-4.1674,-3.9858,-3.6579,-3.3223,-2.9905,-2.7269,0.0,0.0,0.0,0.0,0.0,0.0,0.0,0.0,0.0,0.0,0.0,0.0,0.0,0.0,0.0,0.0,0.0,0.0,0.0,0.0,-1.7429,0.0,0.0,0.0,0.0,0.0,0.0,0.0,0.0,0.0,0.0,-2.5778,-2.7778,-3.0177,-3.2602,0.0,0.0,0.0,0.0,-3.368,-3.2199,-3.2526,-3.2814,-3.2102,-3.3179,-3.3859,-3.3083,0.0,0.0,-3.5731,-3.4934,-3.4267,-3.3333,-3.451,-3.4623,-3.2084,-3.0369,-2.9586,-3.0223,-3.0536,-3.072,-3.1374,-3.2045,-3.2486,-4.7198,0.0,0.0,0.0,0.0,-4.1771,-4.3528,-4.671,-4.5539,-4.4192,-4.2746,-4.1869,0.0,0.0,0.0,0.0,0.0,0.0,-4.1126,-4.3567,-4.5929,-4.7725,-4.9031,-4.9638,-4.9501,-4.864,-4.864,-4.7508,-4.5322,-4.3001,-3.775,-2.9863,0.0,0.0,0.0,0.0,-4.0795,-4.3899,-4.7742,-5.026,-5.1375,-4.9677,-4.8232,-4.7042,-4.4621,-4.2786,-4.1674,-3.8962,-3.6171,-3.3339,-3.0743,0.0,0.0,0.0,0.0,0.0,0.0,0.0,0.0,0.0,0.0,0.0,0.0,0.0,0.0,0.0,0.0,0.0,0.0,0.0,-1.8241,-1.9712,-2.0273,0.0,0.0,0.0,0.0,0.0,0.0,0.0,0.0,0.0,-3.0739,-3.0887,-3.1685,0.0,0.0,-3.2891,-3.2891,-3.418,-3.5154,-3.525,-3.5468,0.0,0.0,-3.5064,-3.4321,-3.468,-3.6365,-3.7731,-3.8097,-3.8454,-3.8593,-3.8254,-3.8109,-3.7732,-3.7064,-3.5979,-3.5076,-3.4846,-3.5133,-3.5381,-3.5155,-3.5512,-3.5921,-5.3834,-4.9091,-4.6885,-4.6573,-4.7471,-4.6983,-4.8603,-5.1588,-5.0573,-4.954,-4.8505,-4.7647,-4.5382,-4.2103,-4.0717,0.0,0.0,0.0,-4.4387,-4.704,-4.792,-4.913,-5.0592,-5.1141,-5.1141,-5.0631,-5.0612,-5.0087,-4.9091,-4.7881,-4.3645,-3.6657,0.0,0.0,-3.5037,-3.9704,-4.343,-4.6027,-4.8699,-5.0534,-5.1355,-4.9696,-4.7998,-4.6319,-4.4603,-4.345,-4.2903,-4.0444,-3.8045,-3.5818,-3.3573,-3.0411,0.0,0.0,0.0,0.0,0.0,0.0,0.0,0.0,0.0,0.0,0.0,-1.5273,0.0,0.0,0.0,0.0,-1.8139,-1.9912,-2.1933,-2.2455,0.0,0.0,0.0,0.0,0.0,0.0,0.0,-2.8369,-3.0998,-3.3062,-3.3886,-3.3851,-3.4218,-3.5533,-3.4949,-3.441,-3.441,0.0,-3.6546,-3.6673,-3.6981,-3.7385,-3.7892,-3.7007,-3.6507,-3.7353,-3.8296,-3.9115,-3.9611,-4.0169,-4.046,-4.0397,-4.001,-3.9651,-3.9614,-3.9112,-3.835,-3.7254,-3.7636,-3.8018,-3.757,-3.7976,-3.8376,-5.8909,-5.7777,-5.3776,-5.2038,-5.1902,-5.1902,-5.2839,-5.4361,-5.4264,-5.4225,-5.4127,-5.321,-5.1063,-4.7938,-4.4756,0.0,-4.5791,-4.7373,-4.8935,-5.0436,-5.116,-5.1492,-5.1511,-5.1433,-5.1394,-5.1394,-5.1394,-5.1394,-5.1297,-4.9774,-4.7783,-4.54,-4.3001,-4.1615,-4.1324,-4.306,-4.5226,-4.7664,-4.9284,-5.0494,-5.1258,-4.9657,-4.7998,-4.6339,-4.4602,-4.3627,-4.343,-4.1108,-3.9039,-3.736,-3.5701,-3.291,-2.881,0.0,0.0,0.0,0.0,0.0,0.0,0.0,0.0,0.0,0.0,0.0,0.0,0.0,0.0,0.0,-2.2358,0.0,-2.6687,-2.5511,0.0,0.0,0.0,-2.6884,-2.9326,-3.0424,-3.1565,-3.3049,0.0,0.0,-3.5697,-3.6562,-3.7404,-3.8195,-3.743,-3.6834,-3.6892,-3.7615,-3.7911,-3.7385,-3.7911,-3.843,-3.8757,-3.9065,-3.9488,-4.0073,-4.0496,-4.0419,-4.0431,-4.0477,-4.0496,-4.0489,-4.0495,-4.0466,-4.0396,-4.0238,-3.9811,-3.8218,-3.8572,-3.9107,-3.9079,-3.9451,-3.9721,-6.1564,-6.0627,-5.8968,-5.7504,-5.6294,-5.6294,-5.6879,-5.7758,-5.6528,-5.5981,-5.5884,-5.4361,-5.3229,-5.2429,-5.1629,-5.1472,-5.1882,-5.2292,-5.2683,-5.3034,-5.2605,-5.2392,-5.2351,-5.1726,-5.1394,-5.1394,-5.1394,-5.1394,-5.1375,-5.1004,-5.0145,-4.8913,-4.825,-4.5987,-4.2376,-4.5148,-4.7276,-4.8505,-4.9558,-5.0202,-5.0377,-4.9345,-4.7998,-4.6341,-4.4603,-4.3081,-4.1753,-4.0483,-3.9019,-3.7379,-3.6267,-3.4333,-3.1328,-2.7953,0.0,0.0,0.0,0.0,0.0,0.0,0.0,0.0,0.0,-2.0741,-1.5791,0.0,-2.2938,0.0,-2.5721,-2.8094,-2.8629,-2.8335,0.0,0.0,-2.9495,-3.0133,-3.2005,-3.3557,-3.4394,-3.4118,-3.5952,-3.7339,-3.7558,-3.882,-4.0014,-4.0792,-3.9117,-3.7993,-3.8592,-3.9392,-4.0085,-4.05,-4.1219,-4.1873,-4.1739,-4.147,-4.1046,-4.0573,-4.0516,-4.0496,-4.0516,-4.0496,-4.0496,-4.0489,-4.0495,-4.0485,-4.0415,-4.0334,-4.0193,-3.9765,-3.9862,-3.9976,-3.9995,-4.0129,-4.0176,-6.3282,-6.2794,-6.1915,-6.0783,-5.9475,-5.8714,-5.8675,-5.9005,-5.8109,-5.7719,-5.7619,-5.5923,-5.4947,-5.4556,-5.4166,-5.399,-5.399,-5.399,-5.399,-5.3971,-5.3522,-5.3268,-5.3249,-5.239,-5.198,-5.196,-5.159,-5.1394,-5.1394,-5.1394,-5.116,-5.069,-5.069,-4.905,-4.6025,-4.7373,-4.8349,-4.8798,-4.9655,-5.0104,-5.0085,-4.9247,-4.7822,-4.5792,-4.4016,-4.2298,-4.0581,-3.9351,-3.8082,-3.6773,-3.5524,-3.4022,-3.2169,-2.924,-2.6976,0.0,0.0,0.0,0.0,0.0,0.0,0.0,0.0,0.0,0.0,0.0,-2.5598,-2.5807,-2.8651,-3.0783,-3.1516,-3.157,-3.2048,-3.3286,-3.3402,-3.4079,-3.5762,-3.7154,-3.7934,-3.7818,-3.936,-4.0475,-4.0494,-4.1248,-4.1954,-4.2417,-4.1261,-4.0506,-4.0927,-4.1373,-4.1835,-4.2335,-4.2797,-4.3085,-4.3085,-4.2701,-4.222,-4.1777,-4.167,-4.1643,-4.1643,-4.1643,-4.1546,-4.1181,-4.1088,-4.0932,-4.052,-4.037,-4.0335,-4.031,-4.032,-4.032,-4.032,-4.032,-4.0244,-6.4455,-6.4397,-6.3535,-6.2676,-6.1757,-6.0237,-5.9417,-5.9102,-5.8987,-5.8929,-5.8851,-5.7502,-5.643,-5.5571,-5.483,-5.442,-5.4342,-5.4322,-5.4322,-5.4342,-5.4225,-5.4166,-5.4127,-5.3268,-5.2821,-5.2665,-5.1921,-5.1511,-5.1394,-5.1394,-5.1355,-5.1238,-5.1238,-5.0789,-4.9948,-4.9169,-4.8798,-4.8818,-4.9655,-5.0104,-5.0104,-4.915,-4.749,-4.5088,-4.3312,-4.1537,-3.9702,-3.8121,-3.689,-3.6012,-3.4548,-3.3377,-3.2597,-3.0392,-2.8732,0.0,-2.6293,0.0,0.0,0.0,0.0,0.0,0.0,0.0,0.0,-2.7608,-2.8484,-3.0005,-3.1535,-3.317,-3.4897,-3.5051,-3.5729,-3.7348,-3.756,-3.8199,-3.981,-4.0661,-4.1396,-4.2086,-4.2841,-4.3305,-4.3182,-4.3382,-4.3432,-4.3376,-4.3419,-4.337,-4.3407,-4.3286,-4.322,-4.3374,-4.3431,-4.3585,-4.3374,-4.3278,-4.3201,-4.3104,-4.297,-4.3085,-4.2989,-4.3008,-4.2816,-4.2162,-4.1962,-4.1668,-4.075,-4.0598,-4.0506,-4.0367,-4.032,-4.032,-4.032,-4.032,-4.0137,-6.5351,-6.5253,-6.4414,-6.3555,-6.2716,-6.2423,-6.1056,-5.9063,-5.8363,-5.805,-5.807,-5.846,-5.8148,-5.7328,-5.7153,-5.6723,-5.6118,-5.6098,-5.6118,-5.6079,-5.5376,-5.5047,-5.5005,-5.4166,-5.3385,-5.2724,-5.2528,-5.2078,-5.1394,-5.1394,-5.1043,-5.0377,-5.0358,-4.9909,-4.9091,0.0,0.0,0.0,-4.9655,-5.0104,-5.0046,-4.8601,-4.6923,-4.5031,-4.3294,0.0,-3.8962,-3.7848,-3.689,-3.6051,-3.5699,0.0,0.0,0.0,0.0,0.0,0.0,0.0,0.0,0.0,0.0,0.0,-3.2145,-3.0759,-2.9171,-3.1405,-3.3401,-3.4393,-3.5359,-3.6651,-3.8359,-3.8533,-3.921,-4.081,-4.1023,-4.1448,-4.2454,-4.2705,-4.2899,-4.3034,-4.3208,-4.3324,-4.3401,-4.3904,-4.4309,-4.4305,-4.4865,-4.5241,-4.5161,-4.4515,-4.4335,-4.4951,-4.4998,-4.4797,-4.4162,-4.4066,-4.3874,-4.3316,-4.3085,-4.3143,-4.3181,-4.3162,-4.3124,-4.2854,-4.2854,-4.256,-4.1622,-4.1451,-4.1224,-4.0453,-4.0339,-4.032,-4.032,-4.032,-4.0215,-6.619,0.0,-6.5312,-6.4433,0.0,-6.3184,-6.1759,-5.9729,-5.9729,-5.9495,-5.9104,-5.9534,-5.9261,-5.8421,-5.7992,-5.7367,-5.6586,-5.6157,-5.5962,-5.5942,-5.5513,-5.5532,-5.5923,-5.5044,-5.442,-5.3951,-5.3114,-5.245,-5.2038,-5.1609,-5.118,-5.0748,-5.0748,-5.0516,-5.0106,-5.0067,-4.9872,-4.946,-4.987,-5.0319,-5.067,-4.9499,-4.7801,-4.5714,0.0,0.0,0.0,0.0,0.0,0.0,0.0,0.0,0.0,0.0,0.0,-3.533,-3.533,-3.5487,-3.5857,-3.5899,-3.6467,-3.7741,-3.7831,-3.6491,-3.3462,-3.5887,-3.7912,-3.8739,-3.9189,-3.9959,-4.1216,-4.1371,-4.1719,-4.2531,-4.2628,-4.2841,-4.3266,-4.3692,-4.3924,-4.4001,-4.4272,-4.4543,-4.4543,-4.4891,-4.5167,-4.517,-4.551,-4.5785,-4.5665,-4.5288,-4.5178,-4.5545,-4.5594,-4.546,-4.5056,-4.4932,-4.4816,-4.4432,-4.4316,-4.4316,-4.4335,-4.4335,-4.422,-4.3816,-4.3701,-4.3387,-4.2567,-4.2321,-4.2142,-4.1686,-4.1533,-4.1533,-4.1495,-4.0893,-4.0225,-6.6798,-6.6739,-6.6073,-6.5312,-6.4475,-6.377,-6.2462,-6.0881,0.0,0.0,0.0,-6.0568,-6.0139,-5.9278,-5.8577,-5.7816,-5.6996,-5.6138,-5.5747,-5.5728,-5.5591,-5.5903,-5.6547,-5.5864,-5.5435,-5.5222,-5.3836,-5.2997,-5.2685,-5.198,-5.155,-5.1414,-5.1394,-5.1394,-5.1394,-5.1394,-5.1063,-5.0358,-5.0182,-5.0436,-5.1121,-5.0319,-4.8798,-4.6573,-4.5675,-4.4075,-4.1656,-4.0075,-3.9196,-3.9001,-3.699,-3.615,-3.6851,-3.7046,-3.7456,-3.818,-3.9021,-3.98,-4.0444,-4.0483,-4.0798,-4.1508,-4.2304,-4.1475,-3.8455,-4.0102,-4.1534,-4.2188,-4.224,-4.2596,-4.344,-4.3518,-4.3595,-4.3711,-4.375,-4.375,-4.3808,-4.4342,-4.4806,-4.4891,-4.5336,-4.5807,-4.5729,-4.5749,-4.5812,-4.5803,-4.5783,-4.5781,-4.5715,-4.5648,-4.5607,-4.5603,-4.5594,-4.5594,-4.5575,-4.5556,-4.5594,-4.5479,-4.5498,-4.5594,-4.5594,-4.5594,-4.5306,-4.4662,-4.4528,-4.4165,-4.3457,-4.3211,-4.3042,-4.2833,-4.2776,-4.2785,-4.2679,-4.1724,-4.0701,-6.6798,-6.6798,-6.668,-6.617,-6.5409,-6.5273,-6.4238,-6.254,-6.1193,-6.051,-6.0451,-6.1193,-6.1037,-6.0198,-6.008,-5.9573,-5.8714,-5.7836,-5.7445,-5.7406,-5.6743,-5.6489,-5.6584,-5.6469,-5.602,-5.532,-5.5044,-5.4168,-5.2821,-5.2567,-5.2156,-5.1472,-5.1394,-5.1394,-5.1394,-5.1394,-5.1336,-5.1199,-5.0475,-5.0163,-5.026,-4.9423,-4.8486,-4.7451,-4.6593,-4.5246,-4.3393,-4.2396,-4.1518,-4.0797,-4.0405,-4.025,-4.0387,-4.1049,-4.1557,-4.1713,-4.2494,-4.3042,-4.3138,-4.3157,-4.3199,-4.3364,-4.4082,-4.3962,-4.2763,-4.2912,-4.3144,-4.3214,-4.3243,-4.3524,-4.4292,-4.4414,-4.4685,-4.5265,-4.542,-4.5432,-4.5355,-4.5497,-4.5587,-4.5568,-4.5729,-4.5807,-4.5807,-4.5807,-4.58,-4.58,-4.5812,-4.5771,-4.5704,-4.5687,-4.5665,-4.5622,-4.5594,-4.5594,-4.5594,-4.5594,-4.5594,-4.5594,-4.5594,-4.5594,-4.5594,-4.5594,-4.5518,-4.5421,-4.5325,-4.5019,-4.4283,-4.4112,-4.3779,-4.3197,-4.3006,-4.2958,-4.3005,-4.2622,-4.2085,-6.6798,-6.6798,-6.6798,-6.6602,-6.6209,-6.578,-6.5155,-6.4316,-6.3067,-6.1974,-6.1174,-6.1542,-6.1483,-6.1076,-6.0607,-5.9905,-5.9044,-5.7758,-5.7153,-5.7074,-5.6274,-5.6157,-5.6586,-5.6604,-5.6391,-5.5981,-5.5513,-5.4888,-5.409,-5.3192,-5.2489,-5.2097,-5.1629,-5.1394,-5.1394,-5.1394,-5.1394,-5.1394,-5.1023,-5.0809,-5.0809,-5.0399,-4.9813,-4.8972,-4.8545,-4.7783,-4.6515,-4.5675,-4.5029,-4.4641,-4.3704,-4.3216,-4.3235,-4.3587,-4.3819,-4.384,-4.4621,-4.5109,-4.5109,-4.5109,-4.5112,-4.5141,-4.5894,-4.6211,-4.5769,-4.5233,-4.4919,-4.4865,-4.4857,-4.4999,-4.5376,-4.5376,-4.553,-4.5859,-4.5835,-4.5807,-4.5807,-4.5807,-4.5807,-4.5807,-4.5807,-4.5807,-4.5807,-4.5807,-4.5807,-4.5807,-4.5807,-4.5786,-4.5765,-4.5719,-4.5671,-4.5612,-4.5594,-4.5594,-4.5594,-4.5594,-4.5594,-4.5594,-4.5594,-4.5594,-4.5594,-4.5594,-4.5594,-4.5594,-4.5594,-4.5451,-4.5021,-4.4956,-4.4717,-4.447,-4.4231,-4.4211,-4.4182,-4.3827,-4.3116,-6.6798,-6.6798,-6.6798,-6.6798,-6.6739,-6.6131,-6.5761,-6.5526,-6.4882,-6.3711,-6.2384,-6.2091,-6.1893,-6.162,-6.0978,-6.0334,-5.9532,-5.8148,-5.7348,-5.7074,-5.6255,-5.6138,-5.6567,-5.6604,-5.6604,-5.6528,-5.5903,-5.5493,-5.5144,-5.3914,-5.3075,-5.2665,-5.1843,-5.1394,-5.1394,-5.1394,-5.1394,-5.1394,-5.1394,-5.1394,-5.1394,-5.1394,-5.1082,-5.0475,-5.0397,-4.9967,-4.913,-4.8484,-4.8074,-4.782,-4.6593,-4.587,-4.587,-4.5851,-4.5851,-4.5909,-4.6475,-4.6866,-4.6866,-4.6866,-4.6869,-4.6876,-4.7482,-4.7858,-4.781,-4.7192,-4.6708,-4.6716,-4.6729,-4.6706,-4.6699,-4.6651,-4.6586,-4.6581,-4.6513,-4.6525,-4.6435,-4.6423,-4.6403,-4.6396,-4.6253,-4.6116,-4.6058,-4.5916,-4.5807,-4.5807,-4.5807,-4.5812,-4.5795,-4.5739,-4.5684,-4.5637,-4.5622,-4.5594,-4.5594,-4.5594,-4.5594,-4.5594,-4.5594,-4.5594,-4.5594,-4.5594,-4.5594,-4.5594,-4.5594,-4.5575,-4.5586,-4.553,-4.5436,-4.5303,-4.5247,-4.5285,-4.5217,-4.4764,-4.3921,-6.6798,-6.6798,-6.6798,-6.6798,-6.6798,-6.67,-6.6268,-6.5663,-6.5507,-6.496,-6.3984,-6.3223,-6.2462,-6.1757,-6.1601,-6.1466,-6.131,-6.0471,-5.9573,-5.8773,-5.7972,-5.7231,-5.6682,-5.6604,-5.6604,-5.6606,-5.6489,-5.602,-5.5396,-5.5105,-5.4246,-5.2782,-5.1843,-5.1414,-5.1394,-5.1394,-5.1394,-5.1394,-5.1394,-5.1394,-5.1394,-5.1394,-5.1355,-5.1297,-5.1258,-5.0867,-5.0026,-4.9928,-4.9499,-4.8779,-4.8545,-4.8427,-4.8408,-4.8427,-4.8408,-4.8388,-4.8486,-4.8584,-4.8545,-4.8564,-4.8505,-4.8566,-4.8612,-4.8694,-4.8697,-4.8689,-4.8611,-4.8534,-4.8543,-4.8372,-4.8379,-4.8288,-4.8187,-4.8144,-4.8168,-4.8351,-4.8214,-4.8288,-4.8264,-4.8244,-4.7424,-4.698,-4.6909,-4.6426,-4.5935,-4.5962,-4.5981,-4.5909,-4.5803,-4.5781,-4.575,-4.5698,-4.5659,-4.5614,-4.5594,-4.5594,-4.5594,-4.5594,-4.5594,-4.5594,-4.5594,-4.5594,-4.5594,-4.5594,-4.5594,-4.5594,-4.5594,-4.5586,-4.5549,-4.5522,-4.5485,-4.5457,-4.5409,-4.5234,-4.4543,-6.6798,-6.6798,-6.6798,-6.6798,-6.6798,-6.6798,-6.6602,-6.6327,-6.6307,-6.5858,-6.5097,-6.4687,-6.3789,-6.2442,-6.1932,-6.1698,-6.164,-6.0803,-6.0237,-5.9749,-5.846,-5.7621,-5.7309,-5.6801,-5.6604,-5.6604,-5.6604,-5.643,-5.604,-5.5552,-5.442,-5.2841,-5.2312,-5.1921,-5.1433,-5.1394,-5.1394,-5.1394,-5.1394,-5.1394,-5.1394,-5.1394,-5.1394,-5.1394,-5.1394,-5.1258,-5.0926,-5.0867,-5.0692,-5.034,-4.985,-4.9558,-4.956,-4.9091,-4.8798,-4.8798,-4.8798,-4.8798,-4.8798,-4.8798,-4.8798,-4.8798,-4.929,-4.9567,-4.9592,-5.0047,-5.0368,-5.0234,-4.947,-4.884,-4.881,-4.8753,-4.8735,-4.8713,-4.8649,-4.8607,-4.8584,-4.8616,-4.8535,-4.8485,-4.8177,-4.7915,-4.784,-4.756,-4.7115,-4.6735,-4.6581,-4.6431,-4.5972,-4.5803,-4.5792,-4.5754,-4.5698,-4.564,-4.5622,-4.5594,-4.5594,-4.5594,-4.5594,-4.5594,-4.5594,-4.5594,-4.5594,-4.5594,-4.5594,-4.5594,-4.5594,-4.5594,-4.5586,-4.5559,-4.5532,-4.5495,-4.5428,-4.5369,-4.4947,-6.6798,-6.6798,-6.6798,-6.6798,-6.6798,-6.6798,-6.6798,-6.6798,-6.6798,-6.6463,-6.5936,-6.5702,-6.4785,-6.336,-6.2442,-6.1932,-6.164,-6.1037,-6.0607,-6.0295,-5.9065,-5.8265,-5.7797,-5.7231,-5.6801,-5.6623,-5.6604,-5.6604,-5.6508,-5.5728,-5.4637,-5.3524,-5.2938,-5.237,-5.1804,-5.157,-5.1394,-5.1394,-5.1394,-5.1394,-5.1394,-5.1394,-5.1394,-5.1394,-5.1394,-5.1394,-5.1394,-5.1394,-5.1394,-5.1375,-5.0789,-5.0455,-5.0436,-4.9852,-4.952,-4.9501,-4.9501,-4.952,-4.952,-4.952,-4.9501,-4.956,-5.0145,-5.0459,-5.0544,-5.1037,-5.1356,-5.1266,-5.0292,-4.9648,-4.957,-4.9526,-4.9518,-4.9496,-4.9415,-4.936,-4.9421,-4.9369,-4.9393,-4.9273,-4.9109,-4.8746,-4.849,-4.8331,-4.8043,-4.7579,-4.7444,-4.7289,-4.6709,-4.6571,-4.6556,-4.6464,-4.6286,-4.594,-4.5717,-4.5622,-4.5594,-4.5594,-4.5594,-4.5594,-4.5594,-4.5594,-4.5594,-4.5594,-4.5594,-4.5594,-4.5594,-4.5594,-4.5594,-4.5605,-4.555,-4.5505,-4.5438,-4.54,-4.5369,-6.6798,-6.6798,-6.6798,-6.6798,-6.6798,-6.6798,-6.6798,-6.6798,-6.6798,-6.6778,-6.6583,-6.5975,-6.5116,-6.4182,-6.334,-6.2481,-6.1757,-6.1601,-6.1174,-6.051,-6.0256,-5.9378,-5.7855,-5.7758,-5.7328,-5.674,-5.6623,-5.6604,-5.6528,-5.5747,-5.5281,-5.5066,-5.3602,-5.2743,-5.2548,-5.1882,-5.1414,-5.1492,-5.1433,-5.1394,-5.1394,-5.1394,-5.1394,-5.1394,-5.1394,-5.1394,-5.1394,-5.1394,-5.1394,-5.1394,-5.1316,-5.1297,-5.1297,-5.1238,-5.116,-5.118,-5.1199,-5.1219,-5.118,-5.1121,-5.1141,-5.1199,-5.116,-5.1297,-5.1221,-5.1325,-5.1391,-5.1379,-5.1227,-5.1112,-5.1094,-5.0957,-5.1055,-5.1074,-5.1172,-5.1113,-5.1171,-5.0921,-5.1141,-5.0947,-5.0297,-4.9595,-4.8741,-4.8444,-4.8537,-4.8399,-4.8333,-4.8237,-4.8082,-4.8113,-4.804,-4.7863,-4.7372,-4.6676,-4.5932,-4.564,-4.5614,-4.5594,-4.5594,-4.5594,-4.5594,-4.5594,-4.5594,-4.5594,-4.5594,-4.5594,-4.5594,-4.5594,-4.5594,-4.5586,-4.5559,-4.5495,-4.5467,-4.5419,-4.5399,-6.6798,-6.6798,-6.6798,-6.6798,-6.6798,-6.6798,-6.6798,-6.6798,-6.6798,-6.6798,-6.6759,-6.6483,-6.5917,-6.5077,-6.4219,-6.3047,-6.1776,-6.1698,-6.1522,-6.1174,-6.0666,-6.0061,-5.9436,-5.8363,-5.768,-5.7348,-5.684,-5.6604,-5.6586,-5.6274,-5.5845,-5.5318,-5.4695,-5.4108,-5.3483,-5.2663,-5.2234,-5.2175,-5.1707,-5.1394,-5.1394,-5.1394,-5.1394,-5.1394,-5.1394,-5.1394,-5.1394,-5.1394,-5.1394,-5.1394,-5.1394,-5.1394,-5.1394,-5.1394,-5.1394,-5.1394,-5.1394,-5.1394,-5.1394,-5.1394,-5.1394,-5.1394,-5.1394,-5.1394,-5.1394,-5.1398,-5.1385,-5.1393,-5.1395,-5.14,-5.1386,-5.1386,-5.1387,-5.1387,-5.1387,-5.1387,-5.1387,-5.1366,-5.134,-5.124,-5.0937,-5.0566,-5.0197,-5.0131,-4.9892,-4.9342,-4.9223,-4.901,-4.8546,-4.8411,-4.8481,-4.8369,-4.8087,-4.7739,-4.7486,-4.6234,-4.5614,-4.5594,-4.5594,-4.5594,-4.5594,-4.5594,-4.5594,-4.5594,-4.5594,-4.5594,-4.5594,-4.5594,-4.5594,-4.5586,-4.5568,-4.5531,-4.5504,-4.5477,-4.5429,-6.6798,-6.6798,-6.6798,-6.6798,-6.6798,-6.6798,-6.6798,-6.6798,-6.6798,-6.6798,-6.6798,-6.6798,-6.6366,-6.5604,-6.4999,-6.377,-6.2189,-6.1835,-6.1698,-6.1659,-6.1095,-6.0686,-6.0237,-5.9183,-5.8324,-5.7758,-5.6977,-5.6604,-5.6604,-5.6604,-5.6294,-5.5747,-5.5456,-5.5025,-5.4361,-5.3541,-5.3014,-5.2646,-5.2117,-5.1707,-5.1453,-5.1394,-5.1394,-5.1394,-5.1394,-5.1394,-5.1394,-5.1394,-5.1394,-5.1394,-5.1394,-5.1394,-5.1394,-5.1394,-5.1394,-5.1394,-5.1394,-5.1394,-5.1394,-5.1394,-5.1394,-5.1394,-5.1394,-5.1394,-5.1394,-5.1394,-5.14,-5.1387,-5.139,-5.1395,-5.1402,-5.1386,-5.1386,-5.1387,-5.1387,-5.1387,-5.1387,-5.1387,-5.1367,-5.1335,-5.1262,-5.1202,-5.118,-5.1092,-5.0758,-5.0194,-5.0131,-4.9803,-4.9359,-4.9223,-4.9204,-4.9177,-4.8953,-4.8767,-4.8436,-4.7529,-4.6497,-4.6334,-4.5748,-4.5691,-4.5671,-4.5652,-4.5594,-4.5594,-4.5594,-4.5594,-4.5594,-4.5594,-4.5594,-4.5594,-4.5586,-4.5577,-4.5531,-4.5513,-4.5485,-6.6798,-6.6798,-6.6798,-6.6798,-6.6798,-6.6798,-6.6798,-6.6798,-6.6798,-6.6798,-6.6798,-6.6798,-6.6385,-6.5761,-6.5546,-6.4609,-6.3223,-6.2267,-6.1776,-6.1679,-6.164,-6.1213,-6.051,-6.0256,-5.9339,-5.7953,-5.7035,-5.6662,-5.6721,-5.6662,-5.6547,-5.6411,-5.5747,-5.5415,-5.53,-5.4439,-5.362,-5.3075,-5.2821,-5.2351,-5.155,-5.155,-5.1531,-5.1492,-5.1453,-5.1394,-5.1394,-5.1394,-5.1394,-5.1394,-5.1394,-5.1394,-5.1394,-5.1394,-5.1394,-5.1394,-5.1394,-5.1394,-5.1394,-5.1394,-5.1394,-5.1394,-5.1394,-5.1394,-5.1394,-5.1394,-5.1398,-5.1385,-5.1389,-5.1393,-5.1397,-5.1402,-5.1386,-5.1387,-5.1387,-5.1387,-5.1387,-5.1387,-5.1387,-5.1387,-5.1335,-5.1299,-5.1274,-5.1199,-5.1028,-5.0939,-5.0835,-5.0709,-5.0519,-5.0473,-5.0743,-5.0608,-5.0101,-4.9633,-4.9272,-4.8825,-4.7936,-4.7142,-4.6326,-4.5855,-4.5855,-4.5825,-4.5633,-4.5594,-4.5594,-4.5594,-4.5594,-4.5594,-4.5594,-4.5594,-4.5594,-4.5594,-4.5577,-4.554,-4.5522,-6.6798,-6.6798,-6.6798,-6.6798,-6.6798,-6.6798,-6.6798,-6.6798,-6.6798,-6.6798,-6.6798,-6.6798,-6.6661,-6.6327,-6.5858,-6.5312,-6.4687,-6.3301,-6.2286,-6.1796,-6.1718,-6.1562,-6.1232,-6.0666,-5.9807,-5.8734,-5.7836,-5.7426,-5.7309,-5.6879,-5.6604,-5.6528,-5.6333,-5.6196,-5.6118,-5.5337,-5.4715,-5.448,-5.3893,-5.3424,-5.3151,-5.2585,-5.2292,-5.2234,-5.1726,-5.1394,-5.1394,-5.1394,-5.1394,-5.1394,-5.1394,-5.1394,-5.1394,-5.1394,-5.1394,-5.1394,-5.1394,-5.1394,-5.1394,-5.1394,-5.1394,-5.1394,-5.1394,-5.1394,-5.1394,-5.1394,-5.1396,-5.14,-5.14,-5.1384,-5.1391,-5.1394,-5.14,-5.1386,-5.1387,-5.1387,-5.1387,-5.1387,-5.1387,-5.1387,-5.1366,-5.134,-5.1322,-5.1232,-5.1199,-5.112,-5.1049,-5.0991,-5.0917,-5.0906,-5.0898,-5.084,-5.0534,-5.0372,-5.0049,-4.9697,-4.9067,-4.8216,-4.7323,-4.6345,-4.622,-4.6047,-4.5825,-4.5594,-4.5594,-4.5594,-4.5594,-4.5594,-4.5594,-4.5594,-4.5594,-4.5594,-4.5586,-4.5577,-4.5559,-6.6812,-6.6809,-6.6815,-6.6812,-6.6809,-6.6812,-6.6798,-6.6798,-6.6798,-6.6798,-6.6798,-6.6798,-6.6798,-6.67,-6.6249,-6.5878,-6.5468,-6.4082,-6.3008,-6.2208,-6.1796,-6.1718,-6.1581,-6.0803,-6.0159,-5.9534,-5.8695,-5.8109,-5.7777,-5.7289,-5.6899,-5.6662,-5.6604,-5.6584,-5.6567,-5.6079,-5.5669,-5.53,-5.4752,-5.4322,-5.3951,-5.3463,-5.3014,-5.2685,-5.2156,-5.1726,-5.1453,-5.1394,-5.1394,-5.1394,-5.1394,-5.1394,-5.1394,-5.1394,-5.1394,-5.1394,-5.1394,-5.1394,-5.1394,-5.1394,-5.1394,-5.1394,-5.1394,-5.1394,-5.1394,-5.1394,-5.1394,-5.1394,-5.1394,-5.1396,-5.1384,-5.1389,-5.1394,-5.14,-5.1385,-5.1386,-5.1387,-5.1387,-5.1387,-5.1387,-5.1387,-5.1367,-5.134,-5.132,-5.1277,-5.1183,-5.1136,-5.1087,-5.0983,-5.0937,-5.0921,-5.0898,-5.0821,-5.0747,-5.0789,-5.0494,-5.0141,-4.9337,-4.8475,-4.7449,-4.6787,-4.6509,-4.624,-4.5748,-4.5594,-4.5594,-4.5594,-4.5594,-4.5594,-4.5594,-4.5594,-4.5594,-4.5594,-4.5594,-4.5577,-6.6807,-6.6814,-6.6809,-6.6807,-6.6814,-6.6807,-6.6809,-6.6812,-6.6812,-6.6812,-6.6815,-6.6812,-6.6795,-6.6795,-6.668,-6.6346,-6.5624,-6.4804,-6.3906,-6.3028,-6.2306,-6.1854,-6.1601,-6.0959,-6.0588,-6.0354,-5.9573,-5.8812,-5.8246,-5.7836,-5.7426,-5.6821,-5.6682,-5.6604,-5.6586,-5.6586,-5.6157,-5.5571,-5.5396,-5.4986,-5.4322,-5.4108,-5.3756,-5.3036,-5.2839,-5.2468,-5.1921,-5.1687,-5.1511,-5.1414,-5.1394,-5.1394,-5.1394,-5.1394,-5.1394,-5.1394,-5.1394,-5.1394,-5.1394,-5.1394,-5.1394,-5.1394,-5.1394,-5.1394,-5.1394,-5.1394,-5.1394,-5.1394,-5.1394,-5.1394,-5.1396,-5.1402,-5.1389,-5.1391,-5.1402,-5.1386,-5.1387,-5.1387,-5.1387,-5.1387,-5.1387,-5.1387,-5.1387,-5.1357,-5.1304,-5.1277,-5.121,-5.1132,-5.1075,-5.0997,-5.0917,-5.0906,-5.0898,-5.0898,-5.0863,-5.0816,-5.0483,-5.019,-4.9453,-4.8658,-4.7498,-4.7037,-4.6394,-4.5902,-4.5594,-4.5594,-4.5594,-4.5594,-4.5594,-4.5594,-4.5594,-4.5594,-4.5594,-4.5594,-4.5594,-6.6807,-6.6814,-6.6798,-6.6808,-6.6814,-6.6798,-6.6798,-6.6798,-6.6798,-6.6808,-6.6798,-6.6798,-6.6807,-6.6795,-6.6798,-6.6661,-6.6268,-6.5585,-6.4785,-6.3926,-6.3067,-6.2286,-6.1796,-6.1483,-6.133,-6.1193,-6.0451,-5.9944,-5.9612,-5.8499,-5.7758,-5.7484,-5.6899,-5.6623,-5.6604,-5.6604,-5.6508,-5.6294,-5.6255,-5.6138,-5.5825,-5.522,-5.4869,-5.4617,-5.399,-5.3561,-5.3229,-5.2683,-5.2019,-5.1453,-5.1394,-5.1394,-5.1394,-5.1394,-5.1394,-5.1394,-5.1394,-5.1394,-5.1394,-5.1394,-5.1394,-5.1394,-5.1394,-5.1394,-5.1394,-5.1394,-5.1394,-5.1394,-5.1394,-5.1394,-5.1394,-5.1396,-5.1402,-5.139,-5.14,-5.1386,-5.1387,-5.1387,-5.1387,-5.1387,-5.1387,-5.1387,-5.1387,-5.1387,-5.1348,-5.1322,-5.1269,-5.1211,-5.1123,-5.108,-5.1018,-5.0925,-5.0906,-5.0898,-5.0898,-5.089,-5.0835,-5.0792,-5.0383,-4.9963,-4.8726,-4.7671,-4.673,-4.5825,-4.5652,-4.5594,-4.5594,-4.5594,-4.5594,-4.5594,-4.5594,-4.5594,-4.5594,-4.5594,-4.5594,-6.6804,-6.6801,-6.6808,-6.6798,-6.6752,-6.6779,-6.6803,-6.6803,-6.6803,-6.681,-6.6801,-6.6808,-6.6798,-6.6807,-6.6812,-6.6798,-6.67,-6.5956,-6.5116,-6.4179,-6.2964,-6.2162,-6.1776,-6.1698,-6.1698,-6.1659,-6.1193,-6.0764,-6.0295,-5.9339,-5.8577,-5.7816,-5.7328,-5.6957,-5.6604,-5.6604,-5.6604,-5.6584,-5.6604,-5.6604,-5.6547,-5.6118,-5.563,-5.5339,-5.4752,-5.4439,-5.399,-5.3502,-5.2839,-5.2097,-5.1629,-5.1394,-5.1394,-5.1394,-5.1394,-5.1394,-5.1394,-5.1394,-5.1394,-5.1394,-5.1394,-5.1394,-5.1394,-5.1394,-5.1394,-5.1394,-5.1394,-5.1394,-5.1394,-5.1394,-5.1394,-5.1394,-5.14,-5.1389,-5.1398,-5.1384,-5.1386,-5.1387,-5.1387,-5.1387,-5.1387,-5.1387,-5.1387,-5.1387,-5.1387,-5.1359,-5.1325,-5.1266,-5.1191,-5.1156,-5.1095,-5.1004,-5.0947,-5.0947,-5.0921,-5.0898,-5.0917,-5.0885,-5.0822,-5.0527,-4.9599,-4.8295,-4.7228,-4.6315,-4.5902,-4.5633,-4.5691,-4.5691,-4.5594,-4.5594,-4.5594,-4.5594,-4.5594,-4.5594,-4.5594,-6.6814,-6.6783,-6.6778,-6.6764,-6.6711,-6.6748,-6.6791,-6.6795,-6.6791,-6.6775,-6.6783,-6.6798,-6.6785,-6.6811,-6.6804,-6.6795,-6.6773,-6.6151,-6.5194,-6.4116,-6.2859,-6.1939,-6.171,-6.1713,-6.1715,-6.1698,-6.1698,-6.1269,-6.0705,-6.0432,-5.9573,-5.8499,-5.8011,-5.7406,-5.6938,-5.6701,-5.6604,-5.6604,-5.6604,-5.6604,-5.6604,-5.6469,-5.6157,-5.5669,-5.5532,-5.5142,-5.4635,-5.4186,-5.3795,-5.3016,-5.2058,-5.1668,-5.157,-5.1531,-5.1394,-5.1394,-5.1394,-5.1394,-5.1394,-5.1394,-5.1394,-5.1394,-5.1394,-5.1394,-5.1394,-5.1394,-5.1394,-5.1394,-5.1394,-5.1394,-5.1394,-5.1394,-5.1398,-5.1387,-5.1394,-5.1399,-5.1384,-5.1387,-5.1387,-5.1387,-5.1387,-5.1387,-5.1387,-5.1387,-5.1387,-5.1387,-5.1358,-5.1322,-5.1252,-5.1216,-5.1156,-5.1068,-5.103,-5.1011,-5.0961,-5.0898,-5.0898,-5.0909,-5.0885,-5.0648,-4.9982,-4.887,-4.7813,-4.7006,-4.6565,-4.6191,-4.597,-4.5902,-4.5748,-4.5594,-4.5594,-4.5594,-4.5594,-4.5594,-4.5594,-6.6783,-6.672,-6.6724,-6.6707,-6.6722,-6.6707,-6.6707,-6.6727,-6.6727,-6.6722,-6.6716,-6.6724,-6.6756,-6.681,-6.6808,-6.6798,-6.6801,-6.6455,-6.5736,-6.4183,-6.3243,-6.2298,-6.1829,-6.1718,-6.1707,-6.1715,-6.1698,-6.1581,-6.1308,-6.0744,-6.0256,-5.9729,-5.8538,-5.7719,-5.7543,-5.6977,-5.6623,-5.6604,-5.6604,-5.6604,-5.6604,-5.6604,-5.6508,-5.6255,-5.6255,-5.6216,-5.5962,-5.5376,-5.4927,-5.442,-5.3368,-5.2507,-5.2351,-5.1863,-5.1609,-5.159,-5.1531,-5.1472,-5.1414,-5.1472,-5.1394,-5.1414,-5.1394,-5.1394,-5.1394,-5.1394,-5.1394,-5.1394,-5.1394,-5.1394,-5.1394,-5.1394,-5.1396,-5.14,-5.1387,-5.1393,-5.1396,-5.1385,-5.1387,-5.1387,-5.1387,-5.1387,-5.1387,-5.1387,-5.1387,-5.1387,-5.1387,-5.1367,-5.1328,-5.1289,-5.1216,-5.1138,-5.1095,-5.1066,-5.0997,-5.0937,-5.0898,-5.0898,-5.0901,-5.0874,-5.0218,-4.9714,-4.8754,-4.791,-4.7209,-4.6873,-4.6614,-4.6144,-4.6018,-4.5825,-4.5652,-4.5671,-4.571,-4.5671,-4.5594,-6.6771,-6.6711,-6.6711,-6.6717,-6.6712,-6.6712,-6.6712,-6.6712,-6.6712,-6.6717,-6.6712,-6.6702,-6.672,-6.6748,-6.6791,-6.6798,-6.6684,-6.634,-6.5715,-6.4632,-6.3611,-6.2687,-6.2239,-6.1829,-6.1664,-6.166,-6.1707,-6.171,-6.1554,-6.1227,-6.0803,-6.0393,-5.9417,-5.887,-5.8324,-5.7582,-5.7231,-5.7094,-5.676,-5.6604,-5.6604,-5.6604,-5.6604,-5.6604,-5.6604,-5.6604,-5.6487,-5.6177,-5.5942,-5.5591,-5.4635,-5.37,-5.3346,-5.2878,-5.2644,-5.2624,-5.2624,-5.2351,-5.2175,-5.198,-5.1843,-5.1472,-5.1414,-5.1394,-5.1394,-5.1394,-5.1394,-5.1394,-5.1394,-5.1394,-5.1394,-5.1394,-5.1394,-5.1396,-5.1384,-5.1389,-5.1393,-5.1402,-5.1386,-5.1386,-5.1387,-5.1387,-5.1387,-5.1387,-5.1387,-5.1387,-5.1387,-5.1387,-5.1387,-5.1348,-5.1308,-5.1245,-5.1174,-5.1116,-5.1024,-5.0954,-5.0906,-5.0898,-5.0898,-5.0909,-5.0653,-5.0256,-4.9839,-4.8975,-4.813,-4.769,-4.7373,-4.6864,-4.6499,-4.6394,-4.6278,-4.6028,-4.5825,-4.5768,-4.5671,-6.6744,-6.6707,-6.6707,-6.6712,-6.6712,-6.6712,-6.6712,-6.6712,-6.6712,-6.6712,-6.6712,-6.6717,-6.6722,-6.6731,-6.6748,-6.6799,-6.6627,-6.6198,-6.573,-6.5215,-6.3916,-6.3132,-6.2668,-6.2036,-6.1608,-6.1607,-6.1648,-6.1673,-6.1699,-6.1668,-6.1264,-6.0683,-6.0393,-5.9866,-5.9202,-5.846,-5.7875,-5.7641,-5.7172,-5.676,-5.6643,-5.6604,-5.6604,-5.6604,-5.6604,-5.6604,-5.6604,-5.6526,-5.6545,-5.6547,-5.5884,-5.5181,-5.4576,-5.4049,-5.399,-5.3912,-5.3776,-5.3463,-5.3014,-5.2858,-5.2585,-5.1824,-5.1843,-5.1746,-5.1707,-5.1687,-5.159,-5.1433,-5.1394,-5.1394,-5.1394,-5.1394,-5.1394,-5.1396,-5.1384,-5.1387,-5.139,-5.1398,-5.1402,-5.1386,-5.1387,-5.1387,-5.1387,-5.1387,-5.1387,-5.1387,-5.1387,-5.1387,-5.1387,-5.1387,-5.1348,-5.1297,-5.1226,-5.1187,-5.1097,-5.1043,-5.0976,-5.0959,-5.0952,-5.0921,-5.0914,-5.0673,-5.0276,-4.9819,-4.9129,-4.865,-4.82,-4.7815,-4.7479,-4.723,-4.7048,-4.6913,-4.649,-4.5932,-4.5902,-6.6722,-6.6717,-6.6717,-6.6712,-6.6712,-6.6712,-6.6712,-6.6712,-6.6712,-6.6712,-6.6712,-6.6712,-6.6717,-6.6707,-6.6726,-6.6763,-6.6717,-6.6463,-6.6147,-6.5511,-6.4367,-6.3627,-6.2931,-6.205,-6.1621,-6.1591,-6.16,-6.1618,-6.1644,-6.1634,-6.1546,-6.1314,-6.0795,-6.0293,-6.002,-5.9319,-5.8556,-5.8146,-5.768,-5.7231,-5.684,-5.6643,-5.6604,-5.6604,-5.6604,-5.6604,-5.6604,-5.6604,-5.6604,-5.6584,-5.645,-5.6274,-5.5806,-5.481,-5.4264,-5.4225,-5.4264,-5.4166,-5.3854,-5.3756,-5.3737,-5.36,-5.3385,-5.3053,-5.2683,-5.2448,-5.2175,-5.1648,-5.1453,-5.1394,-5.1394,-5.1394,-5.1394,-5.1394,-5.1396,-5.1398,-5.14,-5.1389,-5.1398,-5.1383,-5.1387,-5.1387,-5.1387,-5.1387,-5.1387,-5.1387,-5.1387,-5.1387,-5.1387,-5.1387,-5.1367,-5.1331,-5.1291,-5.1252,-5.1195,-5.1122,-5.1081,-5.105,-5.1017,-5.0954,-5.0932,-5.0914,-5.0615,-5.0267,-4.9901,-4.9455,-4.9062,-4.8747,-4.8401,-4.8075,-4.7942,-4.7836,-4.7336,-4.6836,-4.6701,-6.6712,-6.6712,-6.6712,-6.6712,-6.6712,-6.6712,-6.6712,-6.6712,-6.6712,-6.6712,-6.6712,-6.6712,-6.6712,-6.6712,-6.6722,-6.6736,-6.6746,-6.675,-6.6488,-6.5894,-6.4802,-6.3999,-6.3322,-6.225,-6.1705,-6.1592,-6.1595,-6.1592,-6.158,-6.1618,-6.167,-6.1601,-6.1194,-6.1038,-6.0871,-6.0207,-5.9602,-5.9039,-5.8321,-5.768,-5.7192,-5.6899,-5.6643,-5.6623,-5.6623,-5.6604,-5.6604,-5.6604,-5.6604,-5.6604,-5.6604,-5.6604,-5.635,-5.5942,-5.5318,-5.5279,-5.5279,-5.5083,-5.4771,-5.4654,-5.4459,-5.401,-5.4029,-5.3834,-5.3502,-5.3307,-5.2936,-5.2253,-5.1531,-5.1394,-5.1394,-5.1414,-5.1394,-5.1394,-5.1394,-5.1394,-5.1396,-5.1385,-5.1393,-5.1399,-5.1387,-5.1387,-5.1387,-5.1387,-5.1387,-5.1387,-5.1387,-5.1387,-5.1387,-5.1387,-5.1367,-5.1362,-5.133,-5.1284,-5.1249,-5.1195,-5.1157,-5.1127,-5.1092,-5.1037,-5.0998,-5.0984,-5.0997,-5.0854,-5.0491,-5.0107,-5.0081,-4.9833,-4.9372,-4.8931,-4.8836,-4.8644,-4.8182,-4.7817,-4.7644,-6.6712,-6.6712,-6.6712,-6.6712,-6.6712,-6.6712,-6.6712,-6.6712,-6.6712,-6.6712,-6.6712,-6.6712,-6.6712,-6.6712,-6.6712,-6.6712,-6.6712,-6.6712,-6.6673,-6.6342,-6.5173,-6.4354,-6.3692,-6.2757,-6.1822,-6.1588,-6.1592,-6.1578,-6.1576,-6.16,-6.1638,-6.1621,-6.1598,-6.1602,-6.142,-6.0935,-6.0662,-5.9987,-5.9192,-5.8321,-5.7914,-5.7289,-5.684,-5.6779,-5.6682,-5.6604,-5.6604,-5.6604,-5.6604,-5.6604,-5.6604,-5.6604,-5.6604,-5.6604,-5.6604,-5.6604,-5.6604,-5.6177,-5.5806,-5.5571,-5.5318,-5.4888,-5.4615,-5.4459,-5.4166,-5.401,-5.3659,-5.2956,-5.2214,-5.1746,-5.1765,-5.1511,-5.1414,-5.1394,-5.1394,-5.1394,-5.1396,-5.1402,-5.1387,-5.1394,-5.14,-5.1387,-5.1387,-5.1387,-5.1387,-5.1387,-5.1387,-5.1387,-5.1387,-5.1387,-5.1387,-5.1387,-5.1361,-5.1325,-5.1282,-5.1261,-5.1232,-5.1218,-5.1165,-5.1122,-5.1086,-5.107,-5.1084,-5.1097,-5.0978,-5.0673,-5.0792,-5.0736,-5.0199,-4.9806,-4.973,-4.9558,-4.926,-4.8798,-4.8432,-6.6712,-6.6712,-6.6712,-6.6712,-6.6712,-6.6712,-6.6712,-6.6712,-6.6712,-6.6712,-6.6712,-6.6712,-6.6712,-6.6712,-6.6712,-6.6712,-6.6712,-6.6712,-6.6712,-6.6517,-6.5621,-6.4764,-6.4121,-6.3244,-6.2348,-6.1919,-6.1705,-6.1588,-6.1582,-6.158,-6.1588,-6.1596,-6.1607,-6.1598,-6.1579,-6.1403,-6.1101,-6.0506,-6.0141,-5.9641,-5.8887,-5.805,-5.7738,-5.7504,-5.7074,-5.6721,-5.6721,-5.6682,-5.6604,-5.6604,-5.6604,-5.6604,-5.6604,-5.6604,-5.6604,-5.6604,-5.6606,-5.6547,-5.6391,-5.6313,-5.6274,-5.5979,-5.6057,-5.5825,-5.5259,-5.4498,-5.4068,-5.3893,-5.3053,-5.2489,-5.2292,-5.1843,-5.155,-5.1394,-5.1394,-5.1394,-5.1394,-5.1396,-5.1402,-5.1385,-5.1393,-5.1399,-5.1387,-5.1387,-5.1387,-5.1387,-5.1387,-5.1387,-5.1387,-5.1387,-5.1387,-5.1387,-5.1387,-5.1348,-5.1334,-5.1318,-5.1289,-5.1289,-5.1249,-5.1199,-5.1203,-5.118,-5.1159,-5.1152,-5.1089,-5.1037,-5.0949,-5.084,-5.0713,-5.0527,-5.0259,-5.0346,-5.0491,-4.9933,-4.924,-6.6712,-6.6712,-6.6712,-6.6712,-6.6712,-6.6712,-6.6712,-6.6712,-6.6712,-6.6712,-6.6712,-6.6712,-6.6712,-6.6712,-6.6712,-6.6712,-6.6712,-6.6712,-6.6712,-6.6556,-6.5874,-6.5192,-6.4744,-6.3984,-6.3146,-6.2523,-6.227,-6.1997,-6.1807,-6.1597,-6.1586,-6.158,-6.158,-6.1584,-6.1576,-6.1576,-6.1409,-6.1029,-6.0597,-5.9951,-5.9236,-5.8753,-5.8538,-5.8499,-5.7719,-5.7348,-5.7153,-5.6779,-5.6643,-5.6604,-5.6604,-5.6604,-5.6604,-5.6604,-5.6604,-5.6604,-5.6604,-5.6604,-5.6584,-5.6604,-5.6604,-5.6604,-5.6604,-5.6352,-5.5903,-5.5279,-5.4732,-5.4732,-5.3932,-5.3307,-5.2841,-5.237,-5.1902,-5.1609,-5.1394,-5.1394,-5.1394,-5.1394,-5.1396,-5.14,-5.1384,-5.1391,-5.1397,-5.14,-5.1384,-5.1387,-5.1387,-5.1387,-5.1387,-5.1387,-5.1387,-5.1387,-5.1387,-5.1387,-5.1367,-5.1367,-5.1348,-5.1348,-5.1316,-5.1277,-5.1308,-5.1286,-5.1263,-5.1236,-5.1191,-5.1123,-5.106,-5.0942,-5.0803,-5.0754,-5.071,-5.0712,-5.0683,-5.0606,-5.0029,-6.6712,-6.6712,-6.6712,-6.6712,-6.6712,-6.6712,-6.6712,-6.6712,-6.6712,-6.6712,-6.6712,-6.6712,-6.6712,-6.6712,-6.6712,-6.6712,-6.6712,-6.6712,-6.6712,-6.6459,-6.6088,-6.564,-6.5212,-6.4588,-6.3984,-6.3166,-6.2854,-6.2542,-6.2094,-6.1748,-6.1578,-6.1591,-6.1582,-6.1582,-6.1591,-6.1595,-6.1521,-6.1475,-6.1059,-6.0511,-5.9937,-5.959,-5.9454,-5.9163,-5.8636,-5.8031,-5.7738,-5.7309,-5.6957,-5.6604,-5.6604,-5.6604,-5.6604,-5.6604,-5.6604,-5.6604,-5.6604,-5.6604,-5.6604,-5.6604,-5.6604,-5.6604,-5.6604,-5.6567,-5.6489,-5.5942,-5.563,-5.563,-5.481,-5.3951,-5.3231,-5.2858,-5.2175,-5.1707,-5.1394,-5.1394,-5.1394,-5.1394,-5.1394,-5.1396,-5.1398,-5.14,-5.1387,-5.1391,-5.1397,-5.1384,-5.1387,-5.1386,-5.1387,-5.1387,-5.1387,-5.1387,-5.1387,-5.1387,-5.1387,-5.1387,-5.1387,-5.1387,-5.1348,-5.1348,-5.1348,-5.1348,-5.1302,-5.1284,-5.1266,-5.1239,-5.1176,-5.1029,-5.0898,-5.0855,-5.0814,-5.072,-5.0683,-5.0683,-5.0644,-6.6712,-6.6712,-6.6712,-6.6712,-6.6712,-6.6712,-6.6712,-6.6712,-6.6712,-6.6712,-6.6712,-6.6712,-6.6712,-6.6712,-6.6712,-6.6712,-6.6712,-6.6712,-6.6712,-6.6692,-6.6551,-6.6108,-6.5699,-6.5309,-6.4861,-6.4004,-6.3439,-6.301,-6.2562,-6.1841,-6.1666,-6.1592,-6.1592,-6.1592,-6.1592,-6.1578,-6.1586,-6.1603,-6.1423,-6.1439,-6.1058,-6.0715,-6.0312,-6.0137,-5.9473,-5.8653,-5.7894,-5.7697,-5.7365,-5.6797,-5.6662,-5.6604,-5.6604,-5.6604,-5.6604,-5.6604,-5.6604,-5.6604,-5.6604,-5.6604,-5.6604,-5.6604,-5.6604,-5.6604,-5.6586,-5.6584,-5.6489,-5.6313,-5.5571,-5.4849,-5.401,-5.3229,-5.2761,-5.198,-5.1687,-5.1531,-5.1492,-5.1394,-5.1394,-5.1394,-5.1394,-5.1396,-5.1396,-5.1384,-5.1391,-5.14,-5.1385,-5.1386,-5.1386,-5.1387,-5.1387,-5.1387,-5.1387,-5.1387,-5.1387,-5.1387,-5.1387,-5.1387,-5.1367,-5.1367,-5.1387,-5.1367,-5.1348,-5.1357,-5.133,-5.132,-5.1282,-5.1144,-5.1033,-5.0959,-5.0886,-5.0795,-5.071,-5.0693,-5.0693,-6.6712,-6.6712,-6.6712,-6.6712,-6.6712,-6.6712,-6.6712,-6.6712,-6.6712,-6.6712,-6.6712,-6.6712,-6.6712,-6.6712,-6.6712,-6.6712,-6.6712,-6.6712,-6.6712,-6.6712,-6.6634,-6.6493,-6.6225,-6.603,-6.5738,-6.488,-6.4062,-6.3283,-6.2796,-6.2114,-6.1705,-6.1588,-6.1588,-6.1588,-6.1588,-6.1588,-6.1582,-6.1599,-6.1619,-6.163,-6.1589,-6.1465,-6.1178,-6.1072,-6.0339,-5.9806,-5.9315,-5.8306,-5.7763,-5.7316,-5.6914,-5.674,-5.6662,-5.6643,-5.6604,-5.6604,-5.6604,-5.6604,-5.6604,-5.6604,-5.6604,-5.6604,-5.6604,-5.6604,-5.6604,-5.6604,-5.6604,-5.6469,-5.6294,-5.5611,-5.4869,-5.4441,-5.3953,-5.2761,-5.2058,-5.1843,-5.1648,-5.155,-5.1394,-5.1394,-5.1394,-5.1394,-5.1394,-5.1394,-5.1385,-5.1395,-5.1401,-5.1385,-5.1386,-5.1386,-5.1387,-5.1387,-5.1387,-5.1387,-5.1387,-5.1387,-5.1387,-5.1387,-5.1387,-5.1387,-5.1387,-5.1387,-5.1387,-5.1387,-5.1387,-5.1367,-5.1308,-5.125,-5.1152,-5.1069,-5.0979,-5.0863,-5.0789,-5.072,-5.0702,-6.6599,-6.6612,-6.6536,-6.6587,-6.6707,-6.6712,-6.6712,-6.6712,-6.6712,-6.6712,-6.6712,-6.6712,-6.6712,-6.6712,-6.6712,-6.6712,-6.6712,-6.6712,-6.6712,-6.6712,-6.6712,-6.6712,-6.6712,-6.659,-6.6278,-6.564,-6.49,-6.4121,-6.3322,-6.2406,-6.1919,-6.1685,-6.1588,-6.1588,-6.1588,-6.1588,-6.1578,-6.1591,-6.1584,-6.1588,-6.1607,-6.1625,-6.1612,-6.1524,-6.0984,-6.0555,-6.0119,-5.9284,-5.863,-5.8089,-5.7551,-5.707,-5.6877,-5.676,-5.6643,-5.6604,-5.6604,-5.6604,-5.6604,-5.6604,-5.6604,-5.6604,-5.6604,-5.6604,-5.6604,-5.6604,-5.6604,-5.6604,-5.6528,-5.6235,-5.5456,-5.5047,-5.4517,-5.3346,-5.2626,-5.2312,-5.1941,-5.1746,-5.1531,-5.1394,-5.1394,-5.1394,-5.1394,-5.1394,-5.1402,-5.1391,-5.1398,-5.1384,-5.1386,-5.1386,-5.1387,-5.1387,-5.1387,-5.1387,-5.1387,-5.1387,-5.1387,-5.1387,-5.1387,-5.1387,-5.1387,-5.1387,-5.1387,-5.1387,-5.1387,-5.1387,-5.1367,-5.1308,-5.125,-5.1177,-5.106,-5.0959,-5.0859,-5.0795,-5.0738,-6.6411,-6.6396,-6.6215,-6.6345,-6.6641,-6.6682,-6.6677,-6.6649,-6.6661,-6.6661,-6.6649,-6.6661,-6.6641,-6.6661,-6.6624,-6.6661,-6.6671,-6.6702,-6.6712,-6.6712,-6.6712,-6.6712,-6.6712,-6.6668,-6.6609,-6.6459,-6.564,-6.4705,-6.3945,-6.303,-6.2367,-6.1783,-6.1588,-6.1588,-6.1588,-6.1588,-6.1588,-6.1592,-6.1591,-6.158,-6.1588,-6.1604,-6.1611,-6.1549,-6.1455,-6.1084,-6.0629,-6.0164,-5.9531,-5.9039,-5.8242,-5.7785,-5.756,-5.7035,-5.676,-5.6604,-5.6604,-5.6604,-5.6604,-5.6604,-5.6604,-5.6604,-5.6604,-5.6604,-5.6604,-5.6604,-5.6604,-5.6604,-5.6604,-5.6216,-5.5689,-5.532,-5.481,-5.4205,-5.3485,-5.2821,-5.2468,-5.2038,-5.1863,-5.1472,-5.1394,-5.1394,-5.1394,-5.1396,-5.14,-5.1387,-5.1395,-5.1399,-5.1384,-5.1385,-5.1386,-5.1387,-5.1387,-5.1387,-5.1387,-5.1387,-5.1387,-5.1387,-5.1387,-5.1387,-5.1387,-5.1387,-5.1387,-5.1387,-5.1387,-5.1387,-5.1387,-5.1387,-5.1328,-5.1252,-5.1154,-5.1055,-5.0959,-5.0884,-5.0863,-6.6186,-6.6186,-6.6119,-6.6187,-6.6303,-6.6284,-6.6312,-6.6303,-6.6303,-6.6312,-6.6303,-6.6284,-6.6303,-6.6337,-6.6448,-6.649,-6.6523,-6.6696,-6.6712,-6.6702,-6.6671,-6.6712,-6.6707,-6.6696,-6.6707,-6.6459,-6.5816,-6.5017,-6.4043,-6.3361,-6.2484,-6.1802,-6.1588,-6.1588,-6.1588,-6.1588,-6.1588,-6.1588,-6.1578,-6.1582,-6.1582,-6.1584,-6.1588,-6.158,-6.1588,-6.1413,-6.1112,-6.0711,-6.0258,-5.9885,-5.9111,-5.8463,-5.8026,-5.7404,-5.7111,-5.6779,-5.6604,-5.6604,-5.6604,-5.6604,-5.6604,-5.6604,-5.6604,-5.6604,-5.6604,-5.6604,-5.6604,-5.6604,-5.6604,-5.6352,-5.6235,-5.6177,-5.5786,-5.5123,-5.4422,-5.3661,-5.3153,-5.2646,-5.2253,-5.1668,-5.1394,-5.1394,-5.1394,-5.1394,-5.1398,-5.1402,-5.1389,-5.1393,-5.1396,-5.14,-5.1402,-5.1385,-5.1387,-5.1387,-5.1387,-5.1387,-5.1387,-5.1387,-5.1387,-5.1387,-5.1387,-5.1387,-5.1387,-5.1387,-5.1387,-5.1387,-5.1387,-5.1387,-5.1387,-5.134,-5.1249,-5.1154,-5.1064,-5.1028,-5.102,-6.5953,-6.5961,-6.5882,-6.5866,-6.589,-6.6016,-6.6108,-6.6108,-6.6108,-6.6108,-6.6118,-6.6108,-6.6118,-6.6138,-6.6214,-6.6284,-6.6312,-6.6419,-6.6496,-6.6503,-6.6477,-6.651,-6.6562,-6.6612,-6.6649,-6.6477,-6.6103,-6.5348,-6.414,-6.3595,-6.2718,-6.188,-6.1588,-6.1588,-6.1578,-6.1539,-6.1468,-6.1462,-6.1462,-6.1514,-6.1559,-6.1582,-6.1582,-6.1578,-6.1582,-6.1547,-6.1422,-6.1119,-6.0746,-6.0527,-5.998,-5.9134,-5.8502,-5.7904,-5.7438,-5.6853,-5.6604,-5.6604,-5.6604,-5.6604,-5.6604,-5.6604,-5.6604,-5.6604,-5.6604,-5.6604,-5.6604,-5.6604,-5.6604,-5.6586,-5.6586,-5.6604,-5.6352,-5.5689,-5.5181,-5.442,-5.3659,-5.3151,-5.237,-5.1804,-5.1394,-5.1394,-5.1394,-5.1394,-5.1396,-5.1398,-5.1402,-5.1385,-5.1389,-5.1393,-5.1397,-5.1402,-5.1384,-5.1386,-5.1386,-5.1387,-5.1387,-5.1387,-5.1387,-5.1387,-5.1387,-5.1387,-5.1387,-5.1387,-5.1387,-5.1387,-5.1387,-5.1387,-5.1387,-5.1387,-5.1342,-5.1254,-5.118,-5.1152,-5.1137,-6.5692,-6.5673,-6.5489,-6.5425,-6.5494,-6.5847,-6.6046,-6.6067,-6.6067,-6.6056,-6.6047,-6.6024,-6.6003,-6.6046,-6.6088,-6.6078,-6.6099,-6.6119,-6.6177,-6.6167,-6.6215,-6.6286,-6.6353,-6.6411,-6.6475,-6.6587,-6.6335,-6.5514,-6.4222,-6.3458,-6.264,-6.1909,-6.1598,-6.1539,-6.1482,-6.1376,-6.1317,-6.1337,-6.1317,-6.137,-6.1433,-6.1498,-6.1468,-6.1487,-6.1504,-6.1539,-6.1485,-6.1408,-6.1426,-6.1209,-6.0769,-5.9981,-5.9176,-5.8331,-5.7459,-5.6784,-5.658,-5.6582,-5.6604,-5.6604,-5.6604,-5.6604,-5.6604,-5.6604,-5.6604,-5.6604,-5.6604,-5.6604,-5.6604,-5.6604,-5.6604,-5.6604,-5.6584,-5.6157,-5.5786,-5.5025,-5.4186,-5.3424,-5.2546,-5.196,-5.155,-5.1414,-5.1394,-5.1394,-5.1394,-5.1394,-5.1398,-5.14,-5.1384,-5.1385,-5.1391,-5.1397,-5.1401,-5.1384,-5.1385,-5.1386,-5.1387,-5.1387,-5.1387,-5.1387,-5.1387,-5.1387,-5.1387,-5.1387,-5.1387,-5.1387,-5.1387,-5.1387,-5.1387,-5.1387,-5.1367,-5.1362,-5.1275,-5.1232,-5.1218,-6.5489,-6.5475,-6.542,-6.5394,-6.5425,-6.5547,-6.5616,-6.5597,-6.5597,-6.5597,-6.5597,-6.5597,-6.5646,-6.5611,-6.5749,-6.5804,-6.5886,-6.5994,-6.6098,-6.6088,-6.6035,-6.6128,-6.6158,-6.6186,-6.6242,-6.632,-6.6178,-6.5602,-6.3949,-6.3103,-6.226,-6.1479,-6.1487,-6.1421,-6.1274,-6.1117,-6.1166,-6.119,-6.1153,-6.117,-6.1194,-6.1225,-6.1217,-6.124,-6.1337,-6.1376,-6.1395,-6.1498,-6.1534,-6.1454,-6.1342,-6.0812,-6.007,-5.918,-5.8211,-5.6701,-5.6511,-5.6536,-5.6563,-5.6538,-5.6536,-5.6582,-5.6584,-5.6604,-5.6604,-5.6604,-5.6604,-5.6604,-5.6604,-5.6604,-5.6604,-5.6604,-5.6604,-5.6411,-5.6079,-5.5611,-5.4771,-5.3912,-5.3034,-5.2058,-5.1648,-5.1414,-5.1394,-5.1394,-5.1394,-5.1394,-5.1394,-5.1398,-5.1398,-5.14,-5.1384,-5.1391,-5.1396,-5.1399,-5.1402,-5.1384,-5.1385,-5.1387,-5.1387,-5.1387,-5.1387,-5.1387,-5.1387,-5.1387,-5.1387,-5.1387,-5.1387,-5.1387,-5.1387,-5.1387,-5.1387,-5.1387,-5.1387,-5.1328,-5.1308,-6.5394,-6.5394,-6.5394,-6.5394,-6.5394,-6.5394,-6.5394,-6.5394,-6.5394,-6.5394,-6.5394,-6.5409,-6.5394,-6.544,-6.5542,-6.5586,-6.56,-6.5692,-6.5769,-6.5788,-6.5854,-6.587,-6.5886,-6.5942,-6.6037,-6.6099,-6.5954,-6.5394,-6.372,-6.2245,-6.1281,-6.1209,-6.1324,-6.1217,-6.1057,-6.0974,-6.0945,-6.0964,-6.0964,-6.0945,-6.0954,-6.1002,-6.1012,-6.1002,-6.1126,-6.1158,-6.1202,-6.133,-6.1382,-6.1479,-6.147,-6.1066,-6.0151,-5.9104,-5.8352,-5.7005,-5.6634,-5.6578,-5.6525,-5.6523,-5.6528,-5.6553,-5.6555,-5.6582,-5.6604,-5.6604,-5.6604,-5.6604,-5.6604,-5.6604,-5.6604,-5.6604,-5.6604,-5.6584,-5.6372,-5.6157,-5.5357,-5.4498,-5.3444,-5.2331,-5.1785,-5.1492,-5.1394,-5.1394,-5.1394,-5.1394,-5.1394,-5.1394,-5.1396,-5.1396,-5.1398,-5.1384,-5.1389,-5.1393,-5.1396,-5.14,-5.1402,-5.1385,-5.1387,-5.1387,-5.1387,-5.1387,-5.1387,-5.1387,-5.1387,-5.1387,-5.1387,-5.1387,-5.1387,-5.1387,-5.1387,-5.1387,-5.1387,-5.1387,-5.1367,-6.5394,-6.5394,-6.5394,-6.5394,-6.5394,-6.5394,-6.5394,-6.5394,-6.5394,-6.5394,-6.5394,-6.5394,-6.5394,-6.5409,-6.545,-6.5435,-6.5465,-6.5489,-6.5532,-6.5425,-6.5509,-6.5564,-6.5647,-6.5699,-6.5774,-6.595,-6.5807,-6.5169,-6.3487,-6.2035,-6.1103,-6.0983,-6.1039,-6.1002,-6.0925,-6.082,-6.0765,-6.0696,-6.0719,-6.0739,-6.0862,-6.0944,-6.0974,-6.0925,-6.0954,-6.0974,-6.0983,-6.103,-6.1064,-6.1217,-6.1172,-6.083,-5.9807,-5.87,-5.7992,-5.7313,-5.6751,-5.6468,-5.637,-5.6366,-5.6387,-5.6406,-5.6469,-5.6469,-5.6485,-5.6577,-5.6604,-5.6604,-5.6604,-5.6604,-5.6604,-5.6604,-5.6604,-5.6604,-5.6489,-5.6294,-5.5825,-5.4732,-5.3366,-5.2331,-5.1648,-5.1394,-5.1394,-5.1394,-5.1394,-5.1394,-5.1394,-5.1394,-5.1394,-5.1394,-5.1394,-5.1396,-5.14,-5.1385,-5.1389,-5.1394,-5.1399,-5.1402,-5.1384,-5.1387,-5.1387,-5.1387,-5.1387,-5.1387,-5.1387,-5.1387,-5.1387,-5.1387,-5.1387,-5.1387,-5.1387,-5.1387,-5.1387,-5.1387,-5.1387,-6.5394,-6.5394,-6.5394,-6.5394,-6.5394,-6.5394,-6.5394,-6.5394,-6.5394,-6.5394,-6.5394,-6.5394,-6.5394,-6.5394,-6.5394,-6.5394,-6.5394,-6.5394,-6.5394,-6.5409,-6.5394,-6.542,-6.5475,-6.5513,-6.5542,-6.5611,-6.5442,-6.4802,-6.3265,-6.1887,-6.0924,-6.0809,-6.0873,-6.0904,-6.0776,-6.0669,-6.0628,-6.0507,-6.0507,-6.052,-6.0578,-6.0572,-6.0546,-6.0603,-6.0664,-6.0754,-6.0809,-6.0934,-6.0983,-6.1066,-6.1074,-6.0601,-5.9788,-5.8784,-5.799,-5.7356,-5.6621,-5.624,-5.6149,-5.6149,-5.6122,-5.6136,-5.6179,-5.6255,-5.6338,-5.6494,-5.6582,-5.6602,-5.6604,-5.6604,-5.6604,-5.6604,-5.6604,-5.6604,-5.6584,-5.6411,-5.6196,-5.4771,-5.3288,-5.2409,-5.1629,-5.1394,-5.1394,-5.1394,-5.1394,-5.1394,-5.1394,-5.1394,-5.1394,-5.1394,-5.1394,-5.1394,-5.1394,-5.1398,-5.1402,-5.1385,-5.1393,-5.1398,-5.1401,-5.1384,-5.1386,-5.1386,-5.1386,-5.1386,-5.1387,-5.1386,-5.1386,-5.1387,-5.1387,-5.1387,-5.1387,-5.1387,-5.1387,-5.1387,-5.1387,-6.5394,-6.5394,-6.5394,-6.5394,-6.5394,-6.5394,-6.5394,-6.5394,-6.5394,-6.5394,-6.5394,-6.5394,-6.5394,-6.5394,-6.5394,-6.5394,-6.5394,-6.5394,-6.5394,-6.5394,-6.5394,-6.5394,-6.5394,-6.5394,-6.5425,-6.5393,-6.4566,-6.375,-6.2926,-6.16,-6.0652,-6.0622,-6.0704,-6.0704,-6.0585,-6.0559,-6.054,-6.0398,-6.0403,-6.0403,-6.0403,-6.0403,-6.0403,-6.0453,-6.05,-6.0585,-6.059,-6.0692,-6.0765,-6.0841,-6.0883,-6.0829,-6.0056,-5.8983,-5.8219,-5.7538,-5.6787,-5.5919,-5.5919,-5.591,-5.5883,-5.5927,-5.5967,-5.6064,-5.6142,-5.6276,-5.6422,-5.6448,-5.655,-5.6555,-5.6555,-5.6555,-5.658,-5.6582,-5.6506,-5.6372,-5.5747,-5.4654,-5.3483,-5.2585,-5.1882,-5.1394,-5.1394,-5.1394,-5.1394,-5.1394,-5.1394,-5.1394,-5.1394,-5.1394,-5.1394,-5.1394,-5.1394,-5.1394,-5.1396,-5.14,-5.1385,-5.1391,-5.1396,-5.1399,-5.1402,-5.1402,-5.1402,-5.1402,-5.1384,-5.1386,-5.1386,-5.1386,-5.1387,-5.1387,-5.1387,-5.1387,-5.1387,-5.1387,-5.1387,-6.5394,-6.5394,-6.5394,-6.5394,-6.5394,-6.5394,-6.5394,-6.5394,-6.5394,-6.5394,-6.5394,-6.5394,-6.5394,-6.5394,-6.5394,-6.5394,-6.5394,-6.5394,-6.5394,-6.5394,-6.5394,-6.5394,-6.5394,-6.5394,-6.5394,-6.4955,-6.4159,-6.3528,-6.2892,-6.159,-6.0748,-6.0493,-6.0403,-6.0403,-6.0403,-6.0403,-6.0403,-6.0403,-6.0403,-6.0403,-6.0403,-6.0403,-6.0403,-6.0403,-6.0403,-6.0403,-6.0403,-6.0425,-6.0507,-6.0585,-6.0676,-6.0662,-6.0264,-5.9257,-5.855,-5.7821,-5.683,-5.6136,-5.5847,-5.577,-5.5788,-5.5815,-5.584,-5.5874,-5.5935,-5.6042,-5.6166,-5.6291,-5.6391,-5.6465,-5.6465,-5.6503,-5.6531,-5.656,-5.6465,-5.6294,-5.5454,-5.465,-5.3789,-5.2871,-5.2208,-5.1622,-5.1392,-5.1392,-5.1394,-5.1394,-5.1394,-5.1394,-5.1394,-5.1394,-5.1394,-5.1394,-5.1394,-5.1394,-5.1394,-5.1396,-5.14,-5.1385,-5.1391,-5.1394,-5.1396,-5.1397,-5.1398,-5.1398,-5.14,-5.1402,-5.1384,-5.1385,-5.1387,-5.1387,-5.1387,-5.1387,-5.1387,-5.1387,-5.1387,-6.5394,-6.5394,-6.5394,-6.5394,-6.5394,-6.5394,-6.5394,-6.5394,-6.5394,-6.5394,-6.5394,-6.5394,-6.5394,-6.5394,-6.5394,-6.5394,-6.5394,-6.5394,-6.5394,-6.5394,-6.5394,-6.5394,-6.5394,-6.5394,-6.5394,-6.4955,-6.4325,-6.3637,-6.2892,-6.186,-6.1,-6.0446,-6.0403,-6.0403,-6.0403,-6.0403,-6.0403,-6.0403,-6.0403,-6.0403,-6.0403,-6.0403,-6.0403,-6.0403,-6.0403,-6.0403,-6.0403,-6.0403,-6.0431,-6.0458,-6.048,-6.0527,-6.0156,-5.9486,-5.8725,-5.7918,-5.6936,-5.6176,-5.5823,-5.5612,-5.5569,-5.5566,-5.5591,-5.5626,-5.5699,-5.575,-5.5874,-5.5974,-5.6097,-5.6222,-5.6271,-5.6398,-5.6462,-5.6503,-5.6475,-5.6133,-5.5552,-5.4967,-5.4323,-5.3387,-5.2531,-5.1918,-5.1367,-5.1388,-5.1394,-5.1394,-5.1394,-5.1394,-5.1394,-5.1394,-5.1394,-5.1394,-5.1394,-5.1394,-5.1394,-5.1394,-5.1396,-5.14,-5.1384,-5.1387,-5.139,-5.1391,-5.1391,-5.1391,-5.1393,-5.1396,-5.1398,-5.1402,-5.1387,-5.1387,-5.1387,-5.1387,-5.1387,-5.1387,-5.1387]},{"header":{"parameterUnit":"m.s-1","parameterCategory":1,"la1":31.0,"la2":29.5877,"lo1":-88.7671,"lo2":-86.6584,"dy":0.0162,"dx":0.0185,"nx":115,"ny":88,"refTime":"2025-05-20T12:00:00:Z","depth":0,"parameterNumber":3,"parameterNumberName":"V-component_of_WINDS"},"data":[0.0,0.0,0.0,0.0,0.0,0.0,0.0,0.0,0.0,0.0,0.0,0.0,0.0,0.0,0.0,0.0,0.0,0.0,0.0,0.0,0.0,0.0,0.0,0.0,0.0,0.0,0.0,0.0,0.0,0.0,0.0,0.0,0.0,0.0,0.0,0.0,0.0,0.0,0.0,0.0,0.0,0.0,0.0,0.0,0.0,0.0,0.0,0.0,0.0,0.0,0.0,0.0,0.0,0.0,0.0,0.0,0.0,0.0,0.0,0.0,0.0,0.0,0.0,0.0,0.0,0.0,0.0,0.0,0.0,0.0,0.0,0.0,0.0,0.0,0.0,0.0,0.0,0.0,0.0,0.0,0.0,0.0,0.0,0.0,0.0,0.0,0.0,0.0,0.0,0.0,0.0,0.0,0.0,0.0,0.0,0.0,0.0,0.0,0.0,0.0,0.0,0.0,0.0,0.0,0.0,0.0,0.0,0.0,0.0,0.0,0.0,0.0,0.0,0.0,0.0,0.0,0.0,0.0,0.0,0.0,0.0,0.0,0.0,0.0,0.0,0.0,0.0,0.0,0.0,0.0,0.0,0.0,0.0,0.0,0.0,0.0,0.0,0.0,0.0,0.0,0.0,0.0,0.0,0.0,0.0,0.0,0.0,0.0,0.0,0.0,0.0,0.0,0.0,0.0,0.0,0.0,0.0,0.0,0.0,0.0,0.0,0.0,0.0,0.0,0.0,0.0,0.0,0.0,0.0,0.0,0.0,0.0,0.0,0.0,0.0,0.0,0.0,0.0,0.0,0.0,0.0,0.0,0.0,0.0,0.0,0.0,0.0,0.0,0.0,0.0,0.0,0.0,0.0,0.0,0.0,0.0,0.0,0.0,0.0,0.0,0.0,0.0,0.0,0.0,0.0,0.0,0.0,0.0,0.0,0.0,0.0,0.0,0.0,0.0,0.0,0.0,0.0,0.0,0.0,0.0,0.0,0.0,0.0,0.0,0.0,0.0,0.0,0.0,0.0,0.0,0.0,0.0,0.0,0.0,0.0,0.0,0.0,0.0,0.0,0.0,0.0,0.0,0.0,0.0,0.0,0.0,0.0,0.0,0.0,0.0,0.0,0.0,0.0,0.0,0.0,0.0,0.0,0.0,0.0,0.0,0.0,0.0,0.0,0.0,0.0,0.0,0.0,0.0,0.0,0.0,0.0,0.0,0.0,0.0,0.0,0.0,0.0,0.0,0.0,0.0,0.0,0.0,0.0,0.0,0.0,0.0,0.0,0.0,0.0,0.0,0.0,0.0,0.0,0.0,0.0,0.0,0.0,0.0,0.0,0.0,0.0,0.0,0.0,0.0,0.0,0.0,0.0,0.0,0.0,0.0,0.0,0.0,0.0,0.0,0.0,0.0,0.0,0.0,0.0,0.0,0.0,0.0,0.0,0.0,0.0,0.0,0.0,0.0,0.0,0.0,0.0,0.0,0.0,0.0,0.0,0.0,0.0,0.0,0.0,0.0,0.0,0.0,0.0,0.0,0.0,0.0,0.0,0.0,0.0,0.0,0.0,0.0,0.0,0.0,0.0,0.0,0.0,0.0,0.0,0.0,0.0,0.0,0.0,0.0,0.0,0.0,0.0,0.0,0.0,0.0,0.0,0.0,0.0,0.0,0.0,0.0,0.0,0.0,0.0,0.0,0.0,0.0,0.0,0.0,0.0,0.0,0.0,0.0,0.0,0.0,0.0,0.0,0.0,0.0,0.0,0.0,0.0,0.0,0.0,0.0,0.0,0.0,0.0,0.0,0.0,0.0,0.0,0.0,0.0,0.0,0.0,0.0,0.0,0.0,0.0,0.0,0.0,0.0,0.0,0.0,0.0,0.0,0.0,0.0,0.0,0.0,0.0,0.0,0.0,0.0,0.0,0.0,0.0,0.0,0.0,0.0,0.0,0.0,0.0,0.0,0.0,0.0,0.0,0.0,0.0,0.0,0.0,0.0,0.0,0.0,0.0,0.0,0.0,0.0,0.0,0.0,0.0,0.0,0.0,0.0,0.0,0.0,0.0,0.0,0.0,0.0,0.0,0.0,0.0,0.0,0.0,0.0,0.0,0.0,0.0,0.0,0.0,0.0,0.0,0.0,0.0,0.0,0.0,0.0,0.0,0.0,0.0,0.0,0.0,0.0,0.0,0.0,0.0,0.0,0.0,0.0,0.0,0.0,0.0,0.0,0.0,0.0,0.0,0.0,0.0,0.0,0.0,0.0,0.0,0.0,0.0,0.0,0.0,0.0,0.0,0.0,0.0,0.0,0.0,0.0,0.0,0.0,0.0,0.0,0.0,0.0,0.0,0.0,0.0,0.0,0.0,0.0,0.0,0.0,0.0,0.0,0.0,0.0,0.0,0.0,0.0,0.0,0.0,0.0,0.0,0.0,0.0,0.0,0.0,0.0,0.0,0.0,0.0,0.0,0.0,0.0,0.0,0.0,0.0,0.0,0.0,0.0,0.0,0.0,0.0,0.0,0.0,0.0,0.0,0.0,0.0,0.0,0.0,0.0,0.0,0.0,0.0,0.0,0.0,0.0,0.0,0.0,0.0,0.0,0.0,0.0,0.0,0.0,0.0,0.0,0.0,0.0,0.0,0.0,0.0,0.0,0.0,0.0,0.0,0.0,0.0,0.0,0.0,0.0,0.0,0.0,0.0,0.0,0.0,0.0,0.0,0.0,0.0,0.0,0.0,0.0,0.0,0.0,0.0,0.0,0.0,0.0,0.0,0.0,0.0,0.0,0.0,0.0,0.0,0.0,0.0,0.0,0.0,0.0,0.0,0.0,0.0,0.0,0.0,0.0,0.0,0.0,0.0,0.0,0.0,0.0,0.0,0.0,0.0,0.0,0.0,0.0,0.0,0.0,0.0,0.0,0.0,0.0,0.0,0.0,0.0,0.0,0.0,0.0,0.0,0.0,0.0,0.0,0.0,0.0,0.0,0.0,0.0,0.0,0.0,0.0,0.0,0.0,0.0,0.0,0.0,0.0,0.0,0.0,0.0,0.0,0.0,0.0,0.0,0.0,0.0,0.0,0.0,0.0,0.0,0.0,0.0,0.0,0.0,0.0,0.0,0.0,0.0,0.0,0.0,0.0,0.0,0.0,0.0,0.0,0.0,0.0,0.0,0.0,0.0,0.0,0.0,0.0,0.0,0.0,0.0,0.0,0.0,0.0,0.0,0.0,0.0,0.0,0.0,0.0,0.0,0.0,0.0,0.0,0.0,0.0,0.0,0.0,0.0,0.0,0.0,0.0,0.0,0.0,0.0,0.0,0.0,0.0,0.0,0.0,0.0,0.0,0.0,0.0,0.0,0.0,0.0,0.0,0.0,0.0,0.0,0.0,0.0,0.0,0.0,0.0,0.0,0.0,0.0,0.0,0.0,0.0,0.0,0.0,0.0,0.0,0.0,0.0,0.0,0.0,0.0,0.0,0.0,0.0,0.0,0.0,0.0,0.0,0.0,0.0,0.0,0.0,0.0,0.0,0.0,0.0,0.0,0.0,0.0,0.0,0.0,0.0,0.0,0.0,0.0,0.0,0.0,0.0,0.0,0.0,0.0,0.0,0.0,0.0,0.0,0.0,0.0,0.0,0.0,0.0,0.0,0.0,0.0,0.0,0.0,0.0,0.0,0.0,0.0,0.0,0.0,0.0,0.0,0.0,0.0,0.0,0.0,0.0,0.0,0.0,0.0,0.0,0.0,0.0,0.0,0.0,0.0,0.0,0.0,0.0,0.0,0.0,0.0,0.0,0.0,0.0,0.0,0.0,0.0,0.0,0.0,0.0,0.0,0.0,0.0,0.0,0.0,0.0,0.0,0.0,0.0,0.0,0.0,0.0,0.0,0.0,0.0,0.0,0.0,0.0,0.0,0.0,0.0,0.0,0.0,0.0,0.0,0.0,0.0,0.0,0.0,0.0,0.0,0.0,0.0,0.0,0.0,0.0,0.0,0.0,0.0,0.0,0.0,0.0,0.0,0.0,0.0,0.0,0.0,0.0,0.0,0.0,0.0,0.0,0.0,0.0,0.0,0.0,0.0,0.0,0.0,0.0,0.0,0.0,0.0,0.0,0.0,0.0,0.0,0.0,0.0,0.0,0.0,0.0,0.0,0.0,0.0,0.0,0.0,0.0,0.0,0.0,0.0,0.0,0.0,0.0,0.0,0.0,0.0,0.0,0.0,0.0,0.0,0.0,0.0,0.0,0.0,0.0,0.0,0.0,0.0,0.0,0.0,0.0,0.0,0.0,0.0,0.0,0.0,0.0,0.0,0.0,0.0,0.0,0.0,0.0,0.0,0.0,0.0,0.0,0.0,0.0,0.0,0.0,0.0,0.0,0.0,0.0,0.0,0.0,0.0,0.0,0.0,0.0,0.0,0.0,0.0,0.0,0.0,0.0,0.0,0.0,0.0,0.0,0.0,0.0,0.0,0.0,0.0,0.0,0.0,0.0,0.0,0.0,0.0,0.0,0.0,0.0,0.0,0.0,0.0,0.0,0.0,0.0,0.0,0.0,0.0,0.0,0.0,0.0,0.0,0.0,0.0,0.0,0.0,0.0,0.0,0.0,0.0,0.0,0.0,0.0,0.0,0.0,0.0,0.0,0.0,0.0,0.0,0.0,0.0,0.0,0.0,0.0,0.0,0.0,0.0,0.0,0.0,0.0,0.0,0.0,0.0,0.0,0.0,0.0,0.0,0.0,0.0,0.0,0.0,0.0,0.0,0.0,0.0,0.0,0.0,0.0,0.0,0.0,0.0,0.0,0.0,0.0,0.0,0.0,0.0,0.0,0.0,0.0,0.0,0.0,0.0,0.0,0.0,0.0,0.0,0.0,0.0,0.0,0.0,0.0,0.0,0.0,0.0,0.0,0.0,0.0,0.0,0.0,0.0,0.0,0.0,0.0,0.0,0.0,0.0,0.0,0.0,0.0,0.0,0.0,0.0,0.0,0.0,0.0,0.0,0.0,0.0,0.0,0.0,0.0,0.0,0.0,0.0,0.0,0.0,0.0,0.0,0.0,0.0,0.0,0.0,0.0,0.0,0.0,0.0,0.0,0.0,0.0,0.0,0.0,0.0,0.0,0.0,0.0,0.0,0.0,0.0,0.0,0.0,0.0,0.0,0.0,0.0,0.0,0.0,0.0,0.0,0.0,0.0,0.0,0.0,0.0,0.0,0.0,0.0,0.0,0.0,0.0,0.0,0.0,0.0,0.0,0.0,0.0,0.0,0.0,0.0,0.0,0.0,0.0,0.0,0.0,0.0,0.0,0.0,0.0,0.0,0.0,0.0,0.0,0.0,0.0,0.0,0.0,0.0,0.0,0.0,0.0,0.0,0.0,0.0,0.0,0.0,0.0,0.0,0.0,0.0,0.0,0.0,0.0,0.0,0.0,0.0,0.0,0.0,0.0,0.0,0.0,0.0,0.0,0.0,0.0,0.0,0.0,0.0,0.0,0.0,0.0,0.0,0.0,0.0,0.0,0.0,0.0,0.0,0.0,0.0,0.0,0.0,0.0,0.0,0.0,0.0,0.0,0.0,0.0,0.0,0.0,0.0,0.0,0.0,0.0,0.0,0.0,0.0,0.0,0.0,0.0,0.0,0.0,0.0,0.0,0.0,0.0,0.0,0.0,0.0,0.0,0.0,0.0,0.0,0.0,0.0,0.0,0.0,0.0,0.0,0.0,0.0,0.0,0.0,0.0,0.0,0.0,0.0,0.0,0.0,0.0,0.0,0.0,0.0,0.0,0.0,0.0,0.0,0.0,0.0,0.0,0.0,0.0,0.0,0.0,0.0,0.0,0.0,0.0,0.0,0.0,0.0,0.0,0.0,0.0,0.0,0.0,0.0,0.0,0.0,0.0,0.0,0.0,0.0,0.0,0.0,0.0,0.0,0.0,0.0,0.0,0.0,0.0,0.0,0.0,0.0,0.0,0.0,0.0,0.0,0.0,0.0,0.0,0.0,0.0,0.0,0.0,0.0,0.0,0.0,0.0,0.0,0.0,0.0,0.0,0.0,0.0,0.0,0.0,0.0,0.0,0.0,0.0,0.0,0.0,0.0,0.0,0.0,0.0,0.0,0.0,0.0,0.0,0.0,0.0,0.0,0.0,0.0,0.0,0.0,0.0,0.0,0.0,0.0,0.0,0.0,0.0,0.0,0.0,0.0,0.0,0.0,0.0,0.0,0.0,0.0,0.0,0.0,0.0,0.0,0.0,0.0,0.0,0.0,0.0,0.0,0.0,0.0,0.0,0.0,0.0,0.0,0.0,0.0,0.0,0.0,0.0,0.0,0.0,0.0,0.0,0.0,0.0,0.0,0.0,0.0,0.0,0.0,0.0,0.0,0.0,0.0,0.0,0.0,0.0,0.0,0.0,0.0,0.0,0.0,0.0,0.0,0.0,0.0,0.0,0.0,0.0,0.0,0.0,0.0,0.0,0.0,0.0,0.0,0.0,0.0,0.0,0.0,0.0,0.0,0.0,0.0,0.0,0.0,0.0,0.0,0.0,0.0,0.0,0.0,0.0,0.0,0.0,0.0,0.0,0.0,0.0,0.0,0.0,0.0,0.0,0.0,0.0,0.0,0.0,0.0,0.0,0.0,0.0,0.0,0.0,0.0,0.0,0.0,0.0,0.0,0.0,0.0,0.0,0.0,0.0,0.0,0.0,0.0,0.0,0.0,0.0,0.0,0.0,0.0,0.0,0.0,0.0,0.0,0.0,0.0,0.0,0.0,0.0,0.0,0.0,0.0,0.0,0.0,0.0,0.0,0.0,0.0,0.0,0.0,0.0,0.0,0.0,0.0,0.0,0.0,0.0,0.0,0.0,0.0,0.0,0.0,0.0,0.0,0.0,0.0,0.0,0.0,0.0,0.0,0.0,0.0,0.0,0.0,0.0,0.0,0.0,0.0,0.0,0.0,0.0,0.0,0.0,0.0,0.0,0.0,0.0,0.0,0.0,0.0,0.0,0.0,0.0,0.0,0.0,0.0,0.0,0.0,0.0,0.0,0.0,0.0,0.0,0.0,0.0,0.0,0.0,0.0,0.0,0.0,0.0,0.0,0.0,0.0,0.0,0.0,0.0,0.0,0.0,0.0,0.0,0.0,0.0,0.0,0.0,0.0,0.0,0.0,0.0,0.0,0.0,0.0,0.0,0.0,0.0,0.0,0.0,0.0,0.0,0.0,0.0,0.0,0.0,0.0,0.0,0.0,0.0,0.0,0.0,0.0,0.0,0.0,0.0,0.0,0.0,0.0,0.0,0.0,0.0,0.0,0.0,0.0,0.0,0.0,0.0,0.0,0.0,0.0,0.0,0.0,0.0,0.0,0.0,0.0,0.0,0.0,0.0,0.0,0.0,0.0,0.0,0.0,0.0,0.0,0.0,0.0,0.0,0.0,0.0,0.0,0.0,0.0,0.0,0.0,0.0,0.0,0.0,0.0,0.0,0.0,0.0,0.0,0.0,0.0,0.0,0.0,0.0,0.0,0.0,0.0,0.0,0.0,0.0,0.0,0.0,0.0,0.0,0.0,0.0,0.0,0.0,0.0,0.0,0.0,0.0,0.0,0.0,0.0,0.0,0.0,0.0,0.0,0.0,0.0,0.0,0.0,0.0,0.0,0.0,0.0,0.0,0.0,0.0,0.0,0.0,0.0,0.0,0.0,0.0,0.0,0.0,0.0,0.0,0.0,0.0,0.0,0.0,0.0,0.0,0.0,0.0,0.0,0.0,0.0,0.0,0.0,0.0,0.0,0.0,0.0,0.0,0.0,0.0,0.0,0.0,0.0,0.0,0.0,0.0,0.0,0.0,0.0,0.0,0.0,0.0,0.0,0.0,0.0,0.0,0.0,0.0,0.0,0.0,0.0,0.0,0.0,0.0,0.0,0.0,0.0,0.0,0.0,0.0,0.0,0.0,0.0,0.0,0.0,0.0,0.0,0.0,0.0,0.0,0.0,0.0,0.0,0.0,0.0,0.0,0.0,0.0,0.0,0.0,0.0,0.0,0.0,0.0,0.0,0.0,0.0,0.0,0.0,0.0,0.0,0.0,0.0,0.0,0.0,0.0,0.0,0.0,0.0,0.0,0.0,0.0,0.0,0.0,0.0,0.0,0.0,0.0,0.0,0.0,0.0,0.0,0.0,0.0,0.0,0.0,0.0,0.0,0.0,0.0,0.0,0.0,0.0,0.0,0.0,0.0,0.0,0.0,0.0,0.0,0.0,0.0,0.0,0.0,0.0,0.0,0.0,0.0,0.0,0.0,0.0,0.0,0.0,0.0,0.0,0.0,0.0,0.0,0.0,0.0,0.0,0.0,0.0,0.0,0.0,0.0,0.0,0.0,0.0,0.0,0.0,0.0,0.0,0.0,0.0,0.0,0.0,0.0,0.0,0.0,0.0,0.0,0.0,0.0,0.0,0.0,0.0,0.0,0.0,0.0,0.0,0.0,0.0,0.0,0.0,0.0,0.0,0.0,0.0,0.0,0.0,0.0,0.0,0.0,0.0,0.0,0.0,0.0,0.0,0.0,0.0,0.0,0.0,0.0,0.0,0.0,0.0,0.0,0.0,0.0,0.0,0.0,0.0,0.0,0.0,0.0,0.0,0.0,0.0,0.0,0.0,0.0,0.0,0.0,0.0,0.0,0.0,0.0,0.0,0.0,0.0,0.0,0.0,0.0,0.0,0.0,0.0,0.0,0.0,0.0,0.0,0.0,0.0,0.0,0.0,0.0,0.0,0.0,0.0,0.0,0.0,0.0,0.0,0.0,0.0,0.0,0.0,0.0,0.0,0.0,0.0,0.0,0.0,0.0,0.0,0.0,0.0,0.0,0.0,0.0,0.0,0.0,0.0,0.0,0.0,0.0,0.0,0.0,0.0,0.0,0.0,0.0,0.0,0.0,0.0,0.0,0.0,0.0,0.0,0.0,0.0,0.0,0.0,0.0,0.0,0.0,0.0,0.0,0.0,0.0,0.0,0.0,0.0,0.0,0.0,0.0,0.0,0.0,0.0,0.0,0.0,0.0,0.0,0.0,0.0,0.0,0.0,0.0,0.0,0.0,0.0,0.0,0.0,0.0,0.0,0.0,0.0,0.0,0.0,0.0,0.0,0.0,0.0,0.0,0.0,0.0,0.0,0.0,0.0,0.0,0.0,0.0,0.0,0.0,0.0,0.0,0.0,0.0,0.0,0.0,0.0,0.0,0.0,0.0,0.0,0.0,0.0,0.0,0.0,0.0,0.0,0.0,0.0,0.0,0.0,0.0,0.0,0.0,0.0,0.0,0.0,0.0,0.0,0.0,0.0,0.0,0.0,0.0,0.0,0.0,0.0,0.0,0.0,0.0,0.0,0.0,0.0,0.0,0.0,0.0,0.0,0.0,0.0,0.0,0.0,0.0,0.0,0.0,0.0,0.0,0.0,0.0,0.0,0.0,0.0,0.0,0.0,0.0,0.0,0.0,0.0,0.0,0.0,0.0,0.0,0.0,0.0,0.0,0.0,0.0,0.0,0.0,0.0,0.0,0.0,0.0,0.0,0.0,0.0,0.0,0.0,0.0,0.0,0.0,0.0,0.0,0.0,0.0,0.0,0.0,0.0,0.0,0.0,0.0,0.0,0.0,0.0,0.0,0.0,0.0,0.0,0.0,0.0,0.0,0.0,0.0,0.0,0.0,0.0,0.0,0.0,0.0,0.0,0.0,0.0,0.0,0.0,0.0,0.0,0.0,0.0,0.0,0.0,0.0,0.0,0.0,0.0,0.0,0.0,0.0,0.0,0.0,0.0,0.0,0.0,0.0,0.0,0.0,0.0,0.0,0.0,0.0,0.0,0.0,0.0,0.0,0.0,0.005,0.0069,0.0088,0.0,0.0,0.0,0.0,0.0,0.0,0.0,0.0,0.0,0.0,0.0,0.0,0.0,0.0,0.0,0.0,0.0,0.0,0.0,0.0,0.0,0.0,0.0,0.0,0.0,0.0,0.0,0.0,0.0,0.0,0.0,0.0,0.0,0.0,0.0,0.0,0.0,0.0,0.0,0.0,0.0,0.0,0.0,0.0,0.0,0.0,0.0,0.0,0.0,0.0,0.0,0.0,0.0,0.0,0.0,0.0,0.0,0.0,0.0,0.0,0.0,0.0,0.0,0.0,0.0,0.0,0.0,0.0,0.0,0.0,0.0,0.0,0.0,0.0,0.0,0.0,0.0,0.0,0.0,0.0,0.0,0.0,0.0,0.0,0.0,0.0,0.0,0.0,0.0,0.0,0.0,0.0,0.0,0.0,0.0,0.0,0.0,0.0,0.0,0.0,0.0,0.0,0.0,0.0,0.0,0.0,0.0,0.0,0.0,0.0,0.0,0.0,0.0117,0.0183,0.0,0.0,0.0,0.0,0.0,0.0,0.0,0.0,0.0,0.0,0.0,0.0,0.0,0.0,0.0,0.0,0.0,0.0,0.0,0.0,0.0,0.0,0.0,0.0,0.0,0.0,0.0,0.0,0.0,0.0,0.0,0.0,0.0,0.0,0.0,0.0,0.0,0.0,0.0,0.0,0.0,0.0,0.0,0.0,0.0,0.0,0.0,0.0,0.0,0.0,0.0,0.0,0.0,0.0,0.0,0.0,0.0,0.0,0.0,0.0,0.0,0.0,0.0,0.0,0.0,0.0,0.0,0.0,0.0,0.0,0.0,0.0,0.0,0.0,0.0,0.0,0.0,0.0,0.0,0.0,0.0,0.0,0.0,0.0,0.0,0.0,0.0,0.0,0.0,0.0,0.0,0.0,0.0,0.0,0.0,0.0,0.0,0.0,0.0,0.0,0.0,0.0,0.0,0.0,0.0,0.0,0.0,0.0,0.0,0.0,0.0,0.0,0.0,0.0033,0.0089,0.0,0.0,0.0,0.0,0.0,0.0,0.0,0.0,0.0,0.0,0.0,0.0,0.0,0.0,0.0,0.0,0.0,0.0,0.0,0.0,0.0,0.0,0.0,0.0,0.0,0.0,0.0,0.0,0.0,0.0,0.0,0.0,0.0,0.0,0.0,0.0,0.0,0.0,0.0,0.0,0.0,0.0,0.0,0.0,0.0,0.0,0.0,0.0,0.0,0.0,0.0,0.0,0.0,0.0,0.0,0.0,0.0,0.0,0.0,0.0,0.0,0.0,0.0,0.0,0.0,0.0,0.0,0.0,0.0,0.0,0.0,0.0,0.0,0.0,0.0,0.0,0.0,0.0,0.0,0.0,0.0,0.0,0.0,0.0,0.0,0.0,0.0,0.0,0.0,0.0,0.0,0.0,0.0,0.0,0.0,0.0,0.0,0.0,0.0,0.0,0.0,0.0,0.0,0.0,0.0,0.0,0.0,0.0,-0.0073,0.0,0.0,0.0,0.0,0.015,0.0232,0.0,0.0,0.0,0.0,0.0,0.0,0.0,0.0,0.0,0.0,0.0,0.0,0.0,0.0,0.0,0.0,0.0,0.0,0.0,0.0,0.0,0.0,0.0,0.0,0.0,0.0,0.0,0.0,0.0,0.0,0.0,0.0,0.0,0.0,0.0,0.0,0.0,0.0,0.0,0.0,0.0,0.0,0.0,0.0,0.0,0.0,0.0,0.0,0.0,0.0,0.0,0.0,0.0,0.0,0.0,0.0,0.0,0.0,0.0,0.0,0.0,0.0,0.0,0.0,0.0,0.0,0.0,0.0,0.0,0.0,0.0,0.0,0.0,0.0,0.0,0.0,0.0,0.0,0.0,0.0,0.0,0.0,0.0,0.0,0.0,0.0,0.0,0.0,0.0,0.0,0.0,0.0,0.0,0.0,0.0,0.0,0.0,0.0,0.0,0.0,0.0,0.0,0.0,0.0,0.0,0.0,0.0,0.0,-0.0387,0.0,-0.0094,0.0,0.0,0.0296,0.0438,0.0,0.0,0.0,0.0,0.0,0.0,0.0,0.0,0.0,0.0,0.0,0.0,0.0,0.0,0.0,0.0,0.0,0.0,0.0,0.0,0.0,0.0,0.0,0.0,0.0,0.0,0.0,0.0,0.0,0.0,0.0,0.0,0.0,0.0,0.0,0.0,0.0,0.0,0.0,0.0,0.0,0.0,0.0,0.0,0.0,0.0,0.0,0.0,0.0,0.0,0.0,0.0,0.0,0.0,0.0,0.0,0.0,0.0,0.0,0.0,0.0,0.0,0.0,0.0,0.0,0.0,0.0,0.0,0.0,0.0,0.0,0.0,0.0,0.0,0.0,0.0,0.0,0.0,0.0,0.0,0.0,0.0,0.0,0.0,0.0,0.0,0.0,0.0,0.0,0.0,0.0,0.0,0.0,0.0,0.0,0.0,0.0,0.0,0.0,0.0,0.0,0.0,0.0,0.0,0.0,0.0,0.0,0.0,-0.0824,-0.0044,-0.0818,-0.0845,0.0,0.0087,0.0192,0.0,0.0,0.0,0.0,0.0,0.0,0.0,0.0,0.0,0.0,0.0,0.0,0.0,0.0,0.0,0.0,0.0,0.0,0.0,0.0,0.0,0.0,0.0,0.0,0.0,0.0,0.0,0.0,0.0,0.0,0.0,0.0,0.0,0.0,0.0,0.0,0.0,0.0,0.0,0.0,0.0,0.0,0.0,0.0,0.0,0.0,0.0,0.0,-0.2649,0.0,0.0,0.0,0.0,0.0,0.0,0.0,0.0,0.0,0.0,0.0,0.0,0.0,0.0,0.0,0.0,0.0,0.0,0.0,0.0,0.0,0.0,0.0,0.0,0.0,0.0,0.0,0.0,0.0,0.0,0.0,0.0,0.0,0.0,0.0,0.0,0.0,0.0,0.0,0.0,0.0,0.0,0.0,0.0,0.0,0.0,0.0,0.0,0.0,0.0,0.0,0.0,0.0,0.0,0.0,0.0,0.0,0.0,0.0,-0.1483,-0.0784,-0.1322,-0.1104,0.0,0.0,0.0121,0.0,0.0,0.0,0.0,0.0,0.0,0.0,0.0,0.0,0.0,0.0,0.0,0.0,0.0,0.0,0.0,0.0,0.0,0.0,0.0,0.0,0.0,0.0,0.0,0.0,0.0,0.0,0.0,0.0,0.0,0.0,0.0,0.0,0.0,0.0,0.0,0.0,0.0,0.0,0.0,0.0,0.0,0.0,0.0,0.0,0.0,0.0,0.0,0.0,0.0,0.0,0.0,0.0,0.0,0.0,0.0,0.0,0.0,0.0,0.0,0.0,0.0,0.0,0.0,0.0,0.0,0.0,0.0,0.0,0.0,0.0,0.0,0.0,0.0,0.0,0.0,0.0,0.0,0.0,0.0,0.0,0.0,0.0,0.0,0.0,0.0,0.0,0.0,0.0,0.0,0.0,0.0,0.0,0.0,0.0,0.0,0.0,0.0,0.0,0.0,0.0,0.0,0.0,0.0,0.0,0.0,0.0,-0.2042,-0.2234,-0.1864,-0.1983,-0.1513,-0.0303,-0.0234,-0.0042,0.0408,0.0,0.0,0.0,0.0,0.0,0.0,0.0,0.0,0.0,0.0,0.0,0.0,0.0,0.0,0.0,0.0,0.0,0.0,0.0,0.0,0.0,0.0,0.0,0.0,0.0,0.0,0.0,0.0,0.0,0.0,0.0,0.0,0.0,0.0,0.0,0.0,0.0,0.0,-0.2592,-0.287,0.0,0.0,0.0,0.0,0.0,0.0,0.0,0.0,-0.29,0.0,0.0,0.0,0.0,0.0,0.0,0.0,0.0,0.0,0.0,0.0,0.0,0.0,0.0,0.0,0.0,0.0,0.0,0.0,0.0,0.0,0.0,0.0,0.0,0.0,0.0,0.0,0.0,0.0,0.0,0.0,0.0,0.0,0.0,0.0,0.0,0.0,0.0,0.0,0.0,0.0,0.0,0.0,0.0,0.0,0.0,0.0,0.0,0.0,0.0,0.0,0.0,0.0,0.0,0.0,0.0,-0.1375,-0.2492,-0.3008,-0.2933,-0.3815,-0.3324,-0.1459,-0.1356,-0.0772,0.0311,0.0,0.0,0.0,0.0,0.0,0.0,0.0,0.0,0.0,0.0,0.0,0.0,0.0,0.0,0.0,0.0,0.0,0.0,0.0,0.0,0.0,0.0,0.0,0.0,0.0,0.0,0.0,0.0,0.0,0.0,0.0,0.0,0.0,0.0,0.0,0.0,0.0,0.0,0.0,-0.3459,-0.3663,0.0,0.0,0.0,0.0,0.0,0.0,0.0,0.0,-0.3017,0.0,0.0,0.0,0.0,0.0,0.0,0.0,0.0,0.0,0.0,0.0,0.0,0.0,0.0,0.0,0.0,0.0,0.0,0.0,0.0,0.0,0.0,0.0,0.0,0.0,0.0,0.0,0.0,0.0,0.0,0.0,0.0,0.0,0.0,0.0,0.0,0.0,0.0,0.0,0.0,0.0,0.0,0.0,0.0,0.0,0.0,0.0,0.0,0.0,0.0,0.0,0.0,0.0,0.0,0.0,-0.2131,-0.3359,-0.4023,-0.4012,-0.4533,-0.3778,-0.1711,-0.1574,-0.0978,0.0,0.0,0.0,0.0,0.0,0.0,0.0,0.0,0.0,0.0,0.0,0.0,0.0,0.0,0.0,0.0,0.0,0.0,0.0,0.0,0.0,0.0,0.0,0.0,0.0,0.0,0.0,0.0,0.0,0.0,0.0,0.0,0.0,0.0,0.0,0.0,0.0,0.0,0.0,0.0,-0.3656,-0.3897,-0.4133,0.0,0.0,0.0,0.0,0.0,0.0,-0.3537,-0.3351,0.0,0.0,0.0,0.0,0.0,0.0,0.0,0.0,0.0,0.0,0.0,0.0,0.0,0.0,0.0,0.0,0.0,0.0,0.0,0.0,0.0,0.0,0.0,0.0,0.0,0.0,0.0,0.0,0.0,0.0,0.0,0.0,0.0,0.0,0.0,0.0,0.0,0.0,0.0,0.0,0.0,0.0,0.0,0.0,0.0,0.0,0.0,0.0,0.0,0.0,0.0,0.0,0.0,0.0,0.0,-0.2729,-0.397,-0.4739,-0.5092,-0.5044,-0.4086,-0.2023,-0.1885,-0.1095,0.0,0.0,0.0,0.0,0.0,0.0,0.0,0.0,0.0,0.0,0.0,0.0,0.0,0.0,0.0,0.0,0.0,0.0,0.0,0.0,0.0,0.0,0.0,0.0,0.0,0.0,0.0,0.0,0.0,0.0,0.0,0.0,0.0,0.0,0.0,0.0,0.0,0.0,0.0,0.0,0.0,-0.409,-0.4443,-0.4156,0.0,0.0,0.0,0.0,-0.3972,-0.3877,0.0,0.0,0.0,0.0,0.0,0.0,0.0,0.0,0.0,0.0,0.0,0.0,0.0,0.0,0.0,0.0,0.0,0.0,0.0,0.0,0.0,0.0,0.0,0.0,0.0,0.0,0.0,0.0,0.0,0.0,0.0,0.0,0.0,0.0,0.0,0.0,0.0,0.0,0.0,0.0,0.0,0.0,0.0,0.0,0.0,0.0,0.0,0.0,0.0,0.0,0.0,0.0,0.0,0.0,0.0,0.0,-0.2442,-0.3692,-0.4892,-0.5945,-0.5891,-0.5019,-0.324,-0.2728,-0.1557,0.0,0.0,0.0,0.0,0.0,0.0,0.0,0.0,0.0,0.0,0.0,0.0,0.0,0.0,0.0,0.0,0.0,0.0,0.0,0.0,0.0,0.0,0.0,0.0,0.0,0.0,0.0,0.0,0.0,0.0,0.0,0.0,0.0,0.0,0.0,0.0,0.0,0.0,0.0,0.0,0.0,-0.4555,-0.4505,-0.4311,-0.4173,0.0,0.0,-0.424,-0.4545,-0.4487,0.0,0.0,0.0,0.0,0.0,0.0,0.0,0.0,0.0,0.0,0.0,0.0,0.0,0.0,0.0,0.0,0.0,0.0,0.0,0.0,0.0,0.0,0.0,0.0,0.0,0.0,0.0,0.0,0.0,0.0,0.0,0.0,0.0,0.0,0.0,0.0,0.0,0.0,0.0,0.0,0.0,0.0,0.0,0.0,0.0,0.0,0.0,0.0,0.0,0.0,0.0,0.0,0.0,0.0,0.0,-0.1547,-0.1562,-0.3131,-0.4292,-0.5051,-0.4928,-0.4264,-0.2997,-0.2716,-0.1587,0.0,0.0,0.0,0.0,0.0,0.0,0.0,0.0,0.0,0.0,0.0,0.0,0.0,0.0,0.0,0.0,0.0,0.0,0.0,0.0,0.0,0.0,0.0,0.0,0.0,0.0,0.0,0.0,0.0,0.0,0.0,0.0,0.0,0.0,0.0,0.0,0.0,0.0,0.0,0.0,0.0,0.0,-0.4718,-0.4638,0.0,0.0,0.0,-0.4613,-0.4597,0.0,0.0,0.0,0.0,0.0,0.0,0.0,0.0,0.0,0.0,0.0,0.0,0.0,0.0,0.0,0.0,0.0,0.0,0.0,0.0,0.0,0.0,0.0,0.0,0.0,0.0,0.0,0.0,0.0,0.0,0.0,0.0,0.0,0.0,0.0,0.0,0.0,0.0,0.0,0.0,0.0,0.0,0.0,0.0,0.0,0.0,0.0,0.0,0.0,0.0,0.0,0.0,0.0,0.0,0.0,0.0,0.0,-0.0744,-0.2381,-0.3399,-0.3635,-0.358,-0.3066,-0.2233,-0.2072,0.0,0.0,0.0,0.0,0.0,0.0,0.0,0.0,0.0,0.0,0.0,0.0,0.0,0.0,0.0,0.0,0.0,0.0,0.0,0.0,0.0,0.0,0.0,0.0,0.0,0.0,0.0,-0.1273,0.0,0.0,0.0,0.0,0.0,0.0,0.0,0.0,0.0,0.0,0.0,0.0,0.0,0.0,-0.4789,-0.4874,-0.4918,-0.4958,0.0,0.0,-0.4863,-0.474,-0.4969,-0.4904,0.0,0.0,0.0,0.0,0.0,0.0,0.0,0.0,0.0,0.0,0.0,0.0,0.0,0.0,0.0,0.0,0.0,0.0,0.0,0.0,0.0,0.0,0.0,0.0,0.0,0.0,0.0,0.0,0.0,0.0,0.0,0.0,0.0,0.0,0.0,0.0,0.0,0.0,0.0,0.0,0.0,0.0,0.0,0.0,0.0,0.0,0.0,0.0,0.0,0.0,0.0,0.0,0.0,0.0,0.0,-0.047,-0.1457,-0.2107,-0.2222,-0.2189,-0.1771,-0.1058,-0.0607,0.0042,0.0,0.0,0.0,0.0,0.0,0.0,0.0,0.0,0.0,0.0,0.0,0.0,0.0,0.0,0.0,0.0,0.0,0.0,0.0,0.0,0.0,0.0,0.0,0.0,0.0,0.0,0.0,0.0,0.0,0.0,0.0,0.0,0.0,0.0,0.0,0.0,0.0,0.0,0.0,0.0,0.0,-0.4877,-0.4887,-0.5002,-0.5181,0.0,0.0,-0.5006,-0.5289,-0.5354,-0.5094,-0.4324,0.0,0.0,0.0,0.0,0.0,0.0,0.0,0.0,0.0,0.0,0.0,0.0,0.0,0.0,0.0,0.0,0.0,0.0,0.0,0.0,0.0,0.0,0.0,0.0,0.0,0.0,0.0,0.0,0.0,0.0,0.0,0.0,0.0,0.0,0.0,0.0,0.0,0.0,0.0,0.0,0.0,0.0,0.0,0.0,0.0,0.0,0.0,0.0,0.0,0.0,0.0,0.0,0.0,-0.0035,0.0628,-0.0228,-0.0704,-0.0848,-0.0784,-0.0627,-0.0425,-0.0285,0.0212,0.0,0.0,0.0,0.0,0.0,0.0,0.0,0.0,0.0,0.0,0.0,0.0,0.0,0.0,0.0,0.0,0.0,0.0,0.0,0.0,0.0,0.0,0.0,0.0,0.0,0.0,0.0,0.0,-0.2345,-0.2342,-0.2088,0.0,0.0,0.0,0.0,0.0,0.0,0.0,0.0,0.0,0.0,-0.5052,-0.5211,-0.5393,0.0,0.0,-0.5515,-0.5403,-0.5243,-0.5379,-0.5279,-0.4501,-0.4331,0.0,0.0,0.0,0.0,0.0,0.0,0.0,0.0,0.0,0.0,0.0,0.0,0.0,0.0,0.0,0.0,0.0,0.0,0.0,0.0,0.0,0.0,0.0,0.0,0.0,0.0,0.0,0.0,0.0,0.0,0.0,0.0,0.0,0.0,0.0,0.0,0.0,0.0,0.0,0.0,0.0,0.0,0.0,0.0,0.0,0.0,0.0,0.0,0.0,0.0,0.0,0.0,0.0454,0.127,0.0789,0.0511,0.0482,0.0475,0.0473,0.0425,0.0336,0.0607,0.0,0.0,0.0,0.0,0.0,0.0,0.0,0.0,0.0,0.0,0.0,0.0,0.0,0.0,0.0,0.0,0.0,0.0,0.0,0.0,0.0,0.0,0.0,0.0,0.0,0.0,0.0,0.0,-0.2514,-0.2482,-0.218,0.0,0.0,0.0,0.0,0.0,0.0,0.0,0.0,0.0,0.0,-0.5257,-0.5443,-0.5641,-0.5715,-0.5661,-0.5623,-0.5508,-0.524,-0.5382,-0.5327,-0.4668,0.0,0.0,0.0,0.0,0.0,0.0,0.0,0.0,0.0,0.0,0.0,0.0,0.0,0.0,0.0,0.0,0.0,0.0,0.0,0.0,0.0,0.0,0.0,0.0,0.0,0.0,0.0,0.0789,0.0,0.0,0.07,0.0,0.0,0.0,0.0,0.0,0.0,0.0,0.0,0.0,0.0,0.0,0.0,0.0,0.0,0.0,0.0,0.0,0.0,0.0,0.0,0.0,0.0,0.1151,0.1302,0.1488,0.1688,0.1745,0.1719,0.165,0.1648,0.151,0.1392,0.1301,0.0,0.0,0.0,0.0,0.0,0.0,0.0,0.0,0.0,0.0,0.0,0.0,0.0,0.0,0.0,0.0,0.0,0.0,0.0,0.0,0.0,0.0,0.0,0.0,0.0,0.0,-0.1879,-0.2131,-0.2325,0.0,0.0,0.0,0.0,0.0,0.0,0.0,0.0,0.0,0.0,-0.5006,-0.5443,-0.5559,-0.5593,-0.5661,-0.5783,-0.5443,-0.5174,-0.5378,-0.5399,-0.5242,0.0,0.0,0.0,0.0,0.0,0.0,0.0,0.0,0.0,0.0,0.0,0.0,0.0,0.0,0.0,0.0,0.0,0.0,0.0,0.0,0.0,0.0,0.0,0.0,0.0,0.0,0.0,0.0977,0.0945,0.0,0.0,0.0,0.0,0.0,0.0,0.0,0.0,0.0,0.0,0.0,0.1245,0.1261,0.0,0.0,0.0,0.0,0.0,0.0,0.0,0.0,0.0,0.0,0.0,0.0,0.1201,0.1294,0.155,0.1743,0.1801,0.172,0.1704,0.1703,0.1598,0.1461,0.1292,0.0,0.0,0.0,0.0,0.0,0.0,0.0,0.0,0.0,0.0,0.0,0.0,0.0,0.0,0.0,0.0,0.0,0.0,0.0,0.0,0.0,0.0,0.0,0.0,0.0,-0.2232,0.0,0.0,0.0,0.0,0.0,0.0,0.0,0.0,0.0,0.0,0.0,-0.4351,-0.4817,-0.5172,-0.545,-0.5569,-0.5759,-0.5935,0.0,0.0,0.0,0.0,0.0,0.0,0.0,0.0,0.0,0.0,0.0,0.0,0.0,0.0,-0.5763,-0.4717,-0.4654,-0.4722,-0.4711,0.0,0.0,0.0,0.0,0.0,0.0,0.0,0.0,0.0,0.0,0.0,0.0,0.0,0.0,0.1161,0.0,0.112,0.0,0.0,0.0,0.0,0.0,0.0,0.0,0.0,0.1343,0.1412,0.1414,0.1471,0.1463,0.0,0.1418,0.1282,0.0,0.0,0.0,0.0,0.0,0.0,0.0,0.0,0.1247,0.1337,0.1575,0.1759,0.1816,0.1725,0.1704,0.1702,0.1598,0.1466,0.1349,0.1151,0.1029,0.0,0.0,0.0,0.0,0.0,0.0,0.0,0.0,0.0,0.0,0.0,0.0,0.0,0.0,0.0,0.0,0.0,0.0,0.0,0.0,0.0,0.0,0.0,-0.2435,0.0,0.0,0.0,0.0,0.0,0.0,0.0,0.0,0.0,-0.3836,-0.4338,-0.4833,-0.5272,-0.545,-0.5549,-0.565,0.0,0.0,0.0,0.0,0.0,0.0,0.0,-0.5359,-0.525,-0.5355,-0.5508,-0.5685,-0.6165,-0.6463,-0.645,0.0,0.0,-0.5661,-0.5547,-0.5579,-0.5555,-0.5831,-0.6022,-0.5817,-0.6791,-0.7812,0.0,0.0,0.0,0.0,0.0,0.0,0.0,0.0,0.1317,0.1299,0.0,0.1279,0.0,0.0,0.0,0.0,0.0,0.1331,0.0,0.0,0.1598,0.1671,0.1621,0.162,0.1607,0.1627,0.1624,0.1559,0.1388,0.123,0.0,0.0,0.0,0.0,0.0,0.0,0.1251,0.1395,0.1615,0.1735,0.179,0.1735,0.1703,0.1697,0.156,0.1455,0.1392,0.1277,0.1124,0.1012,0.0922,0.0,0.0,0.0,0.0,0.0,0.0,0.0,0.0,0.0,0.0,0.0,0.0,0.0,0.0,0.0,0.0,0.0,0.0,0.0,0.0,-0.243,0.0,0.0,0.0,0.0,0.0,0.0,0.0,0.0,0.0,0.0,-0.4169,-0.4648,-0.5219,-0.5749,0.0,0.0,0.0,0.0,-0.5939,-0.5677,-0.5735,-0.5786,-0.5661,-0.585,-0.5932,-0.5833,0.0,0.0,-0.634,-0.6356,-0.6312,-0.6103,-0.6708,-0.7044,-0.6783,-0.649,-0.6322,-0.6424,-0.6456,-0.653,-0.674,-0.7582,-0.8477,0.1648,0.0,0.0,0.0,0.0,0.1459,0.152,0.1631,0.159,0.1543,0.1539,0.1462,0.0,0.0,0.0,0.0,0.0,0.0,0.1481,0.1521,0.1604,0.1667,0.1766,0.1733,0.1729,0.1752,0.1752,0.1711,0.1632,0.1502,0.1318,0.1075,0.0,0.0,0.0,0.0,0.1425,0.1533,0.1719,0.181,0.1794,0.1735,0.1684,0.1643,0.1558,0.1494,0.1455,0.1318,0.1224,0.1164,0.1074,0.0,0.0,0.0,0.0,0.0,0.0,0.0,0.0,0.0,0.0,0.0,0.0,0.0,0.0,0.0,0.0,0.0,0.0,0.0,-0.2543,-0.2748,-0.2827,0.0,0.0,0.0,0.0,0.0,0.0,0.0,0.0,0.0,-0.4937,-0.5238,-0.5551,0.0,0.0,-0.58,-0.58,-0.6027,-0.6238,-0.6255,-0.6254,0.0,0.0,-0.6183,-0.6013,-0.6115,-0.6453,-0.6695,-0.6975,-0.7084,-0.7196,-0.7306,-0.7537,-0.7634,-0.7583,-0.7525,-0.7456,-0.7407,-0.7468,-0.7521,-0.7553,-0.828,-0.8998,0.188,0.1714,0.1637,0.1626,0.1658,0.1641,0.1697,0.1858,0.1821,0.173,0.1694,0.1664,0.1585,0.147,0.1422,0.0,0.0,0.0,0.155,0.1694,0.1673,0.1716,0.1822,0.1786,0.1786,0.1823,0.1823,0.1749,0.1714,0.1672,0.1524,0.128,0.0,0.0,0.1224,0.1343,0.1517,0.1607,0.1754,0.182,0.1793,0.1735,0.1676,0.1618,0.1509,0.1517,0.1498,0.1412,0.1287,0.1251,0.1172,0.1062,0.0,0.0,0.0,0.0,0.0,0.0,0.0,0.0,0.0,0.0,0.0,-0.005,0.0,0.0,0.0,0.0,-0.1747,-0.2577,-0.3082,-0.3156,0.0,0.0,0.0,0.0,0.0,0.0,0.0,-0.4019,-0.4667,-0.5126,-0.5291,-0.5513,-0.5803,-0.6225,-0.6162,-0.6067,-0.6067,0.0,-0.6444,-0.6508,-0.6562,-0.6634,-0.6681,-0.6525,-0.6437,-0.6586,-0.6753,-0.6941,-0.7163,-0.7264,-0.7408,-0.7533,-0.7687,-0.7797,-0.788,-0.8002,-0.802,-0.7918,-0.8,-0.8081,-0.8029,-0.8811,-0.9568,0.2057,0.2018,0.1878,0.1817,0.1812,0.1812,0.1845,0.1898,0.1895,0.1894,0.189,0.1858,0.1783,0.1726,0.1612,0.0,0.1649,0.1654,0.1709,0.1816,0.1787,0.1798,0.1799,0.1796,0.1795,0.1795,0.1795,0.1795,0.1791,0.1738,0.1669,0.1635,0.1502,0.1453,0.1398,0.1504,0.1579,0.1717,0.1775,0.1818,0.179,0.1734,0.1676,0.1618,0.1558,0.1476,0.1517,0.1436,0.1363,0.1305,0.1247,0.1149,0.1006,0.0,0.0,0.0,0.0,0.0,0.0,0.0,0.0,0.0,0.0,0.0,0.0,0.0,0.0,0.0,-0.2523,0.0,-0.378,-0.3585,0.0,0.0,0.0,-0.3778,-0.4089,-0.4276,-0.4436,-0.4681,0.0,0.0,-0.5335,-0.5627,-0.605,-0.6649,-0.66,-0.6495,-0.6505,-0.6675,-0.6685,-0.6634,-0.6685,-0.6776,-0.6834,-0.6888,-0.6963,-0.7021,-0.7095,-0.7082,-0.7129,-0.7092,-0.7095,-0.7139,-0.7323,-0.7591,-0.7852,-0.8049,-0.819,-0.808,-0.8199,-0.8312,-0.8351,-0.9017,-0.9904,0.215,0.2117,0.2059,0.2008,0.1966,0.1966,0.1986,0.2017,0.1974,0.1955,0.1952,0.1898,0.1859,0.1831,0.1803,0.1797,0.1812,0.1826,0.184,0.1852,0.1837,0.1772,0.1828,0.1806,0.1795,0.1795,0.1795,0.1795,0.1794,0.1781,0.1751,0.1762,0.1738,0.1606,0.148,0.1577,0.1651,0.1694,0.1785,0.1808,0.1814,0.1723,0.1676,0.1568,0.1509,0.1457,0.1412,0.1414,0.1363,0.1305,0.1266,0.1236,0.1094,0.0946,0.0,0.0,0.0,0.0,0.0,0.0,0.0,0.0,0.0,-0.0204,-0.0551,0.0,-0.0701,0.0,-0.2675,-0.3418,-0.3992,-0.3982,0.0,0.0,-0.4145,-0.4235,-0.4534,-0.4716,-0.4795,-0.4795,-0.5213,-0.558,-0.5571,-0.5975,-0.6427,-0.6872,-0.659,-0.6443,-0.6761,-0.6946,-0.7068,-0.7187,-0.7268,-0.7383,-0.736,-0.7312,-0.7238,-0.7109,-0.7098,-0.7095,-0.7098,-0.7095,-0.7095,-0.7139,-0.7323,-0.7595,-0.7856,-0.8069,-0.8269,-0.8407,-0.8518,-0.8543,-0.8547,-0.8759,-0.8999,0.221,0.2193,0.2162,0.2123,0.2077,0.205,0.2049,0.2125,0.2029,0.2016,0.2075,0.1953,0.1919,0.1905,0.1892,0.1885,0.1885,0.1885,0.1885,0.1885,0.1869,0.186,0.1859,0.1829,0.1815,0.1814,0.1802,0.1795,0.1795,0.1795,0.1787,0.1825,0.1825,0.1766,0.1657,0.1654,0.1688,0.1704,0.1788,0.1804,0.1804,0.172,0.167,0.1599,0.1537,0.1477,0.1417,0.1374,0.133,0.1324,0.1279,0.1188,0.1088,0.1021,0.0942,0.0,0.0,0.0,0.0,0.0,0.0,0.0,0.0,0.0,0.0,0.0,-0.1174,-0.2599,-0.3359,-0.395,-0.4359,-0.4402,-0.4504,-0.4678,-0.4694,-0.479,-0.5026,-0.5222,-0.5289,-0.5273,-0.5663,-0.5869,-0.5871,-0.6119,-0.6411,-0.6861,-0.6674,-0.6688,-0.7125,-0.7295,-0.7377,-0.7465,-0.7546,-0.7597,-0.7597,-0.7529,-0.7444,-0.7366,-0.7301,-0.7343,-0.7343,-0.7343,-0.7326,-0.7261,-0.7337,-0.754,-0.783,-0.7984,-0.816,-0.8476,-0.8616,-0.8616,-0.8616,-0.8616,-0.8784,0.218,0.2178,0.2219,0.2189,0.2224,0.2104,0.2075,0.2128,0.206,0.2058,0.2055,0.2071,0.1971,0.1941,0.1915,0.19,0.1898,0.1897,0.1897,0.1898,0.1894,0.1892,0.189,0.186,0.1787,0.1782,0.1813,0.1799,0.1795,0.1795,0.1793,0.1789,0.1789,0.1774,0.1799,0.1717,0.1704,0.1705,0.1788,0.1804,0.1804,0.1716,0.1658,0.1624,0.156,0.1451,0.1386,0.1331,0.1329,0.1297,0.1244,0.1202,0.1138,0.1061,0.1003,0.0,0.0918,0.0,0.0,0.0,0.0,0.0,0.0,0.0,0.0,-0.1628,-0.2273,-0.3551,-0.4222,-0.4662,-0.4866,-0.4887,-0.4982,-0.5249,-0.5279,-0.5368,-0.5551,-0.5669,-0.5772,-0.5915,-0.6021,-0.6086,-0.6117,-0.6097,-0.6297,-0.6676,-0.678,-0.6966,-0.7459,-0.7584,-0.7621,-0.7648,-0.7658,-0.7685,-0.7648,-0.7631,-0.7617,-0.76,-0.7577,-0.7597,-0.758,-0.7584,-0.755,-0.7434,-0.7446,-0.7535,-0.7875,-0.7938,-0.8103,-0.8488,-0.8616,-0.8616,-0.8616,-0.8616,-0.9174,0.2282,0.2279,0.2249,0.2219,0.219,0.218,0.2132,0.2127,0.2038,0.2027,0.2028,0.2041,0.2031,0.2002,0.1996,0.1981,0.196,0.1959,0.196,0.1958,0.1934,0.1862,0.1921,0.1892,0.1864,0.1784,0.1777,0.1819,0.1795,0.1795,0.1782,0.1814,0.1814,0.1797,0.1714,0.0,0.0,0.0,0.1788,0.1804,0.1802,0.175,0.169,0.1573,0.1512,0.0,0.1318,0.1322,0.1329,0.1298,0.1286,0.0,0.0,0.0,0.0,0.0,0.0,0.0,0.0,0.0,0.0,0.0,0.0491,-0.0369,-0.1976,-0.3335,-0.4101,-0.4033,-0.4655,-0.5151,-0.5348,-0.5373,-0.5467,-0.5735,-0.5765,-0.5825,-0.5966,-0.6002,-0.6029,-0.6048,-0.6072,-0.6089,-0.61,-0.617,-0.6375,-0.6671,-0.6755,-0.7014,-0.7507,-0.7699,-0.7818,-0.7926,-0.7884,-0.7899,-0.7787,-0.777,-0.7736,-0.7638,-0.7597,-0.7607,-0.7614,-0.7611,-0.7604,-0.7556,-0.7556,-0.7648,-0.7996,-0.8057,-0.82,-0.8553,-0.862,-0.8616,-0.8616,-0.8616,-0.8915,0.2311,0.0,0.2281,0.225,0.0,0.2206,0.2157,0.2086,0.2086,0.2078,0.2064,0.2079,0.2069,0.204,0.2025,0.2003,0.1976,0.1961,0.1954,0.1954,0.1939,0.1939,0.1953,0.1922,0.19,0.1884,0.1797,0.1774,0.1817,0.1802,0.1787,0.1828,0.1828,0.1764,0.175,0.1748,0.1742,0.1781,0.1796,0.1812,0.1825,0.1783,0.1721,0.1596,0.0,0.0,0.0,0.0,0.0,0.0,0.0,0.0,0.0,0.0,0.0,0.1234,0.1234,0.12,0.1252,0.1175,0.1114,0.0988,0.0206,-0.0956,-0.2487,-0.4208,-0.516,-0.5014,-0.5333,-0.5616,-0.5793,-0.5814,-0.5863,-0.5977,-0.5991,-0.6021,-0.6081,-0.614,-0.6173,-0.6184,-0.6222,-0.626,-0.626,-0.6309,-0.6448,-0.67,-0.6802,-0.6945,-0.7335,-0.7579,-0.7763,-0.7928,-0.7988,-0.7965,-0.7894,-0.7923,-0.7902,-0.7834,-0.7814,-0.7814,-0.7818,-0.7818,-0.7797,-0.7726,-0.7706,-0.7797,-0.7937,-0.8083,-0.8287,-0.8576,-0.8733,-0.8828,-0.882,-0.8739,-0.8872,0.226,0.2258,0.2307,0.2281,0.2181,0.2227,0.2181,0.2126,0.0,0.0,0.0,0.2115,0.21,0.2135,0.2046,0.2019,0.199,0.196,0.1947,0.1946,0.1941,0.1952,0.1975,0.1951,0.1936,0.1868,0.1821,0.1793,0.1782,0.1815,0.18,0.1795,0.1795,0.1795,0.1795,0.1795,0.1783,0.1814,0.1807,0.1816,0.1785,0.1812,0.1704,0.1626,0.1595,0.1539,0.1409,0.1356,0.1326,0.1319,0.1251,0.1262,0.1327,0.1334,0.1349,0.1333,0.132,0.139,0.1412,0.1414,0.1336,0.1132,-0.0185,-0.1539,-0.2773,-0.4303,-0.533,-0.5601,-0.5655,-0.5797,-0.6105,-0.6116,-0.6127,-0.6143,-0.6149,-0.6149,-0.6157,-0.6281,-0.6347,-0.6309,-0.6372,-0.6387,-0.6376,-0.6379,-0.6489,-0.6692,-0.6689,-0.6842,-0.7138,-0.7434,-0.7683,-0.7939,-0.7988,-0.7988,-0.7985,-0.7982,-0.7988,-0.7968,-0.7971,-0.7988,-0.7988,-0.7988,-0.7938,-0.7875,-0.7851,-0.7887,-0.7956,-0.8106,-0.8367,-0.8617,-0.8897,-0.9045,-0.9072,-0.8869,-0.8977,0.226,0.226,0.2256,0.2311,0.2284,0.2279,0.2243,0.2184,0.2137,0.2113,0.2111,0.2137,0.2131,0.2102,0.2098,0.208,0.205,0.202,0.2006,0.2005,0.1981,0.1973,0.2038,0.1972,0.1956,0.1871,0.1922,0.1832,0.1787,0.1778,0.1821,0.1797,0.1795,0.1795,0.1795,0.1795,0.1793,0.1788,0.1818,0.1807,0.181,0.1726,0.1693,0.1657,0.1627,0.158,0.1468,0.148,0.145,0.138,0.1411,0.1362,0.1366,0.1433,0.1451,0.1457,0.1484,0.1456,0.1506,0.1507,0.1414,0.1136,-0.0048,-0.1391,-0.2756,-0.3142,-0.368,-0.459,-0.4688,-0.5151,-0.6077,-0.6193,-0.623,-0.6311,-0.6333,-0.6385,-0.6374,-0.6344,-0.6407,-0.6404,-0.6376,-0.6387,-0.6387,-0.6387,-0.6437,-0.6437,-0.6489,-0.6637,-0.7086,-0.7441,-0.7693,-0.7942,-0.7988,-0.7988,-0.7988,-0.7988,-0.7988,-0.7988,-0.7988,-0.7988,-0.7988,-0.7988,-0.7975,-0.7958,-0.7941,-0.7989,-0.8108,-0.8176,-0.8361,-0.8592,-0.875,-0.8886,-0.9043,-0.906,-0.9234,0.226,0.226,0.226,0.2253,0.2312,0.2297,0.2275,0.2246,0.2202,0.2164,0.2136,0.2216,0.2214,0.2133,0.2116,0.2092,0.2126,0.2017,0.1996,0.1993,0.1965,0.1961,0.1976,0.2038,0.1969,0.1955,0.1939,0.1917,0.183,0.1799,0.1776,0.1819,0.1803,0.1795,0.1795,0.1795,0.1795,0.1795,0.1782,0.1774,0.1774,0.176,0.174,0.1764,0.1695,0.1669,0.1624,0.1595,0.1622,0.1559,0.1526,0.1509,0.151,0.1522,0.1578,0.1531,0.1558,0.1575,0.1575,0.1575,0.1477,0.1182,0.0651,-0.005,-0.1049,-0.2321,-0.3289,-0.3728,-0.3826,-0.3986,-0.4569,-0.512,-0.549,-0.5529,-0.6034,-0.6387,-0.6387,-0.6387,-0.6387,-0.6387,-0.6387,-0.6387,-0.6387,-0.6387,-0.6387,-0.6387,-0.6387,-0.6537,-0.6942,-0.7241,-0.754,-0.7889,-0.7988,-0.7988,-0.7988,-0.7988,-0.7988,-0.7988,-0.7988,-0.7988,-0.7988,-0.7988,-0.7988,-0.7988,-0.7988,-0.8014,-0.809,-0.8231,-0.8338,-0.8493,-0.8798,-0.8995,-0.914,-0.9216,-0.9361,0.226,0.226,0.226,0.226,0.2258,0.2309,0.2296,0.2288,0.2266,0.2225,0.2178,0.2168,0.2229,0.2219,0.2129,0.2107,0.2144,0.2031,0.2003,0.1993,0.1964,0.196,0.1975,0.2038,0.2038,0.1974,0.1952,0.1938,0.1865,0.1824,0.1795,0.1782,0.181,0.1795,0.1795,0.1795,0.1795,0.1795,0.1795,0.1795,0.1795,0.1795,0.1784,0.1818,0.1815,0.1799,0.1716,0.1746,0.1731,0.1722,0.1627,0.1602,0.1602,0.1601,0.1601,0.1603,0.1623,0.1637,0.1637,0.1637,0.1534,0.133,0.1295,0.1097,0.0522,-0.1184,-0.255,-0.2755,-0.2858,-0.2908,-0.3317,-0.3928,-0.4434,-0.4485,-0.5145,-0.5558,-0.565,-0.5906,-0.6058,-0.6108,-0.6295,-0.643,-0.6422,-0.6453,-0.6387,-0.6387,-0.6387,-0.6489,-0.6742,-0.6989,-0.7338,-0.7739,-0.7942,-0.7988,-0.7988,-0.7988,-0.7988,-0.7988,-0.7988,-0.7988,-0.7988,-0.7988,-0.7988,-0.7988,-0.7988,-0.7985,-0.8038,-0.8131,-0.8319,-0.8396,-0.8693,-0.9008,-0.9148,-0.9311,-0.9336,0.226,0.226,0.226,0.226,0.226,0.2256,0.2314,0.2293,0.2288,0.2268,0.2234,0.2208,0.2181,0.2224,0.2218,0.2146,0.2141,0.2112,0.208,0.2052,0.2024,0.1999,0.2041,0.2038,0.2038,0.1977,0.1973,0.1956,0.1934,0.1864,0.1835,0.1786,0.181,0.1795,0.1795,0.1795,0.1795,0.1795,0.1795,0.1795,0.1795,0.1795,0.1793,0.1791,0.179,0.1776,0.1802,0.1798,0.1783,0.1703,0.1695,0.1691,0.169,0.1691,0.169,0.169,0.1693,0.1697,0.1695,0.1696,0.1694,0.1643,0.1432,0.1275,0.1169,0.0478,-0.0477,-0.143,-0.1748,-0.2112,-0.3065,-0.3271,-0.3317,-0.3367,-0.3579,-0.3487,-0.3742,-0.449,-0.5126,-0.5124,-0.5928,-0.6603,-0.6541,-0.6473,-0.6456,-0.6408,-0.6411,-0.6503,-0.6692,-0.6842,-0.7042,-0.7494,-0.7846,-0.7992,-0.7988,-0.7988,-0.7988,-0.7988,-0.7988,-0.7988,-0.7988,-0.7988,-0.7988,-0.7988,-0.7988,-0.7988,-0.7988,-0.8038,-0.8134,-0.8283,-0.8482,-0.863,-0.9084,-0.9357,-0.9417,0.226,0.226,0.226,0.226,0.226,0.226,0.2253,0.2316,0.2315,0.23,0.2273,0.2259,0.2228,0.2181,0.223,0.2222,0.222,0.2123,0.2104,0.2086,0.2041,0.2012,0.2001,0.1984,0.2038,0.2038,0.2038,0.1971,0.1957,0.194,0.19,0.1788,0.1827,0.1813,0.1796,0.1795,0.1795,0.1795,0.1795,0.1795,0.1795,0.1795,0.1795,0.1795,0.1795,0.179,0.1778,0.1776,0.177,0.1758,0.1795,0.1785,0.1731,0.1714,0.1704,0.1704,0.1704,0.1704,0.1704,0.1704,0.1704,0.1704,0.1614,0.1514,0.1299,0.1092,0.0549,-0.0219,-0.054,-0.0853,-0.1331,-0.1862,-0.2288,-0.234,-0.2816,-0.3186,-0.3238,-0.3613,-0.414,-0.4882,-0.5383,-0.5936,-0.6511,-0.6684,-0.6622,-0.6516,-0.6495,-0.6577,-0.6614,-0.6692,-0.6895,-0.7144,-0.7494,-0.7842,-0.7942,-0.7988,-0.7988,-0.7988,-0.7988,-0.7988,-0.7988,-0.7988,-0.7988,-0.7988,-0.7988,-0.7988,-0.7988,-0.7988,-0.8038,-0.8187,-0.8336,-0.8535,-0.9088,-0.9282,-0.9298,0.226,0.226,0.226,0.226,0.226,0.226,0.226,0.226,0.226,0.2321,0.2303,0.2294,0.2262,0.2213,0.2181,0.223,0.222,0.2131,0.2116,0.2106,0.2063,0.2035,0.2018,0.1999,0.1984,0.2039,0.2038,0.2038,0.1973,0.1946,0.1848,0.1811,0.1791,0.1829,0.1809,0.1801,0.1795,0.1795,0.1795,0.1795,0.1795,0.1795,0.1795,0.1795,0.1795,0.1795,0.1795,0.1795,0.1795,0.1794,0.1774,0.1817,0.1816,0.1741,0.1729,0.1729,0.1729,0.1729,0.1729,0.1729,0.1729,0.1731,0.1751,0.1707,0.1489,0.1336,0.1065,0.0615,0.0274,0.0054,-0.0108,-0.0702,-0.1135,-0.1242,-0.1942,-0.2317,-0.2266,-0.2533,-0.3129,-0.3986,-0.4296,-0.5016,-0.6061,-0.6524,-0.6752,-0.6687,-0.6668,-0.6646,-0.6564,-0.6701,-0.6802,-0.6892,-0.7279,-0.7585,-0.7856,-0.7942,-0.7988,-0.7988,-0.7988,-0.7988,-0.7988,-0.7988,-0.7988,-0.7988,-0.7988,-0.7988,-0.7988,-0.7988,-0.7988,-0.8041,-0.8237,-0.8485,-0.8832,-0.9031,-0.9282,0.226,0.226,0.226,0.226,0.226,0.226,0.226,0.226,0.226,0.2259,0.2252,0.2304,0.2274,0.2171,0.2212,0.2182,0.2224,0.2218,0.2136,0.2113,0.2104,0.2074,0.202,0.2017,0.2002,0.2043,0.2039,0.2038,0.1974,0.1947,0.187,0.1863,0.1813,0.1784,0.1778,0.1812,0.1795,0.1798,0.1796,0.1795,0.1795,0.1795,0.1795,0.1795,0.1795,0.1795,0.1795,0.1795,0.1795,0.1795,0.1792,0.1791,0.1791,0.1789,0.1787,0.1787,0.1788,0.1789,0.1787,0.1785,0.1786,0.1788,0.1787,0.1791,0.1733,0.1512,0.1234,0.0897,0.0615,0.0335,0.0056,-0.0111,0.0,0.0,0.0,0.0,-0.0279,-0.1278,-0.1786,-0.2224,-0.3076,-0.4121,-0.5069,-0.6109,-0.6606,-0.6748,-0.6793,-0.6779,-0.6757,-0.6815,-0.6912,-0.7046,-0.7291,-0.7445,-0.7635,-0.7842,-0.7992,-0.7988,-0.7988,-0.7988,-0.7988,-0.7988,-0.7988,-0.7988,-0.7988,-0.7988,-0.7988,-0.7988,-0.7988,-0.8038,-0.8187,-0.8432,-0.8581,-0.8931,-0.9133,0.226,0.226,0.226,0.226,0.226,0.226,0.226,0.226,0.226,0.226,0.2258,0.2322,0.2302,0.2273,0.2243,0.2202,0.2225,0.2222,0.2216,0.2136,0.2119,0.2097,0.2076,0.2038,0.2014,0.2003,0.1985,0.2038,0.1976,0.1965,0.195,0.1932,0.185,0.1889,0.1868,0.1839,0.1824,0.1822,0.1806,0.1795,0.1795,0.1795,0.1795,0.1795,0.1795,0.1795,0.1795,0.1795,0.1795,0.1795,0.1795,0.1795,0.1795,0.1795,0.1795,0.1795,0.1795,0.1795,0.1795,0.1795,0.1795,0.1795,0.1795,0.1795,0.1795,0.1683,0.1458,0.1177,0.1065,0.0785,0.0336,0.0112,0.0,0.0,0.0,0.0,0.0,-0.0392,-0.0896,-0.1733,-0.2837,-0.398,-0.4833,-0.5656,-0.6181,-0.677,-0.6918,-0.6888,-0.6823,-0.6804,-0.6867,-0.6959,-0.7133,-0.7348,-0.7574,-0.7841,-0.7992,-0.7988,-0.7988,-0.7988,-0.7988,-0.7988,-0.7988,-0.7988,-0.7988,-0.7988,-0.7988,-0.7988,-0.7988,-0.8038,-0.8137,-0.8233,-0.8382,-0.8634,-0.8779,0.226,0.226,0.226,0.226,0.226,0.226,0.226,0.226,0.226,0.226,0.226,0.226,0.2318,0.2291,0.227,0.2227,0.2172,0.2227,0.2222,0.2221,0.2133,0.2119,0.2104,0.2067,0.2037,0.2017,0.199,0.2038,0.2038,0.2038,0.1966,0.1947,0.1876,0.1922,0.1898,0.187,0.1851,0.1781,0.182,0.1806,0.1797,0.1795,0.1795,0.1795,0.1795,0.1795,0.1795,0.1795,0.1795,0.1795,0.1795,0.1795,0.1795,0.1795,0.1795,0.1795,0.1795,0.1795,0.1795,0.1795,0.1795,0.1795,0.1795,0.1795,0.1795,0.1795,0.1627,0.1402,0.129,0.1065,0.0673,0.028,0.0112,0.0,0.0,0.0,0.0,0.0,0.0,-0.112,-0.2182,-0.33,-0.414,-0.492,-0.5671,-0.6441,-0.6767,-0.6999,-0.6937,-0.6918,-0.6915,-0.6966,-0.7152,-0.7343,-0.7563,-0.7794,-0.8042,-0.8066,-0.8015,-0.8005,-0.8002,-0.7998,-0.7988,-0.7988,-0.7988,-0.7988,-0.7988,-0.7988,-0.7988,-0.7988,-0.8038,-0.8088,-0.8233,-0.8333,-0.8482,0.226,0.226,0.226,0.226,0.226,0.226,0.226,0.226,0.226,0.226,0.226,0.226,0.2318,0.2296,0.2289,0.2256,0.2208,0.2174,0.2225,0.2221,0.222,0.2138,0.2113,0.2104,0.2072,0.2024,0.1992,0.2041,0.2043,0.2041,0.1975,0.197,0.1947,0.1935,0.1871,0.1901,0.1872,0.1795,0.1787,0.1828,0.18,0.18,0.18,0.1798,0.1797,0.1795,0.1795,0.1795,0.1795,0.1795,0.1795,0.1795,0.1795,0.1795,0.1795,0.1795,0.1795,0.1795,0.1795,0.1795,0.1795,0.1795,0.1795,0.1795,0.1795,0.1795,0.1683,0.1458,0.1346,0.1177,0.0953,0.0617,0.0336,0.0,0.0,0.0,0.0,0.0,0.0,0.0,-0.112,-0.1735,-0.2351,-0.3636,-0.497,-0.5635,-0.6354,-0.7014,-0.71,-0.715,-0.7188,-0.7169,-0.7264,-0.7362,-0.7529,-0.7733,-0.7968,-0.8206,-0.8116,-0.8085,-0.8085,-0.8029,-0.7995,-0.7988,-0.7988,-0.7988,-0.7988,-0.7988,-0.7988,-0.7988,-0.7988,-0.7988,-0.8088,-0.8184,-0.8283,0.226,0.226,0.226,0.226,0.226,0.226,0.226,0.226,0.226,0.226,0.226,0.226,0.2255,0.2316,0.23,0.2281,0.2259,0.2211,0.2175,0.2225,0.2223,0.2217,0.2138,0.2119,0.2089,0.2051,0.202,0.2005,0.2001,0.1986,0.2038,0.1974,0.1967,0.1962,0.196,0.1932,0.1851,0.1843,0.1882,0.1866,0.1856,0.1836,0.1826,0.1824,0.1806,0.1795,0.1795,0.1795,0.1795,0.1795,0.1795,0.1795,0.1795,0.1795,0.1795,0.1795,0.1795,0.1795,0.1795,0.1795,0.1795,0.1795,0.1795,0.1795,0.1795,0.1795,0.1739,0.1627,0.1627,0.1514,0.1234,0.1121,0.0785,0.0336,0.0,0.0,0.0,0.0,0.0,0.0,-0.0336,-0.0896,-0.1624,-0.2797,-0.3636,-0.5035,-0.5704,-0.6204,-0.693,-0.7154,-0.721,-0.7202,-0.7271,-0.7304,-0.748,-0.7594,-0.7826,-0.8069,-0.8078,-0.812,-0.815,-0.8119,-0.8029,-0.7988,-0.7988,-0.7988,-0.7988,-0.7988,-0.7988,-0.7988,-0.7988,-0.7988,-0.8038,-0.8088,-0.8187,0.2406,0.2479,0.2333,0.2406,0.2479,0.2406,0.226,0.226,0.226,0.226,0.226,0.226,0.226,0.2256,0.2313,0.23,0.2286,0.2238,0.22,0.2172,0.2225,0.2223,0.2218,0.2123,0.2101,0.2079,0.205,0.2029,0.2018,0.2001,0.1987,0.2041,0.2038,0.2038,0.1975,0.1958,0.1944,0.1871,0.1912,0.1897,0.1884,0.1867,0.1851,0.1782,0.1821,0.1806,0.1797,0.1795,0.1795,0.1795,0.1795,0.1795,0.1795,0.1795,0.1795,0.1795,0.1795,0.1795,0.1795,0.1795,0.1795,0.1795,0.1795,0.1795,0.1795,0.1795,0.1795,0.1795,0.1795,0.1739,0.1514,0.1346,0.1121,0.0785,0.0392,0.0112,0.0,0.0,0.0,0.0,0.0,0.0,-0.0896,-0.168,-0.2295,-0.386,-0.4868,-0.5539,-0.6429,-0.6932,-0.7043,-0.721,-0.7199,-0.7301,-0.7421,-0.7546,-0.7661,-0.7869,-0.8058,-0.8153,-0.8197,-0.8201,-0.8153,-0.8015,-0.7988,-0.7988,-0.7988,-0.7988,-0.7988,-0.7988,-0.7988,-0.7988,-0.7988,-0.7988,-0.8088,0.2552,0.2844,0.2479,0.2552,0.2844,0.2552,0.2479,0.2406,0.2406,0.2406,0.2333,0.2406,0.2333,0.2333,0.2256,0.2317,0.2292,0.2263,0.2232,0.2201,0.2176,0.2228,0.2218,0.2129,0.2116,0.2108,0.208,0.2054,0.2034,0.202,0.2005,0.1984,0.2041,0.2038,0.1976,0.1976,0.1961,0.1941,0.1934,0.192,0.1897,0.1889,0.1877,0.1794,0.1845,0.1832,0.1813,0.1805,0.1799,0.1795,0.1795,0.1795,0.1795,0.1795,0.1795,0.1795,0.1795,0.1795,0.1795,0.1795,0.1795,0.1795,0.1795,0.1795,0.1795,0.1795,0.1795,0.1795,0.1795,0.1795,0.1739,0.157,0.1346,0.1234,0.0673,0.028,0.0,0.0,0.0,0.0,0.0,0.0,0.0,-0.1009,-0.1567,-0.2295,-0.3749,-0.4698,-0.565,-0.6318,-0.693,-0.7154,-0.721,-0.721,-0.7318,-0.7368,-0.7488,-0.7725,-0.7888,-0.8033,-0.8215,-0.8241,-0.818,-0.8042,-0.7988,-0.7988,-0.7988,-0.7988,-0.7988,-0.7988,-0.7988,-0.7988,-0.7988,-0.7988,-0.7988,0.2552,0.2844,0.277,0.299,0.3282,0.3209,0.3209,0.3209,0.3209,0.299,0.277,0.277,0.2552,0.2333,0.226,0.2255,0.2314,0.229,0.2262,0.2232,0.2202,0.2175,0.2225,0.2214,0.2142,0.2137,0.2111,0.2093,0.2082,0.2043,0.2017,0.2007,0.1987,0.2039,0.2038,0.2038,0.1973,0.1966,0.1964,0.196,0.1949,0.1928,0.1916,0.1848,0.1885,0.187,0.1859,0.184,0.1817,0.1797,0.1795,0.1795,0.1795,0.1795,0.1795,0.1795,0.1795,0.1795,0.1795,0.1795,0.1795,0.1795,0.1795,0.1795,0.1795,0.1795,0.1795,0.1795,0.1795,0.1795,0.1795,0.1739,0.157,0.129,0.0785,0.0336,0.0,0.0,0.0,0.0,0.0,0.0,0.0,0.0,0.0,-0.1624,-0.2463,-0.3469,-0.4585,-0.5425,-0.5982,-0.6874,-0.7154,-0.721,-0.721,-0.7265,-0.7371,-0.7534,-0.7755,-0.7913,-0.8099,-0.8245,-0.8187,-0.8029,-0.7998,-0.7988,-0.7988,-0.7988,-0.7988,-0.7988,-0.7988,-0.7988,-0.7988,-0.7988,-0.7988,0.2625,0.3136,0.299,0.3209,0.3717,0.3573,0.3501,0.3501,0.3501,0.3355,0.3136,0.299,0.277,0.2552,0.2406,0.226,0.2256,0.2303,0.2274,0.2241,0.2336,0.2374,0.2225,0.2222,0.2222,0.2221,0.2137,0.2122,0.2106,0.2072,0.2046,0.2019,0.2002,0.1989,0.2038,0.2038,0.2038,0.2038,0.2038,0.2038,0.1975,0.196,0.1943,0.1872,0.1912,0.1901,0.1885,0.1868,0.1845,0.1819,0.1803,0.1795,0.1795,0.1795,0.1795,0.1795,0.1795,0.1795,0.1795,0.1795,0.1795,0.1795,0.1795,0.1795,0.1795,0.1795,0.1795,0.1795,0.1795,0.1795,0.1795,0.1795,0.1627,0.1346,0.0897,0.0504,0.0168,0.0,0.0,0.0,0.0,0.0,0.0,0.0,0.0,-0.0896,-0.1512,-0.2519,-0.3467,-0.4195,-0.5089,-0.6093,-0.6707,-0.6707,-0.7043,-0.721,-0.7213,-0.7435,-0.7595,-0.772,-0.7967,-0.819,-0.8168,-0.8062,-0.8042,-0.7995,-0.8005,-0.8005,-0.7988,-0.7988,-0.7988,-0.7988,-0.7988,-0.7988,-0.7988,0.2844,0.35,0.3208,0.3499,0.408,0.379,0.372,0.3647,0.372,0.3646,0.35,0.3209,0.3062,0.2917,0.2625,0.2333,0.2405,0.231,0.2277,0.2379,0.2538,0.2569,0.2425,0.2357,0.229,0.2222,0.2222,0.2206,0.212,0.211,0.208,0.2043,0.2026,0.2005,0.1988,0.2042,0.2038,0.2038,0.2038,0.2038,0.2038,0.1972,0.1961,0.1944,0.1939,0.1926,0.1908,0.1892,0.1879,0.1793,0.1818,0.1804,0.1801,0.18,0.1795,0.1795,0.1795,0.1795,0.1795,0.1795,0.1795,0.1795,0.1795,0.1795,0.1795,0.1795,0.1795,0.1795,0.1795,0.1795,0.1795,0.1795,0.1683,0.1402,0.1121,0.0841,0.0504,0.0,0.0,0.0,0.0,0.0,0.0,0.0,0.0,0.0,-0.0953,-0.1624,-0.2406,-0.3076,-0.4195,-0.5536,-0.5871,-0.6038,-0.6596,-0.721,-0.721,-0.7268,-0.7435,-0.7569,-0.7916,-0.8068,-0.8108,-0.8077,-0.8106,-0.8093,-0.8106,-0.8042,-0.8015,-0.7988,-0.7988,-0.7988,-0.7988,-0.7988,-0.7988,0.35,0.3935,0.3862,0.4153,0.4519,0.4445,0.4445,0.4447,0.4447,0.4227,0.4007,0.3862,0.3645,0.3355,0.299,0.277,0.2698,0.2538,0.2439,0.2662,0.2692,0.2856,0.2835,0.2695,0.2492,0.229,0.2222,0.2218,0.2208,0.2121,0.2104,0.2086,0.2044,0.2016,0.2009,0.199,0.2039,0.2038,0.2038,0.2038,0.2038,0.2038,0.1973,0.1964,0.1964,0.1963,0.1954,0.1934,0.1918,0.19,0.1805,0.1834,0.1828,0.1811,0.1802,0.1802,0.18,0.1797,0.1795,0.1797,0.1795,0.1795,0.1795,0.1795,0.1795,0.1795,0.1795,0.1795,0.1795,0.1795,0.1795,0.1795,0.1739,0.1627,0.1402,0.1177,0.1009,0.0448,0.0,0.0,0.0,0.0,0.0,0.0,0.0,0.0,0.0,0.0,0.0,0.0,-0.3076,-0.4418,-0.5089,-0.5367,-0.6318,-0.6932,-0.721,-0.721,-0.7324,-0.7376,-0.7673,-0.7985,-0.8049,-0.8125,-0.8165,-0.816,-0.8167,-0.8136,-0.8062,-0.8029,-0.7998,-0.8002,-0.8008,-0.8002,-0.7988,0.3718,0.408,0.408,0.43,0.4665,0.4665,0.4665,0.4665,0.4665,0.4592,0.4373,0.4226,0.3935,0.379,0.3354,0.3209,0.313,0.2969,0.2941,0.3105,0.3195,0.3285,0.3262,0.324,0.3029,0.2692,0.2492,0.2425,0.2418,0.2272,0.2123,0.2109,0.2075,0.2056,0.2037,0.2011,0.1999,0.1994,0.2044,0.2038,0.2038,0.2038,0.2038,0.2038,0.2038,0.2038,0.2034,0.1962,0.1954,0.1941,0.1908,0.1817,0.1863,0.1847,0.1838,0.1838,0.1838,0.1828,0.1822,0.1815,0.181,0.1797,0.1795,0.1795,0.1795,0.1795,0.1795,0.1795,0.1795,0.1795,0.1795,0.1795,0.1795,0.1739,0.1514,0.1346,0.1177,0.0617,0.0168,0.0168,0.0,0.0,0.0,0.0,0.0,0.0,0.0,0.0,0.0,0.0,0.0,-0.291,-0.3971,-0.4866,-0.5926,-0.6652,-0.7154,-0.721,-0.721,-0.7268,-0.7401,-0.7679,-0.7949,-0.8031,-0.8108,-0.8248,-0.8247,-0.8211,-0.8147,-0.818,-0.816,-0.8116,-0.8029,-0.8019,-0.8002,0.3863,0.4153,0.4153,0.4373,0.4665,0.4665,0.4665,0.4665,0.4665,0.4665,0.4665,0.43,0.4227,0.4081,0.379,0.3574,0.3492,0.3469,0.3445,0.356,0.3699,0.3723,0.3627,0.3726,0.3701,0.3363,0.2961,0.2828,0.2694,0.249,0.234,0.2185,0.2109,0.2091,0.2067,0.2041,0.2021,0.2013,0.1996,0.2044,0.204,0.2038,0.2038,0.2038,0.2038,0.2038,0.2038,0.2036,0.2036,0.1975,0.1952,0.1927,0.1906,0.1887,0.1885,0.1883,0.1878,0.1867,0.1851,0.1846,0.1836,0.181,0.181,0.1807,0.1806,0.1805,0.1802,0.1796,0.1795,0.1795,0.1795,0.1795,0.1795,0.1739,0.1514,0.1402,0.129,0.0897,0.0617,0.0336,0.0,0.0,0.0,0.0,0.0,0.0,0.0,0.0,0.0,0.0,0.0,-0.1791,-0.2909,-0.3804,-0.4864,-0.5929,-0.6485,-0.6765,-0.6821,-0.7043,-0.7099,-0.7404,-0.7682,-0.7946,-0.8056,-0.8196,-0.8282,-0.8216,-0.8212,-0.8275,-0.8296,-0.8272,-0.8197,-0.8099,-0.8042,0.4519,0.4592,0.4592,0.4665,0.4665,0.4665,0.4665,0.4665,0.4665,0.4665,0.4665,0.4665,0.4592,0.4445,0.4154,0.3864,0.3642,0.3629,0.3684,0.3863,0.4007,0.3961,0.4125,0.4135,0.4106,0.3969,0.3498,0.3162,0.3028,0.2826,0.262,0.2543,0.2322,0.2171,0.2161,0.2071,0.2109,0.2094,0.2014,0.1999,0.1985,0.204,0.2038,0.2038,0.2038,0.2038,0.2038,0.2038,0.2038,0.2038,0.1971,0.1965,0.1949,0.1914,0.1895,0.1894,0.1895,0.1892,0.1881,0.1877,0.1877,0.1872,0.1864,0.1853,0.184,0.1832,0.1822,0.1804,0.1797,0.1795,0.1795,0.1795,0.1795,0.1795,0.1739,0.1683,0.1627,0.1346,0.0897,0.0617,0.0,0.0,0.0,0.0,0.0,0.0,0.0,0.0,0.0,0.0,0.0,-0.1288,-0.1959,-0.2798,-0.3692,-0.481,-0.5594,-0.5873,-0.6151,-0.6652,-0.6818,-0.7099,-0.7395,-0.7344,-0.768,-0.7999,-0.81,-0.8212,-0.8263,-0.8315,-0.8399,-0.8435,-0.8347,-0.8258,-0.8235,0.4665,0.4665,0.4665,0.4665,0.4665,0.4665,0.4665,0.4665,0.4665,0.4665,0.4665,0.4665,0.4665,0.4665,0.4519,0.4301,0.4155,0.4083,0.4212,0.4319,0.4247,0.4265,0.4428,0.4353,0.4315,0.4239,0.3902,0.3632,0.3497,0.3162,0.2895,0.269,0.2605,0.2598,0.2392,0.2366,0.2342,0.2255,0.21,0.2014,0.1997,0.1987,0.204,0.2039,0.2039,0.2038,0.2038,0.2038,0.2038,0.2038,0.2038,0.2038,0.2029,0.1954,0.1932,0.193,0.193,0.1924,0.1913,0.1909,0.1902,0.1886,0.1887,0.188,0.1868,0.1862,0.1849,0.1825,0.18,0.1795,0.1795,0.1795,0.1795,0.1795,0.1795,0.1795,0.1739,0.1458,0.1177,0.0841,0.0,0.0,0.0,0.0,0.0,0.0,0.0,0.0,0.0,0.0,0.0,-0.0728,-0.1344,-0.2127,-0.2854,-0.3692,-0.4419,-0.4754,-0.5314,-0.5815,-0.6149,-0.626,-0.6318,-0.6357,-0.6872,-0.7489,-0.8044,-0.8227,-0.8262,-0.8408,-0.8501,-0.8577,-0.8496,-0.8431,-0.8401,0.4665,0.4665,0.4665,0.4665,0.4665,0.4665,0.4665,0.4665,0.4665,0.4665,0.4665,0.4665,0.4665,0.4665,0.4665,0.4665,0.4665,0.4665,0.4662,0.4639,0.4557,0.45,0.4454,0.4388,0.4323,0.4307,0.4239,0.4171,0.3901,0.3498,0.3163,0.3095,0.3161,0.3094,0.2816,0.2727,0.2715,0.2488,0.2326,0.21,0.2022,0.2001,0.1985,0.2045,0.2041,0.2038,0.2038,0.2038,0.2038,0.2038,0.2038,0.2038,0.2038,0.2038,0.2038,0.2038,0.2038,0.1962,0.1949,0.1941,0.1932,0.1917,0.1907,0.1902,0.1892,0.1886,0.1874,0.1849,0.1823,0.1807,0.1808,0.1799,0.1795,0.1795,0.1795,0.1795,0.1739,0.157,0.1402,0.1121,0.0785,0.0,0.0,0.0,0.0,0.0,0.0,0.0,0.0,0.0,0.0,0.0,-0.0784,-0.1512,-0.2183,-0.263,-0.3134,-0.3357,-0.4083,-0.481,-0.4975,-0.5142,-0.52,-0.5258,-0.6146,-0.684,-0.7534,-0.8149,-0.8288,-0.8391,-0.8601,-0.8683,-0.8686,-0.8604,-0.854,0.4665,0.4665,0.4665,0.4665,0.4665,0.4665,0.4665,0.4665,0.4665,0.4665,0.4665,0.4665,0.4665,0.4665,0.4665,0.4665,0.4665,0.4665,0.4665,0.4651,0.4589,0.4529,0.4484,0.4422,0.436,0.433,0.4315,0.4307,0.4104,0.3834,0.3699,0.3565,0.3363,0.3161,0.316,0.3151,0.2935,0.2708,0.256,0.2343,0.2121,0.2027,0.2016,0.2008,0.1993,0.2043,0.2043,0.2041,0.2038,0.2038,0.2038,0.2038,0.2038,0.2038,0.2038,0.2038,0.1977,0.1975,0.1969,0.1967,0.1965,0.2016,0.2019,0.1949,0.193,0.1903,0.1888,0.1882,0.1853,0.1776,0.1826,0.181,0.18,0.1795,0.1795,0.1795,0.1795,0.1739,0.157,0.1458,0.1177,0.0841,0.0,0.0,0.0,0.0,0.0,0.0,0.0,0.0,0.0,0.0,0.0,0.0,-0.1176,-0.1736,0.0,0.0,-0.2854,-0.3636,-0.358,-0.3635,-0.3914,-0.425,-0.5144,-0.5984,-0.6538,-0.7202,-0.7919,-0.8342,-0.8523,-0.8708,-0.8903,-0.8804,-0.8682,0.4665,0.4665,0.4665,0.4665,0.4665,0.4665,0.4665,0.4665,0.4665,0.4665,0.4665,0.4665,0.4665,0.4665,0.4665,0.4665,0.4665,0.4665,0.4665,0.4654,0.4606,0.4559,0.4527,0.4474,0.4416,0.4372,0.4354,0.4335,0.4254,0.4172,0.4037,0.3834,0.3834,0.3767,0.3564,0.3564,0.342,0.3198,0.2844,0.2421,0.2198,0.2052,0.2044,0.2043,0.2016,0.2003,0.1996,0.2045,0.204,0.2038,0.2038,0.2038,0.2038,0.2038,0.2038,0.2038,0.2038,0.2038,0.2038,0.2038,0.2038,0.2038,0.2038,0.1968,0.1952,0.193,0.1911,0.1911,0.1883,0.1862,0.1788,0.1829,0.1812,0.1802,0.1795,0.1795,0.1795,0.1795,0.1739,0.1627,0.1514,0.1234,0.0953,0.0785,0.0561,0.0,0.0,0.0,0.0,0.0,0.0,0.0,0.0,0.0,0.0,0.0,0.0,0.0,-0.1792,-0.2295,-0.2016,-0.2071,-0.2574,-0.3078,-0.3748,-0.4585,-0.5423,-0.6594,-0.7593,-0.8039,-0.8429,-0.8657,-0.8823,-0.8923,-0.8821,0.4665,0.4665,0.4665,0.4665,0.4665,0.4665,0.4665,0.4665,0.4665,0.4665,0.4665,0.4665,0.4665,0.4665,0.4665,0.4665,0.4665,0.4665,0.4665,0.4647,0.4621,0.459,0.456,0.4516,0.4474,0.4417,0.4395,0.4373,0.4342,0.425,0.4171,0.3969,0.4104,0.4104,0.3969,0.3902,0.383,0.3625,0.3,0.2576,0.2289,0.2146,0.2141,0.2066,0.2048,0.2026,0.2016,0.2001,0.1989,0.2038,0.2038,0.2038,0.2038,0.2038,0.2038,0.2038,0.2038,0.2038,0.2038,0.2038,0.2038,0.2038,0.2038,0.1975,0.1973,0.1954,0.1943,0.1943,0.1914,0.1884,0.1801,0.1846,0.1822,0.1806,0.1795,0.1795,0.1795,0.1795,0.1795,0.1739,0.1683,0.1627,0.1402,0.1234,0.0953,0.0504,0.0,0.028,0.0,0.0,0.0,0.0,0.0,0.0,0.0,0.0,0.0,0.0,0.0,0.0,0.0,0.0,-0.1623,-0.2127,-0.2519,-0.3022,-0.3691,-0.5532,-0.721,-0.7374,-0.7651,-0.8374,-0.8709,-0.8823,-0.893,0.4665,0.4665,0.4665,0.4665,0.4665,0.4665,0.4665,0.4665,0.4665,0.4665,0.4665,0.4665,0.4665,0.4665,0.4665,0.4665,0.4665,0.4665,0.4665,0.4664,0.4727,0.4623,0.4594,0.4567,0.4536,0.4476,0.4436,0.4406,0.4375,0.4324,0.4312,0.4239,0.4239,0.4239,0.4239,0.4171,0.4037,0.3768,0.3152,0.2817,0.2599,0.2385,0.2172,0.2166,0.2142,0.2112,0.2022,0.2078,0.2066,0.2107,0.2041,0.2038,0.2038,0.2038,0.2038,0.2038,0.2038,0.2038,0.2038,0.2038,0.2038,0.2038,0.2038,0.2038,0.1976,0.2038,0.1973,0.1967,0.1941,0.1915,0.1886,0.1859,0.1842,0.1815,0.1805,0.18,0.1798,0.1795,0.1795,0.1795,0.1795,0.1739,0.1739,0.1514,0.1234,0.0785,0.0392,0.0336,0.0168,0.0,0.0,0.0,0.0,0.0,0.0,0.0,0.0,0.0,0.0,0.0,0.0,0.0,0.0,-0.1009,-0.1344,-0.168,-0.2183,-0.3857,-0.5308,-0.6144,-0.6869,-0.7648,-0.8429,-0.8768,-0.8881,0.4665,0.4665,0.4665,0.4665,0.4665,0.4665,0.4665,0.4665,0.4665,0.4665,0.4665,0.4665,0.4665,0.4665,0.4665,0.4665,0.4665,0.4665,0.4665,0.4665,0.466,0.4723,0.4631,0.4617,0.4597,0.4537,0.448,0.4425,0.4391,0.4343,0.4315,0.4307,0.4307,0.4307,0.4307,0.4307,0.4104,0.3835,0.3499,0.3297,0.2958,0.2684,0.2537,0.2733,0.2503,0.2611,0.2655,0.2482,0.2396,0.2315,0.2112,0.2043,0.2041,0.204,0.2038,0.2038,0.2038,0.2038,0.2038,0.2038,0.2038,0.2038,0.2038,0.2038,0.2038,0.2038,0.2038,0.1972,0.1966,0.1942,0.1916,0.1842,0.1825,0.1842,0.1818,0.181,0.1804,0.18,0.1795,0.1795,0.1795,0.1795,0.1795,0.1795,0.1458,0.1065,0.0729,0.0392,0.0224,0.0112,0.0,0.0,0.0,0.0,0.0,0.0,0.0,0.0,0.0,0.0,0.0,0.0,0.0,0.0,0.0,0.0,0.0,0.0,-0.3465,-0.4524,-0.5808,-0.7035,-0.7817,-0.8488,-0.8712,0.5388,0.5462,0.5894,0.5533,0.4738,0.4665,0.4665,0.4665,0.4665,0.4665,0.4665,0.4665,0.4665,0.4665,0.4665,0.4665,0.4665,0.4665,0.4665,0.4665,0.4665,0.4665,0.4665,0.4729,0.4707,0.459,0.4538,0.4484,0.4428,0.4364,0.433,0.4313,0.4307,0.4307,0.4307,0.4307,0.4171,0.3969,0.3767,0.3699,0.3363,0.3027,0.2892,0.309,0.2929,0.2909,0.3019,0.2912,0.2688,0.2536,0.2324,0.2118,0.2048,0.2044,0.204,0.2038,0.2038,0.2038,0.2038,0.2038,0.2038,0.2038,0.2038,0.2038,0.2038,0.2038,0.2038,0.2038,0.1974,0.1964,0.1876,0.1862,0.1904,0.1863,0.178,0.1827,0.1814,0.1807,0.18,0.1795,0.1795,0.1795,0.1795,0.1795,0.157,0.1234,0.0897,0.0561,0.0336,0.0224,0.0,0.0,0.0,0.0,0.0,0.0,0.0,0.0,0.0,0.0,0.0,0.0,0.0,0.0,0.0,0.0,0.0,0.0,0.0,-0.3074,-0.4411,-0.5806,-0.6922,-0.7648,-0.8263,0.698,0.7125,0.8497,0.7412,0.5098,0.4809,0.4882,0.5245,0.51,0.51,0.5245,0.51,0.5098,0.51,0.5317,0.51,0.4955,0.481,0.4665,0.4665,0.4665,0.4665,0.4665,0.4735,0.4731,0.4647,0.459,0.4525,0.4471,0.4407,0.4361,0.432,0.4307,0.4307,0.4307,0.4307,0.4307,0.4239,0.3969,0.3834,0.3699,0.3431,0.3296,0.336,0.3288,0.3268,0.3376,0.3285,0.3055,0.2707,0.2607,0.2334,0.2073,0.1992,0.2044,0.2038,0.2038,0.2038,0.2038,0.2038,0.2038,0.2038,0.2038,0.2038,0.2038,0.2038,0.2038,0.2038,0.2038,0.1963,0.1945,0.1871,0.1914,0.1893,0.1809,0.1787,0.1832,0.1817,0.1811,0.1797,0.1795,0.1795,0.1795,0.1739,0.1627,0.1402,0.1065,0.0841,0.0561,0.0448,0.0336,0.0,0.0,0.0,0.0,0.0,0.0,0.0,0.0,0.0,0.0,0.0,0.0,0.0,0.0,0.0,0.0,0.0,0.0,-0.1958,-0.3129,-0.4467,-0.5637,-0.6586,-0.7035,0.8567,0.8567,0.9072,0.8714,0.7774,0.7772,0.7702,0.7774,0.7774,0.7702,0.7774,0.7772,0.7774,0.7485,0.6618,0.6183,0.6039,0.4883,0.4665,0.481,0.4955,0.4665,0.4738,0.4883,0.4738,0.4647,0.4602,0.4546,0.4478,0.4431,0.4369,0.4322,0.4307,0.4307,0.4307,0.4307,0.4307,0.4307,0.4171,0.4104,0.4104,0.3767,0.3699,0.3834,0.3699,0.3689,0.3805,0.3647,0.3356,0.3007,0.2839,0.2489,0.2153,0.2067,0.2057,0.2045,0.2038,0.2038,0.2038,0.2038,0.2038,0.2038,0.2038,0.2038,0.2038,0.2038,0.2038,0.2038,0.2038,0.1968,0.1964,0.1962,0.1948,0.1925,0.1841,0.1815,0.1798,0.1781,0.1825,0.1804,0.1795,0.1795,0.1795,0.1795,0.1683,0.157,0.1346,0.1177,0.1009,0.0785,0.0673,0.0448,0.0,0.0,0.0,0.0,0.0,0.0,0.0,0.0,0.0,0.0,0.0,0.0,0.0,0.0,0.0,0.0,0.0,-0.0896,-0.2014,-0.3129,-0.4355,-0.497,-0.525,1.0078,1.0152,1.0656,1.0875,1.0731,0.9793,0.9291,0.9291,0.9291,0.9291,0.9219,0.9291,0.9219,0.8928,0.835,0.7772,0.7702,0.6908,0.633,0.6257,0.6328,0.6185,0.5823,0.5462,0.5245,0.494,0.4695,0.457,0.4485,0.4447,0.4386,0.4327,0.4307,0.4307,0.4441,0.4708,0.5108,0.5175,0.5175,0.4774,0.444,0.4104,0.4104,0.4171,0.4104,0.4034,0.416,0.4006,0.3715,0.3437,0.3078,0.2776,0.249,0.2275,0.2194,0.2172,0.2038,0.2038,0.2038,0.2038,0.2038,0.2038,0.2038,0.2038,0.2038,0.2038,0.2038,0.2038,0.2038,0.1976,0.1976,0.2038,0.1968,0.1945,0.1927,0.19,0.1874,0.1856,0.1829,0.1809,0.1795,0.1795,0.1795,0.1795,0.1739,0.1683,0.157,0.1458,0.1346,0.1177,0.0953,0.0673,0.0504,0.0336,0.0168,0.0,0.0,0.0,0.0,0.0,0.0,0.0,0.0,0.0,0.0,0.0,0.0,0.0,0.0,0.0,-0.0784,-0.1902,-0.3018,-0.3465,-0.3688,1.1657,1.1876,1.325,1.3757,1.3325,1.0871,0.9723,0.9579,0.9579,0.9651,0.9576,0.9867,1.0011,0.9723,0.9435,0.936,0.9216,0.9072,0.8786,0.8858,0.8497,0.7919,0.734,0.698,0.6547,0.5533,0.5002,0.5228,0.4702,0.4437,0.438,0.4465,0.4442,0.4708,0.5176,0.591,0.6309,0.6109,0.6309,0.5977,0.551,0.4975,0.5108,0.5109,0.4908,0.4708,0.4637,0.4361,0.4093,0.3811,0.365,0.3406,0.3101,0.2802,0.2634,0.2417,0.2161,0.2099,0.2038,0.2038,0.2038,0.2038,0.2038,0.2038,0.2038,0.2038,0.2038,0.2038,0.2038,0.2038,0.2038,0.2038,0.2038,0.1961,0.1948,0.1922,0.1892,0.1866,0.1835,0.1814,0.18,0.1795,0.1795,0.1795,0.1795,0.1795,0.1683,0.1627,0.1514,0.1458,0.1234,0.0953,0.0729,0.0504,0.0392,0.0224,0.0,0.0,0.0,0.0,0.0,0.0,0.0,0.0,0.0,0.0,0.0,0.0,0.0,0.0,0.0,-0.0728,-0.1847,-0.1957,-0.2292,1.325,1.3321,1.3682,1.39,1.3757,1.2964,1.2606,1.2602,1.2602,1.2602,1.2602,1.2602,1.2241,1.2531,1.1446,1.1012,1.0509,0.9937,0.9363,0.9435,0.9795,0.9147,0.8783,0.8567,0.828,0.763,0.6956,0.6245,0.5876,0.5243,0.5242,0.5649,0.5109,0.5644,0.6711,0.7707,0.7307,0.7107,0.7576,0.7443,0.7243,0.6976,0.7042,0.6842,0.6109,0.591,0.5709,0.4975,0.4505,0.3961,0.3886,0.3586,0.3214,0.3037,0.286,0.2538,0.2406,0.2283,0.2099,0.2221,0.2283,0.2099,0.2038,0.2038,0.2038,0.2038,0.2038,0.2038,0.2038,0.2038,0.2038,0.2038,0.2038,0.197,0.1958,0.1942,0.1913,0.1883,0.1852,0.1818,0.1804,0.1795,0.1795,0.1795,0.1795,0.1795,0.1795,0.1683,0.1683,0.1627,0.1514,0.1234,0.1009,0.0841,0.0673,0.0504,0.0392,0.0,0.0,0.0,0.0,0.0,0.0,0.0,0.0,0.0,0.0,0.0,0.0,0.0,0.0,0.0,0.0,0.0,0.0,1.39,1.39,1.39,1.39,1.39,1.39,1.39,1.39,1.39,1.39,1.39,1.3829,1.39,1.3686,1.2888,1.2452,1.238,1.1879,1.1449,1.1452,1.0946,1.0728,1.0509,1.0149,0.9648,0.9216,0.8537,0.7812,0.733,0.6817,0.6644,0.7109,0.6243,0.7042,0.8174,0.8909,0.8972,0.8839,0.8839,0.8972,0.8906,0.8709,0.8643,0.8573,0.7641,0.7374,0.7176,0.6176,0.564,0.4973,0.4838,0.4739,0.4404,0.4263,0.3505,0.3112,0.272,0.2656,0.253,0.2591,0.2468,0.2346,0.2284,0.2099,0.2038,0.2038,0.2038,0.2038,0.2038,0.2038,0.2038,0.2038,0.2038,0.2038,0.1969,0.1961,0.1933,0.1903,0.1866,0.1827,0.1808,0.1798,0.1795,0.1795,0.1795,0.1795,0.1795,0.1795,0.1739,0.1739,0.1683,0.1514,0.1346,0.1177,0.1009,0.0785,0.0617,0.0448,0.0,0.0,0.0,0.0,0.0,0.0,0.0,0.0,0.0,0.0,0.0,0.0,0.0,0.0,0.0,0.0,0.0,1.39,1.39,1.39,1.39,1.39,1.39,1.39,1.39,1.39,1.39,1.39,1.39,1.39,1.3829,1.3539,1.3611,1.3468,1.325,1.3035,1.3757,1.3253,1.267,1.2019,1.1732,1.1302,1.0224,0.9468,0.9376,0.8993,0.8374,0.7977,0.8706,0.8307,0.8573,0.9105,0.9905,1.0237,1.0634,1.0502,1.0505,0.964,0.9108,0.8909,0.9105,0.8906,0.8773,0.8706,0.8374,0.7971,0.7042,0.6564,0.6461,0.6286,0.5976,0.4946,0.4385,0.4031,0.3887,0.388,0.3942,0.3634,0.3326,0.2898,0.2898,0.296,0.2223,0.2038,0.2038,0.2038,0.2038,0.2038,0.2038,0.2038,0.2038,0.1973,0.1966,0.1949,0.1911,0.1864,0.1827,0.1804,0.1795,0.1795,0.1795,0.1795,0.1795,0.1795,0.1795,0.1795,0.1795,0.1795,0.1739,0.1627,0.1458,0.1346,0.1121,0.0841,0.0673,0.0504,0.0,0.0,0.0,0.0,0.0,0.0,0.0,0.0,0.0,0.0,0.0,0.0,0.0,0.0,0.0,0.0,1.39,1.39,1.39,1.39,1.39,1.39,1.39,1.39,1.39,1.39,1.39,1.39,1.39,1.39,1.39,1.39,1.39,1.39,1.39,1.3829,1.39,1.3682,1.3321,1.3031,1.2888,1.2531,1.1834,1.0844,1.0445,0.9664,0.9241,0.9971,0.9573,0.9374,1.017,1.0902,1.1237,1.1967,1.1967,1.1901,1.1501,1.1637,1.1769,1.1369,1.1038,1.0303,0.9971,0.9175,0.8706,0.8107,0.8041,0.8046,0.7938,0.7478,0.7056,0.6598,0.6139,0.5849,0.5778,0.5778,0.5651,0.5714,0.5471,0.486,0.4063,0.2775,0.2099,0.21,0.2038,0.2038,0.2038,0.2038,0.2038,0.2038,0.2038,0.197,0.1962,0.1913,0.1861,0.183,0.1803,0.1795,0.1795,0.1795,0.1795,0.1795,0.1795,0.1795,0.1795,0.1795,0.1795,0.1795,0.1795,0.1683,0.157,0.1458,0.1177,0.0897,0.0729,0.0504,0.0336,0.0336,0.0336,0.028,0.0,0.0224,0.0112,0.0,0.0,0.0,0.0,0.0,0.0,0.0,0.0,1.39,1.39,1.39,1.39,1.39,1.39,1.39,1.39,1.39,1.39,1.39,1.39,1.39,1.39,1.39,1.39,1.39,1.39,1.39,1.39,1.39,1.39,1.39,1.39,1.3757,1.3527,1.2989,1.2175,1.1805,1.1347,1.1104,1.1372,1.0704,1.0704,1.1571,1.1703,1.1905,1.27,1.277,1.277,1.277,1.277,1.277,1.2437,1.2103,1.1571,1.1435,1.077,1.0237,0.9772,0.9507,0.8955,0.8841,0.8749,0.8441,0.7958,0.7539,0.7548,0.7548,0.7609,0.7667,0.7487,0.7182,0.6202,0.5839,0.4614,0.3389,0.3267,0.2407,0.2284,0.2284,0.2284,0.2161,0.2099,0.2035,0.1969,0.1947,0.1909,0.1868,0.1836,0.1812,0.1795,0.1795,0.1795,0.1795,0.1795,0.1795,0.1795,0.1795,0.1795,0.1795,0.1795,0.1795,0.1795,0.1739,0.1627,0.1458,0.1234,0.1009,0.0841,0.0673,0.0617,0.0617,0.0617,0.0504,0.0336,0.0224,0.0168,0.0,0.0,0.0,0.0,0.0,0.0,0.0,1.39,1.39,1.39,1.39,1.39,1.39,1.39,1.39,1.39,1.39,1.39,1.39,1.39,1.39,1.39,1.39,1.39,1.39,1.39,1.39,1.39,1.39,1.39,1.39,1.39,1.3807,1.3418,1.3286,1.3082,1.2531,1.2359,1.272,1.277,1.277,1.277,1.277,1.277,1.277,1.277,1.277,1.277,1.277,1.277,1.277,1.277,1.277,1.277,1.2568,1.1967,1.1571,1.0972,1.0492,1.0152,1.0249,0.9864,0.9482,0.9128,0.8891,0.872,0.8833,0.8587,0.8279,0.7972,0.7728,0.7426,0.6571,0.5408,0.443,0.3573,0.2959,0.2959,0.259,0.2406,0.216,0.2095,0.1966,0.1937,0.2028,0.2055,0.202,0.1994,0.1972,0.1851,0.1851,0.1795,0.1795,0.1795,0.1795,0.1795,0.1795,0.1795,0.1795,0.1795,0.1795,0.1795,0.1739,0.1627,0.1458,0.1234,0.1121,0.1009,0.0953,0.0897,0.0897,0.0785,0.0617,0.0504,0.0392,0.0,0.0,0.0,0.0,0.0,0.0,0.0,1.39,1.39,1.39,1.39,1.39,1.39,1.39,1.39,1.39,1.39,1.39,1.39,1.39,1.39,1.39,1.39,1.39,1.39,1.39,1.39,1.39,1.39,1.39,1.39,1.39,1.3807,1.3673,1.3526,1.3368,1.3149,1.2966,1.2848,1.277,1.277,1.277,1.277,1.277,1.277,1.277,1.277,1.277,1.277,1.277,1.277,1.277,1.277,1.277,1.277,1.2638,1.2507,1.2305,1.1971,1.1829,1.1698,1.1415,1.1062,1.0681,1.0602,1.0472,1.0433,1.0236,1.0361,1.0115,0.9808,0.9383,0.883,0.7728,0.6811,0.5896,0.4795,0.4429,0.3449,0.3021,0.259,0.2342,0.2083,0.194,0.24,0.2788,0.2739,0.2638,0.238,0.2018,0.1963,0.1795,0.1795,0.1795,0.1795,0.1795,0.1795,0.1795,0.1795,0.1795,0.1795,0.1795,0.1795,0.1739,0.1627,0.1514,0.1402,0.129,0.1234,0.1234,0.1234,0.1177,0.1009,0.0897,0.0673,0.0,0.0,0.0,0.0,0.0,0.0,0.0]}]]